[[{"header":{"parameterUnit":"m.s-1","parameterCategory":1,"la1":30.6,"la2":28.766,"lo1":-90.7593,"lo2":-88.6598,"dy":0.0162,"dx":0.0183,"nx":116,"ny":114,"refTime":"2024-03-14T06:00:00:Z","depth":0,"parameterNumber":2,"parameterNumberName":"U-component_of_WINDS"},"data":[0.0,0.0,0.0,0.0,0.0,0.0,0.0,0.0,0.0,0.0,0.0,0.0,0.0,0.0,0.0,0.0,0.0,0.0,0.0,0.0,0.0,0.0,0.0,0.0,0.0,0.0,0.0,0.0,0.0,0.0,0.0,0.0,0.0,0.0,0.0,0.0,0.0,0.0,0.0,0.0,0.0,0.0,0.0,0.0,0.0,0.0,0.0,0.0,0.0,0.0,0.0,0.0,0.0,0.0,0.0,0.0,0.0,0.0,0.0,0.0,0.0,0.0,0.0,0.0,0.0,0.0,0.0,0.0,0.0,0.0,0.0,0.0,0.0,0.0,0.0,0.0,0.0,0.0,0.0,0.0,0.0,0.0,0.0,0.0,0.0,0.0,0.0,0.0,0.0,0.0,0.0,0.0,0.0,0.0,0.0,0.0,0.0,0.0,0.0,0.0,0.0,0.0,0.0,0.0,0.0,0.0,0.0,0.0,0.0,0.0,0.0,0.0,0.0,0.0,0.0,0.0,0.0,0.0,0.0,0.0,0.0,0.0,0.0,0.0,0.0,0.0,0.0,0.0,0.0,0.0,0.0,0.0,0.0,0.0,0.0,0.0,0.0,0.0,0.0,0.0,0.0,0.0,0.0,0.0,0.0,0.0,0.0,0.0,0.0,0.0,0.0,0.0,0.0,0.0,0.0,0.0,0.0,0.0,0.0,0.0,0.0,0.0,0.0,0.0,0.0,0.0,0.0,0.0,0.0,0.0,0.0,0.0,0.0,0.0,0.0,0.0,0.0,0.0,0.0,0.0,0.0,0.0,0.0,0.0,0.0,0.0,0.0,0.0,0.0,0.0,0.0,0.0,0.0,0.0,0.0,0.0,0.0,0.0,0.0,0.0,0.0,0.0,0.0,0.0,0.0,0.0,0.0,0.0,0.0,0.0,0.0,0.0,0.0,0.0,0.0,0.0,0.0,0.0,0.0,0.0,0.0,0.0,0.0,0.0,0.0,0.0,0.0,0.0,0.0,0.0,0.0,0.0,0.0,0.0,0.0,0.0,0.0,0.0,0.0,0.0,0.0,0.0,0.0,0.0,0.0,0.0,0.0,0.0,0.0,0.0,0.0,0.0,0.0,0.0,0.0,0.0,0.0,0.0,0.0,0.0,0.0,0.0,0.0,0.0,0.0,0.0,0.0,0.0,0.0,0.0,0.0,0.0,0.0,0.0,0.0,0.0,0.0,0.0,0.0,0.0,0.0,0.0,0.0,0.0,0.0,0.0,0.0,0.0,0.0,0.0,0.0,0.0,0.0,0.0,0.0,0.0,0.0,0.0,0.0,0.0,0.0,0.0,0.0,0.0,0.0,0.0,0.0,0.0,0.0,0.0,0.0,0.0,0.0,0.0,0.0,0.0,0.0,0.0,0.0,0.0,0.0,0.0,0.0,0.0,0.0,0.0,0.0,0.0,0.0,0.0,0.0,0.0,0.0,0.0,0.0,0.0,0.0,0.0,0.0,0.0,0.0,0.0,0.0,0.0,0.0,0.0,0.0,0.0,0.0,0.0,0.0,0.0,0.0,0.0,0.0,0.0,0.0,0.0,0.0,0.0,0.0,0.0,0.0,0.0,0.0,0.0,0.0,0.0,0.0,0.0,0.0,0.0,0.0,0.0,0.0,0.0,0.0,0.0,0.0,0.0,0.0,0.0,0.0,0.0,0.0,0.0,0.0,0.0,0.0,0.0,0.0,0.0,0.0,0.0,0.0,0.0,0.0,0.0,0.0,0.0,0.0,0.0,0.0,0.0,0.0,0.0,0.0,0.0,0.0,0.0,0.0,0.0,0.0,0.0,0.0,0.0,0.0,0.0,0.0,0.0,0.0,0.0,0.0,0.0,0.0,0.0,0.0,0.0,0.0,0.0,0.0,0.0,0.0,0.0,0.0,0.0,0.0,0.0,0.0,0.0,0.0,0.0,0.0,0.0,0.0,0.0,0.0,0.0,0.0,0.0,0.0,0.0,0.0,0.0,0.0,0.0,0.0,0.0,0.0,0.0,0.0,0.0,0.0,0.0,0.0,0.0,0.0,0.0,0.0,0.0,0.0,0.0,0.0,0.0,0.0,0.0,0.0,0.0,0.0,0.0,0.0,0.0,0.0,0.0,0.0,0.0,0.0,0.0,0.0,0.0,0.0,0.0,0.0,0.0,0.0,0.0,0.0,0.0,0.0,0.0,0.0,0.0,0.0,0.0,0.0,0.0,0.0,0.0,0.0,0.0,0.0,0.0,0.0,0.0,0.0,0.0,0.0,0.0,0.0,0.0,0.0,0.0,0.0,0.0,0.0,0.0,0.0,0.0,0.0,0.0,0.0,0.0,0.0,0.0,0.0,0.0,0.0,0.0,0.0,0.0,0.0,0.0,0.0,0.0,0.0,0.0,0.0,0.0,0.0,0.0,0.0,0.0,0.0,0.0,0.0,0.0,0.0,0.0,0.0,0.0,0.0,0.0,0.0,0.0,0.0,0.0,0.0,0.0,0.0,0.0,0.0,0.0,0.0,0.0,0.0,0.0,0.0,0.0,0.0,0.0,0.0,0.0,0.0,0.0,0.0,0.0,0.0,0.0,0.0,0.0,0.0,0.0,0.0,0.0,0.0,0.0,0.0,0.0,0.0,0.0,0.0,0.0,0.0,0.0,0.0,0.0,0.0,0.0,0.0,0.0,0.0,0.0,0.0,0.0,0.0,0.0,0.0,0.0,0.0,0.0,0.0,0.0,0.0,0.0,0.0,0.0,0.0,0.0,0.0,0.0,0.0,0.0,0.0,0.0,0.0,0.0,0.0,0.0,0.0,0.0,0.0,0.0,0.0,0.0,0.0,0.0,0.0,0.0,0.0,0.0,0.0,0.0,0.0,0.0,0.0,0.0,0.0,0.0,0.0,0.0,0.0,0.0,0.0,0.0,0.0,0.0,0.0,0.0,0.0,0.0,0.0,0.0,0.0,0.0,0.0,0.0,0.0,0.0,0.0,0.0,0.0,0.0,0.0,0.0,0.0,0.0,0.0,0.0,0.0,0.0,0.0,0.0,0.0,0.0,0.0,0.0,0.0,0.0,0.0,0.0,0.0,0.0,0.0,0.0,0.0,0.0,0.0,0.0,0.0,0.0,0.0,0.0,0.0,0.0,0.0,0.0,0.0,0.0,0.0,0.0,0.0,0.0,0.0,0.0,0.0,0.0,0.0,0.0,0.0,0.0,0.0,0.0,0.0,0.0,0.0,0.0,0.0,0.0,0.0,0.0,0.0,0.0,0.0,0.0,0.0,0.0,0.0,0.0,0.0,0.0,0.0,0.0,0.0,0.0,0.0,0.0,0.0,0.0,0.0,0.0,0.0,0.0,0.0,0.0,0.0,0.0,0.0,0.0,0.0,0.0,0.0,0.0,0.0,0.0,0.0,0.0,0.0,0.0,0.0,0.0,0.0,0.0,0.0,0.0,0.0,0.0,0.0,0.0,0.0,0.0,0.0,0.0,0.0,0.0,0.0,0.0,0.0,0.0,0.0,0.0,0.0,0.0,0.0,0.0,0.0,0.0,0.0,0.0,0.0,0.0,0.0,0.0,0.0,0.0,0.0,0.0,0.0,0.0,0.0,0.0,0.0,0.0,0.0,0.0,0.0,0.0,0.0,0.0,0.0,0.0,0.0,0.0,0.0,0.0,0.0,0.0,0.0,0.0,0.0,0.0,0.0,0.0,0.0,0.0,0.0,0.0,0.0,0.0,0.0,0.0,0.0,0.0,0.0,0.0,0.0,0.0,0.0,0.0,0.0,0.0,0.0,0.0,0.0,0.0,0.0,0.0,0.0,0.0,0.0,0.0,0.0,0.0,0.0,0.0,0.0,0.0,0.0,0.0,0.0,0.0,0.0,0.0,0.0,0.0,0.0,0.0,0.0,0.0,0.0,0.0,0.0,0.0,0.0,0.0,0.0,0.0,0.0,0.0,0.0,0.0,0.0,0.0,0.0,0.0,0.0,0.0,0.0,0.0,0.0,0.0,0.0,0.0,0.0,0.0,0.0,0.0,0.0,0.0,0.0,0.0,0.0,0.0,0.0,0.0,0.0,0.0,0.0,0.0,0.0,0.0,0.0,0.0,0.0,0.0,0.0,0.0,0.0,0.0,0.0,0.0,0.0,0.0,0.0,0.0,0.0,0.0,0.0,0.0,0.0,0.0,0.0,0.0,0.0,0.0,0.0,0.0,0.0,0.0,0.0,0.0,0.0,0.0,0.0,0.0,0.0,0.0,0.0,0.0,0.0,0.0,0.0,0.0,0.0,0.0,0.0,0.0,0.0,0.0,0.0,0.0,0.0,0.0,0.0,0.0,0.0,0.0,0.0,0.0,0.0,0.0,0.0,0.0,0.0,0.0,0.0,0.0,0.0,0.0,0.0,0.0,0.0,0.0,0.0,0.0,0.0,0.0,0.0,0.0,0.0,0.0,0.0,0.0,0.0,0.0,0.0,0.0,0.0,0.0,0.0,0.0,0.0,0.0,0.0,0.0,0.0,0.0,0.0,0.0,0.0,0.0,0.0,0.0,0.0,0.0,0.0,0.0,0.0,0.0,0.0,0.0,0.0,0.0,0.0,0.0,0.0,0.0,0.0,0.0,0.0,0.0,0.0,0.0,0.0,0.0,0.0,0.0,0.0,0.0,0.0,0.0,0.0,0.0,0.0,0.0,0.0,0.0,0.0,0.0,0.0,0.0,0.0,0.0,0.0,0.0,0.0,0.0,0.0,0.0,0.0,0.0,0.0,0.0,0.0,0.0,0.0,0.0,0.0,0.0,0.0,0.0,0.0,0.0,0.0,0.0,0.0,0.0,0.0,0.0,0.0,0.0,0.0,0.0,0.0,0.0,0.0,0.0,0.0,0.0,0.0,0.0,0.0,0.0,0.0,0.0,0.0,0.0,0.0,0.0,0.0,0.0,0.0,0.0,0.0,0.0,0.0,0.0,0.0,0.0,0.0,0.0,0.0,0.0,0.0,0.0,0.0,0.0,0.0,0.0,0.0,0.0,0.0,0.0,0.0,0.0,0.0,0.0,0.0,0.0,0.0,0.0,0.0,0.0,0.0,0.0,0.0,0.0,0.0,0.0,0.0,0.0,0.0,0.0,0.0,0.0,0.0,0.0,0.0,0.0,0.0,0.0,0.0,0.0,0.0,0.0,0.0,0.0,0.0,0.0,0.0,0.0,0.0,0.0,0.0,0.0,0.0,0.0,0.0,0.0,0.0,0.0,0.0,0.0,0.0,0.0,0.0,0.0,0.0,0.0,0.0,0.0,0.0,0.0,0.0,0.0,0.0,0.0,0.0,0.0,0.0,0.0,0.0,0.0,0.0,0.0,0.0,0.0,0.0,0.0,0.0,0.0,0.0,0.0,0.0,0.0,0.0,0.0,0.0,0.0,0.0,0.0,0.0,0.0,0.0,0.0,0.0,0.0,0.0,0.0,0.0,0.0,0.0,0.0,0.0,0.0,0.0,0.0,0.0,0.0,0.0,0.0,0.0,0.0,0.0,0.0,0.0,0.0,0.0,0.0,0.0,0.0,0.0,0.0,0.0,0.0,0.0,0.0,0.0,0.0,0.0,0.0,0.0,0.0,0.0,0.0,0.0,0.0,0.0,0.0,0.0,0.0,0.0,0.0,0.0,0.0,0.0,0.0,0.0,0.0,0.0,0.0,0.0,0.0,0.0,0.0,0.0,0.0,0.0,0.0,0.0,0.0,0.0,0.0,0.0,0.0,0.0,0.0,0.0,0.0,0.0,0.0,0.0,0.0,0.0,0.0,0.0,0.0,0.0,0.0,0.0,0.0,0.0,0.0,0.0,0.0,0.0,0.0,0.0,0.0,0.0,0.0,0.0,0.0,0.0,0.0,0.0,0.0,0.0,0.0,0.0,0.0,0.0,0.0,0.0,0.0,0.0,0.0,0.0,0.0,0.0,0.0,0.0,0.0,0.0,0.0,0.0,0.0,0.0,0.0,0.0,0.0,0.0,0.0,0.0,0.0,0.0,0.0,0.0,0.0,0.0,0.0,0.0,0.0,0.0,0.0,0.0,0.0,0.0,0.0,0.0,0.0,-2.0763,-1.957,0.0,0.0,0.0,0.0,0.0,0.0,0.0,0.0,0.0,0.0,0.0,0.0,0.0,0.0,0.0,0.0,0.0,0.0,0.0,0.0,0.0,0.0,0.0,0.0,0.0,0.0,0.0,0.0,0.0,0.0,0.0,0.0,0.0,0.0,0.4336,0.1315,0.0359,0.1638,-0.0476,-0.1371,-0.0993,0.0441,0.353,0.7882,0.0,0.0,0.0,0.0,0.0,0.0,0.0,0.0,0.0,0.0,0.0,0.0,0.0,0.0,0.0,0.0,0.0,0.0,0.0,0.0,0.0,0.0,0.0,0.0,0.0,0.0,0.0,0.0,0.0,0.0,0.0,0.0,0.0,0.0,0.0,0.0,0.0,0.0,0.0,0.0,0.0,0.0,0.0,0.0,0.0,0.0,0.0,0.0,0.0,0.0,0.0,0.0,0.0,0.0,0.0,0.0,0.0,0.0,0.0,0.0,0.0,0.0,0.0,0.0,0.0,0.0,0.0,0.0,0.0,0.0,-2.1983,-2.0983,0.0,0.0,0.0,0.0,0.0,0.0,0.0,0.0,0.0,0.0,0.0,0.0,0.0,0.0,0.0,0.0,0.0,0.0,0.0,0.0,0.0,0.0,0.0,0.883,0.8534,0.8567,0.7357,0.6436,0.6158,0.5779,0.4649,0.2658,0.2357,0.1931,0.1106,-0.2236,-0.3365,-0.2214,-0.4388,-0.5424,-0.539,-0.8158,-0.6078,-0.0086,-0.096,0.0,0.0,0.0,0.0,0.0,0.0,0.0,0.0,0.0,0.0,0.0,0.0,0.0,0.0,0.0,0.0,0.0,0.0,0.0,0.0,0.0,0.0,0.0,0.0,0.0,0.0,0.0,0.0,0.0,0.0,0.0,0.0,0.0,0.0,0.0,0.0,0.0,0.0,0.0,0.0,0.0,0.0,0.0,0.0,0.0,0.0,0.0,0.0,0.0,0.0,0.0,0.0,0.0,0.0,0.0,0.0,0.0,0.0,0.0,0.0,0.0,0.0,0.0,-2.487,-2.4613,-2.4171,-2.4155,-2.3876,-2.3414,-2.3074,-2.2356,-2.137,-2.0606,0.0,0.0,0.0,0.0,0.0,0.0,0.0,0.0,0.0,0.0,0.0,0.0,0.0,0.0,0.0,0.0,0.0,0.0,0.0,0.0,0.0,0.7342,0.7057,0.663,0.5439,0.4725,0.4689,0.2868,0.138,0.0442,-0.022,-0.1206,-0.2575,-0.4881,-0.6322,-0.6765,-0.8909,-0.9806,-0.9604,-1.321,-1.431,-1.3094,-0.6557,0.0,0.0,0.0,0.0,0.0,0.0,0.0,0.0,0.0,0.0,0.0,0.0,0.0,0.0,0.0,0.0,0.0,0.0,0.0,0.0,0.0,0.0,0.0,0.0,0.0,0.0,0.0,0.0,0.0,0.0,0.0,0.0,0.0,0.0,0.0,0.0,0.0,0.0,0.0,0.0,0.0,0.0,0.0,-2.4055,-2.4074,0.0,0.0,0.0,0.0,0.0,0.0,0.0,0.0,0.0,0.0,0.0,0.0,0.0,-2.5305,-2.5188,-2.5344,-2.5383,-2.5325,-2.5142,-2.4994,-2.4859,-2.4733,-2.4559,-2.4337,-2.4273,0.0,-2.1959,-2.1484,0.0,0.0,0.0,0.0,0.0,0.0,0.0,0.0,0.0,0.0,0.0,0.0,0.0,0.0,0.0,0.0,0.0,0.0,0.0,0.0,0.0,0.5851,0.528,0.5177,0.3954,0.2828,0.1992,0.0998,-0.0222,-0.1773,-0.2544,-0.3479,-0.4518,-0.6663,-0.8241,-0.9344,-1.1376,-1.2273,-1.2137,-1.5716,-1.756,-1.7705,-1.5285,-1.4833,-1.5881,-1.6441,0.0,0.0,0.0,0.0,0.0,0.0,0.0,0.0,0.0,0.0,0.0,0.0,0.0,0.0,0.0,0.0,0.0,0.0,0.0,0.0,0.0,0.0,0.0,0.0,0.0,0.0,0.0,0.0,0.0,0.0,0.0,0.0,0.0,0.0,0.0,0.0,0.0,0.0,0.0,-2.4555,-2.4517,-2.4351,-2.4702,-2.5003,0.0,0.0,0.0,0.0,0.0,0.0,0.0,0.0,0.0,-2.5404,-2.5403,-2.542,-2.5459,-2.5524,-2.5527,-2.5469,-2.5363,-2.5226,-2.5043,-2.4956,-2.4823,-2.4648,-2.4559,-2.3987,-2.3118,-2.2401,-2.1244,-1.9861,0.0,0.0,0.0,0.0,-1.742,-1.742,0.0,0.0,0.0,0.0,0.0,0.0,0.0,0.0,0.0,0.0,0.0,0.0,0.5729,0.4557,0.3773,0.3586,0.2388,0.1113,-0.0222,-0.0833,-0.1882,-0.3484,-0.4477,-0.5404,-0.6304,-0.8233,-0.9885,-1.1254,-1.2704,-1.3733,-1.4417,-1.7116,-1.8907,-1.9922,-2.1529,-2.2816,-2.3827,-2.3517,-2.3386,0.0,0.0,0.0,0.0,0.0,0.0,0.0,0.0,0.0,0.0,0.0,0.0,0.0,0.0,0.0,0.0,0.0,0.0,0.0,0.0,0.0,0.0,0.0,0.0,0.0,0.0,0.0,0.0,0.0,0.0,0.0,0.0,0.0,0.0,0.0,0.0,0.0,0.0,-2.4357,-2.4367,-2.4253,-2.4425,-2.4683,0.0,0.0,0.0,0.0,0.0,0.0,-2.536,-2.5325,-2.5332,-2.5447,-2.5428,-2.5418,-2.5473,-2.5559,-2.5565,-2.5508,-2.5504,-2.5388,-2.5168,-2.5111,-2.4985,-2.484,-2.4673,-2.4358,-2.3928,-2.298,-2.1829,-2.0634,-2.0,-1.931,-1.8632,-1.8481,-1.8412,-1.8412,0.0,0.0,0.0,0.0,0.0,0.0,0.0,0.0,0.0,0.0,0.0,0.4803,0.4192,0.3641,0.2775,0.1385,0.0556,-0.0222,-0.0998,-0.2987,-0.4204,-0.4316,-0.5697,-0.716,-0.8515,-0.9974,-1.1349,-1.2715,-1.2812,-1.4279,-1.7016,-1.7582,-1.9129,-2.1404,-2.2214,-2.3106,-2.4006,-2.4293,-2.4415,-2.4426,0.0,0.0,0.0,0.0,0.0,0.0,0.0,0.0,0.0,0.0,0.0,0.0,0.0,0.0,0.0,0.0,0.0,0.0,0.0,0.0,0.0,0.0,0.0,0.0,0.0,0.0,0.0,0.0,0.0,0.0,0.0,0.0,0.0,0.0,0.0,0.0,0.0,0.0,0.0,-2.3241,-2.3181,0.0,0.0,0.0,0.0,-2.4809,-2.4828,-2.4877,-2.5022,-2.5022,-2.512,-2.5303,-2.5376,-2.5403,-2.5409,-2.5532,-2.5568,-2.5508,-2.5499,-2.546,-2.539,-2.5322,-2.5187,-2.4975,-2.4834,-2.4487,-2.3928,-2.298,-2.235,-2.1861,-2.0634,-2.0119,-2.0032,-1.9515,-1.9339,-1.9339,0.0,0.0,0.0,0.0,0.0,0.0,0.0,0.0,0.4068,0.3852,0.3692,0.3245,0.2221,0.1543,0.0778,-0.0222,-0.1001,-0.1725,-0.2447,-0.3279,-0.4326,-0.5751,-0.6308,-0.7486,-0.9377,-1.0305,-1.1449,-1.2822,-1.4314,-1.5782,-1.7247,-1.872,-2.0039,-2.1227,-2.2306,-2.3226,-2.3982,-2.4522,-2.4826,-2.4954,-2.5034,-2.4778,0.0,0.0,0.0,0.0,0.0,0.0,0.0,0.0,0.0,0.0,0.0,0.0,0.0,0.0,0.0,0.0,0.0,0.0,0.0,0.0,0.0,0.0,0.0,0.0,0.0,0.0,0.0,0.0,0.0,0.0,0.0,0.0,0.0,0.0,0.0,0.0,0.0,-2.4165,-2.4378,0.0,-2.4875,-2.556,-2.5643,-2.4865,-2.5158,-2.5233,-2.4888,-2.4941,-2.5023,-2.5099,-2.5265,-2.535,-2.5351,-2.5432,-2.5489,-2.5509,-2.5508,-2.5499,-2.5467,-2.5395,-2.5301,-2.5178,-2.501,-2.4771,-2.4465,-2.3777,-2.2947,-2.2029,-2.1343,-2.0938,-2.0698,-2.0508,-2.0233,-1.9974,0.0,0.0,0.0,0.0,0.0,0.0,0.0,0.0,0.3066,0.265,0.2588,0.2138,0.0885,0.0278,-0.05,-0.1777,-0.2282,-0.2899,-0.3677,-0.3895,-0.4718,-0.6145,-0.6897,-0.7953,-0.9384,-1.0305,-1.1449,-1.2822,-1.4541,-1.6052,-1.722,-1.8829,-2.0062,-2.1039,-2.1983,-2.299,-2.3931,-2.4422,-2.4846,-2.5205,-2.5302,-2.517,-2.4934,0.0,0.0,0.0,0.0,0.0,0.0,0.0,0.0,0.0,0.0,0.0,0.0,0.0,0.0,0.0,0.0,0.0,0.0,0.0,0.0,0.0,0.0,0.0,0.0,0.0,0.0,0.0,0.0,0.0,0.0,0.0,0.0,0.0,0.0,-2.3087,-2.3422,-2.4559,-2.4635,-2.4825,-2.5366,-2.5819,-2.5832,-2.5243,-2.5449,-2.5447,-2.512,-2.4932,-2.4885,-2.4998,-2.5141,-2.5224,-2.5303,-2.5379,-2.5421,-2.5477,-2.5494,-2.5503,-2.5503,-2.5434,-2.5379,-2.533,-2.5091,-2.4943,-2.4818,-2.4227,-2.3505,-2.2685,-2.2167,-2.1765,-2.1446,-2.1446,-2.1234,-2.0952,0.0,0.0,0.0,0.0,0.0,0.0,0.0,0.2725,0.2551,0.2052,0.1976,0.1453,0.0111,-0.0056,-0.0945,-0.3231,-0.3345,-0.3677,-0.446,-0.5109,-0.5487,-0.5487,-0.7511,-0.8678,-0.8678,-1.0033,-1.1399,-1.2773,-1.3375,-1.4879,-1.7165,-1.7786,-1.9104,-2.0959,-2.1301,-2.2355,-2.3866,-2.4013,-2.4505,-2.5199,-2.5488,-2.5433,-2.5226,0.0,0.0,0.0,0.0,0.0,0.0,0.0,0.0,0.0,0.0,0.0,0.0,0.0,0.0,0.0,0.0,0.0,0.0,0.0,0.0,0.0,0.0,0.0,0.0,0.0,0.0,0.0,0.0,0.0,0.0,0.0,0.0,0.0,-2.2348,-2.288,-2.3392,-2.4198,-2.3788,-2.3973,-2.5385,-2.4898,-2.4931,-2.5913,-2.5634,-2.5482,-2.5652,-2.4925,-2.4651,-2.4967,-2.4979,-2.5099,-2.5303,-2.5352,-2.5406,-2.5394,-2.5464,-2.5508,-2.5508,-2.542,-2.5406,-2.5379,-2.5126,-2.5015,-2.4945,-2.4304,-2.4025,-2.3908,-2.3033,-2.2536,-2.231,-2.231,-2.231,-2.2214,0.0,0.0,0.0,0.0,0.0,0.0,0.0,0.3081,0.263,0.1959,0.154,0.0774,-0.0613,-0.1282,-0.206,-0.3289,-0.3846,-0.4239,-0.4463,-0.468,-0.5003,-0.5487,-0.6568,-0.7635,-0.8678,-0.9096,-1.0222,-1.2052,-1.3125,-1.4439,-1.5972,-1.6959,-1.8359,-1.9993,-2.0448,-2.1424,-2.2833,-2.3322,-2.3949,-2.4667,-2.5129,-2.5341,-2.541,0.0,0.0,0.0,0.0,0.0,0.0,0.0,0.0,0.0,0.0,0.0,0.0,0.0,0.0,0.0,0.0,0.0,0.0,0.0,0.0,0.0,0.0,0.0,0.0,0.0,0.0,0.0,0.0,0.0,0.0,0.0,-2.0518,-2.0567,-2.1318,-2.123,-2.1811,-2.3801,-2.4069,-2.4599,-2.5808,-2.6535,-2.6579,-2.5709,-2.5763,-2.5592,-2.5078,-2.4691,-2.4543,-2.4636,-2.4872,-2.5022,-2.5088,-2.5245,-2.5346,-2.5406,-2.5414,-2.5457,-2.5508,-2.542,-2.5401,-2.5398,-2.5274,-2.5124,-2.4989,-2.4796,-2.4441,-2.3948,-2.3312,-2.2877,-2.2581,-2.259,-2.2252,-2.1735,0.0,0.0,0.0,0.0,0.0,0.0,0.0,0.3061,0.2661,0.196,0.1446,0.067,-0.0502,-0.1283,-0.2063,-0.2843,-0.3622,-0.4015,-0.4012,-0.4294,-0.468,-0.5058,0.0,-0.6779,-0.8193,-0.8515,-0.9555,-1.1366,-1.2358,-1.3309,-1.427,-1.5497,-1.6803,-1.8068,-1.8636,-1.957,-2.0722,-2.1498,-2.2251,-2.3013,-2.3708,-2.4496,-2.5248,-2.5302,-2.5216,-2.5095,-2.5264,-2.5117,-2.4878,-2.4954,0.0,0.0,0.0,0.0,0.0,0.0,0.0,0.0,0.0,0.0,0.0,0.0,0.0,0.0,0.0,0.0,0.0,0.0,0.0,0.0,0.0,0.0,0.0,0.0,-2.0158,-2.0124,-2.0413,-2.0662,-2.1584,-2.3654,-2.3762,-2.4394,-2.6185,-2.6591,-2.6595,-2.6293,-2.6096,-2.5811,-2.5319,-2.4721,-2.4428,-2.4495,-2.4693,-2.4858,-2.501,-2.513,-2.5235,-2.5354,-2.5383,-2.5443,-2.5492,-2.5468,-2.5447,-2.5434,-2.5379,-2.5265,-2.5111,-2.4981,-2.47,-2.4279,0.0,0.0,0.0,0.0,-2.2358,-2.1563,0.0,0.0,0.0,0.0,0.0,0.0,0.0,0.2923,0.2818,0.2226,0.1663,0.106,0.0334,-0.039,-0.1172,-0.1895,-0.2674,-0.3174,-0.3176,-0.3846,-0.4294,-0.4349,-0.4944,-0.5905,-0.734,-0.7982,-0.9037,-1.0442,-1.0965,-1.1541,-1.2215,-1.3377,-1.4462,-1.541,-1.5998,-1.6807,-1.7737,-1.8732,-1.9544,-2.0306,-2.1238,-2.2849,-2.4763,-2.4917,-2.4725,-2.4429,-2.4822,-2.4622,-2.4185,-2.4487,0.0,0.0,0.0,0.0,0.0,0.0,0.0,0.0,0.0,0.0,0.0,0.0,0.0,0.0,0.0,0.0,0.0,0.0,0.0,0.0,0.0,0.0,0.0,0.0,-1.9884,-1.9692,-1.969,-2.062,-2.1878,-2.3456,-2.303,-2.3636,-2.6253,-2.5699,-2.5732,-2.712,-2.6383,-2.5895,-2.5943,-2.479,0.0,0.0,0.0,-2.4648,-2.4974,-2.4998,-2.5099,-2.5303,-2.5363,-2.5421,-2.5484,-2.5496,-2.5481,-2.5507,-2.5441,-2.5371,-2.5293,-2.4962,-2.4804,-2.4712,-2.4173,-2.3687,-2.3236,-2.3212,-2.2599,-2.1764,0.0,0.0,0.0,0.0,0.0,0.0,0.0,0.3707,0.3556,0.2985,0.2884,0.2619,0.1839,0.1112,0.0389,-0.0334,-0.1111,-0.1778,-0.2397,-0.2565,-0.2899,-0.3511,-0.3729,-0.444,-0.5855,-0.6018,-0.6811,-0.8233,-0.8325,-0.9006,-1.015,-1.0441,-1.1116,-1.2217,-1.2319,-1.2905,-1.3826,-1.4636,-1.5414,-1.614,-1.6895,-1.981,-2.3694,-2.3668,-2.3609,-2.3543,-2.3566,-2.3161,-2.2698,-2.3135,-2.3111,-2.2982,-2.3307,0.0,0.0,0.0,0.0,0.0,0.0,0.0,0.0,0.0,0.0,0.0,0.0,0.0,0.0,0.0,0.0,0.0,0.0,0.0,0.0,-1.925,-1.9464,-1.9715,-1.9713,-1.9903,-2.0508,-2.1827,-2.2127,-2.3046,-2.5128,-2.5427,-2.5873,-2.674,-2.5794,-2.5322,-2.5561,-2.4446,-2.3937,-2.4266,-2.4428,-2.4607,-2.4828,-2.4937,-2.5099,-2.5303,-2.5313,0.0,-2.5421,-2.5421,-2.5446,-2.5502,-2.5429,-2.5398,-2.5352,-2.508,-2.4809,-2.451,-2.3983,-2.3696,-2.3566,-2.33,-2.3077,-2.2794,0.0,0.0,0.0,0.0,0.0,0.0,0.0,0.3877,0.3896,0.3607,0.3404,0.3176,0.2843,0.2115,0.1502,0.1113,0.0444,-0.0443,-0.1557,-0.1276,-0.1443,-0.2166,-0.2221,-0.2938,-0.4368,-0.4426,-0.4907,-0.6016,-0.6016,-0.6313,-0.7012,-0.7367,-0.778,-0.8346,-0.8691,-0.9102,-0.966,-1.1,-1.1779,-1.2199,-1.3504,-1.6099,-1.9276,-2.0815,-2.146,-2.161,-2.2108,-2.2116,-2.1881,-2.1958,-2.2007,-2.2095,-2.2293,-2.2238,-2.2118,0.0,0.0,0.0,0.0,0.0,0.0,0.0,0.0,0.0,0.0,0.0,0.0,0.0,0.0,-1.9155,-1.9238,0.0,-1.888,-1.8908,-1.912,-1.9291,-1.9288,-1.953,-2.0146,-2.1357,-2.1635,-2.2471,-2.4411,-2.4977,-2.533,-2.5731,-2.5268,-2.4906,-2.4716,-2.391,-2.3522,-2.3692,-2.3803,-2.4025,-2.44,-2.446,-2.4714,-2.5152,-2.5152,-2.5245,-2.5394,-2.5435,-2.5466,-2.5508,-2.5499,-2.5471,-2.5364,-2.5027,-2.4795,-2.4607,-2.4135,-2.3937,-2.3917,-2.3774,-2.3376,-2.2779,0.0,0.0,0.0,0.0,0.0,0.0,0.0,0.3846,0.4029,0.406,0.3756,0.3566,0.3624,0.301,0.2565,0.2452,0.1724,0.0832,-0.0388,0.0111,0.0111,-0.0665,-0.0665,-0.1273,-0.265,-0.265,-0.2975,-0.3566,-0.3566,-0.3566,-0.3564,-0.4088,-0.4348,-0.4398,-0.4904,-0.5153,-0.5255,-0.6974,-0.7804,-0.8067,-0.9739,-1.1518,-1.3499,-1.6241,-1.81,-1.9341,-2.0222,-2.0523,-2.0495,-2.0464,-2.0591,-2.083,-2.116,-2.099,-2.0766,-2.1131,-2.1176,0.0,0.0,0.0,0.0,0.0,0.0,0.0,0.0,0.0,-1.9211,-1.8311,-1.8125,-1.8235,-1.8508,-1.8249,-1.8085,-1.8521,-1.8681,-1.8754,-1.8755,-1.9132,-1.9826,-2.1054,-2.1245,-2.1947,-2.3681,-2.4207,-2.4519,-2.465,-2.4616,-2.4333,-2.3788,-2.3335,-2.3141,-2.3189,-2.3189,-2.345,-2.3988,-2.4007,-2.4327,-2.4962,-2.4962,-2.5094,-2.5313,-2.5396,-2.5442,-2.5505,-2.5577,-2.5507,-2.5321,-2.4984,-2.4842,-2.4775,-2.4444,-2.4321,-2.4303,-2.4228,-2.3634,-2.2785,0.0,0.0,0.0,0.0,0.0,0.0,0.0,0.0,0.402,0.4153,0.4308,0.4349,0.4349,0.4294,0.3959,0.3234,0.2508,0.2006,0.1838,0.1893,0.1613,0.0887,0.0831,0.0443,-0.0331,-0.0386,-0.0386,-0.0496,-0.0496,-0.0496,-0.0496,-0.055,-0.0605,-0.0605,-0.0659,-0.0713,-0.0768,-0.1629,-0.2383,-0.3042,-0.3931,-0.5523,-0.758,-0.8924,-1.2689,-1.7235,-1.7351,-1.7196,-1.6994,-1.7876,-1.8182,-1.8473,-1.9875,-1.9989,-1.9682,-2.0175,0.0,-1.9803,-1.9803,-1.9498,-1.9037,-1.843,-1.8313,-1.8309,0.0,0.0,-1.8824,-1.8318,-1.8203,-1.8057,-1.758,-1.7471,-1.7465,-1.7483,-1.7927,-1.8257,-1.8214,-1.8263,-1.8736,-1.9957,-2.079,-2.1631,-2.2502,-2.3036,-2.3542,-2.4225,-2.3457,-2.3042,-2.3282,-2.2961,-2.2898,-2.3189,-2.3189,-2.345,-2.3988,-2.4007,-2.4279,-2.4814,-2.4814,-2.4904,-2.505,-2.5111,-2.527,-2.55,-2.5565,-2.542,-2.512,-2.5081,-2.4965,-2.4804,-2.4746,-2.4731,-2.4685,-2.4321,-2.4115,-2.3913,0.0,0.0,0.0,0.0,0.0,0.0,0.0,0.0,0.0,0.5275,0.5527,0.5719,0.5719,0.5719,0.5433,0.4641,0.4703,0.0,0.4142,0.4535,0.4423,0.3687,0.3687,0.3299,0.2579,0.2579,0.2579,0.2579,0.2579,0.2579,0.2579,0.2579,0.2579,0.2579,0.2579,0.2579,0.2524,0.1798,0.1036,0.0274,-0.0436,-0.2277,-0.4656,-0.5125,-0.7584,-1.1107,-1.3416,-1.437,0.0,0.0,-1.6103,-1.6548,-1.7581,-1.7765,-1.7661,-1.7843,-1.8082,0.0,-1.819,-1.7825,-1.7328,-1.6709,-1.6583,-1.6532,-1.6252,-1.6585,-1.6766,-1.6256,-1.6179,-1.6203,-1.623,-1.6025,-1.5923,-1.6197,-1.647,-1.6616,-1.6579,-1.685,-1.7487,-1.8658,-1.9502,-2.0657,-2.2409,-2.2661,-2.2818,-2.3064,-2.2609,-2.2215,-2.1948,-2.1787,-2.1782,-2.191,-2.2152,-2.2557,-2.3186,-2.3221,-2.3611,-2.4314,-2.4314,-2.4428,-2.4605,-2.4927,-2.5263,-2.5561,-2.5547,-2.5478,-2.5379,-2.5217,-2.5148,-2.5137,-2.4935,-2.4891,-2.4891,-2.4636,-2.4561,-2.4431,0.0,0.0,0.0,0.0,0.0,0.0,0.0,0.0,0.0,0.0,0.6405,0.6588,0.6588,0.6588,0.6411,0.5842,0.6298,0.0,0.0,0.6298,0.6357,0.5837,0.5783,0.5558,0.5004,0.5311,0.5492,0.5492,0.5749,0.5854,0.5747,0.5747,0.5666,0.5569,0.5569,0.5569,0.5565,0.4992,0.424,0.3333,0.283,0.0867,-0.1734,-0.1734,-0.3079,-0.547,-0.9559,-1.1307,0.0,-1.3026,-1.3726,-1.4193,-1.5195,-1.5449,-1.533,-1.548,-1.596,-1.6448,-1.6448,-1.6163,0.0,-1.4924,-1.4744,-1.4654,-1.4428,-1.466,-1.4822,-1.446,-1.4529,-1.47,-1.4979,-1.484,-1.4821,-1.5227,-1.5257,-1.5262,-1.5262,-1.57,-1.6441,-1.76,-1.8151,-1.9381,-2.1873,-2.2013,-2.1926,-2.1864,-2.1717,-2.137,-2.0845,-2.0926,-2.0991,-2.0991,-2.1399,-2.1886,-2.2461,-2.2609,-2.3064,-2.3771,-2.3771,-2.3932,-2.4239,-2.4839,-2.5221,-2.5453,-2.5488,-2.5527,-2.552,-2.536,-2.5321,-2.5389,-2.5143,-2.509,-2.5138,-2.5031,-2.4911,-2.471,0.0,0.0,0.0,0.0,0.0,0.0,0.0,0.0,0.0,0.0,0.0,0.0,0.0,0.6588,0.6588,0.6588,0.0,0.0,0.0,0.6588,0.6588,0.6588,0.6588,0.6529,0.6529,0.7637,0.8183,0.8183,0.9197,0.9513,0.9126,0.9126,0.8925,0.856,0.856,0.856,0.856,0.8553,0.7699,0.6371,0.6371,0.4631,0.203,0.203,0.066,-0.1819,-0.6087,0.0,-0.7991,-1.0089,-1.0822,-1.1152,-1.3,-1.3248,0.0,-1.3439,-1.4067,-1.4586,-1.4586,-1.4586,-1.427,-1.3074,-1.2799,-1.2908,-1.3432,-1.3571,-1.3571,-1.3521,-1.4047,-1.4344,-1.3847,-1.4261,-1.4709,-1.472,-1.4709,-1.4698,-1.4698,-1.5054,-1.5779,-1.6979,-1.6978,-1.7873,-2.043,-2.0715,-2.0765,-2.0765,-2.0496,-2.033,-2.0314,-2.0764,-2.0991,-2.0991,-2.1399,-2.1774,-2.2107,-2.2521,-2.2873,-2.3212,-2.3212,-2.3494,-2.4026,-2.4759,-2.5111,-2.5139,-2.5395,-2.5469,-2.541,-2.5468,-2.5444,-2.542,-2.5449,-2.5484,-2.5484,-2.5479,-2.5186,-2.4804,0.0,0.0,0.0,0.0,0.0,0.0,0.0,0.0,0.0,0.0,0.0,0.0,0.0,0.0,0.0,0.0,0.0,0.0,0.0,0.9408,0.9408,0.9408,0.9408,0.9408,0.9408,0.9762,1.0136,1.0409,1.0786,1.1261,1.1885,1.1885,1.1877,1.1888,1.1473,1.1047,1.0672,1.025,0.9519,0.8605,0.8162,0.6807,0.4962,0.4011,0.2868,0.1488,0.0,0.0,-0.5681,-0.7361,-0.8222,-0.8813,-0.9981,-1.019,-1.0155,-1.073,-1.1066,-1.127,-1.127,-1.127,-1.1141,-1.0781,-1.0706,-1.0898,-1.1571,-1.1707,-1.1707,-1.1707,-1.1908,-1.1972,-1.1805,-1.1975,-1.2122,-1.2122,-1.2122,-1.2278,-1.2725,-1.29,-1.368,-1.5596,-1.5796,-1.6684,-1.9123,-1.9339,-1.9584,-2.0117,-1.9998,-1.9767,-1.9376,-1.9844,-2.0139,-2.0139,-2.0516,-2.0879,-2.1236,-2.1469,-2.1869,-2.246,-2.246,-2.2891,-2.3678,-2.3636,-2.3871,-2.4341,-2.4788,-2.499,-2.5039,-2.5356,-2.5469,-2.5387,-2.5325,-2.5326,-2.5364,-2.527,-2.5116,-2.4962,0.0,0.0,0.0,0.0,0.0,0.0,0.0,0.0,0.0,0.0,0.0,0.0,0.0,0.0,0.0,0.0,0.0,0.0,0.0,0.0,1.0582,1.0582,1.0582,1.0673,1.0904,1.1234,1.179,1.252,1.2693,1.318,1.3935,1.3935,1.3952,1.39,1.354,1.3145,1.2734,1.2357,1.1581,1.0508,0.9992,0.8669,0.6927,0.5645,0.4587,0.0,0.0,0.0,-0.2699,-0.4372,-0.5462,-0.624,-0.7242,-0.7735,-0.8057,-0.8689,-0.8882,-0.8882,-0.8882,-0.8882,-0.8844,-0.8639,-0.86,-0.8711,-0.9193,-0.9518,-0.9681,-0.9681,-1.01,-1.0415,-1.0415,-1.0724,-1.0919,-1.0838,-1.1082,-1.1379,-1.1434,-1.179,-1.2633,-1.4258,-1.4593,-1.556,-1.7707,-1.7883,-1.8482,-1.9755,-1.9586,-1.9244,-1.8928,-1.906,-1.9132,-1.9132,-1.9743,-2.0066,-2.0076,-2.0701,-2.1259,-2.1694,-2.1824,-2.2187,-2.2786,-2.268,-2.2968,-2.3566,-2.3985,-2.428,-2.4468,-2.4793,-2.4965,-2.5046,-2.4968,-2.5033,-2.5157,-2.5057,-2.4993,-2.5005,0.0,0.0,0.0,0.0,0.0,0.0,0.0,0.0,0.0,0.0,0.0,0.0,0.0,0.0,0.0,0.0,0.0,0.0,0.0,0.0,0.0,1.0366,1.0366,1.0629,1.1248,1.2104,1.3164,1.4366,1.484,1.5228,1.5411,1.5411,1.5202,1.4834,1.4789,1.4777,1.4744,1.4698,1.3715,1.2141,1.1849,1.0351,0.8106,0.7083,0.0,0.0,0.0,0.25,0.0941,-0.1265,-0.2534,-0.3369,-0.4841,-0.5734,-0.6465,-0.7127,-0.7329,-0.7334,-0.7388,-0.7388,-0.7239,-0.6686,-0.6534,-0.6534,-0.6588,-0.7128,-0.767,-0.767,-0.8712,-0.971,0.0,0.0,-1.1023,-1.0667,-1.1447,-1.1774,-1.0812,-1.1653,-1.251,0.0,0.0,0.0,0.0,-1.6373,-1.7256,-1.9433,-1.9141,-1.8822,-1.8781,-1.8302,-1.8052,-1.8013,-1.8933,-1.9214,-1.8702,-2.015,-2.0894,-2.0878,-2.1209,-2.1406,-2.1467,-2.1868,-2.233,-2.2794,-2.303,-2.3304,-2.3617,-2.3801,-2.4017,-2.4256,-2.4359,-2.4576,-2.4821,-2.4762,-2.4762,-2.4812,0.0,0.0,0.0,0.0,0.0,0.0,0.0,0.0,0.0,0.0,0.0,0.0,0.0,0.0,0.0,0.0,0.0,0.0,0.0,0.0,0.0,0.0,0.0,0.0,0.0,0.0,0.0,1.5055,1.5208,1.574,1.6653,1.6653,1.6693,1.6687,1.6182,1.5728,1.532,1.488,1.4207,1.3309,0.0,1.1567,0.9969,0.0,0.0,0.0,0.0,0.0,0.0,0.0,-0.0221,-0.0993,-0.1932,-0.2375,-0.2652,-0.3374,-0.3597,-0.3707,-0.4316,-0.4429,-0.4594,-0.5538,-0.576,-0.5923,-0.6475,-0.675,-0.6858,-0.6858,-0.7605,-0.8249,-0.8249,-0.8511,-0.8709,-0.854,-0.8782,-0.9072,-0.919,-0.997,0.0,-1.1778,0.0,-1.259,-1.3927,-1.425,-1.4949,-1.6356,-1.7494,-1.7743,-1.6872,-1.7216,-1.7206,-1.6783,-1.7005,-1.7303,-1.7598,-1.8763,-1.9367,-1.9367,-1.9445,-1.9852,-2.0523,-2.0346,-2.0703,-2.1493,-2.1956,-2.1693,-2.1076,-2.2718,-2.2922,-2.2311,-2.3027,-2.3451,-2.3566,-2.3069,-2.2883,-2.2916,0.0,0.0,0.0,0.0,0.0,0.0,0.0,0.0,0.0,0.0,0.0,0.0,0.0,0.0,0.0,0.0,0.0,0.0,0.0,0.0,0.0,0.0,0.0,0.0,0.0,0.0,0.0,0.0,0.0,0.0,1.6466,1.6708,1.6901,1.6999,1.6606,1.6288,1.5952,1.5656,0.0,0.0,0.0,0.0,0.0,0.0,0.0,0.0,0.0,0.0,0.0,0.0,0.0,0.0387,0.0,-0.0554,-0.1165,-0.1613,-0.1949,-0.2286,-0.2732,-0.2843,-0.3007,-0.3831,-0.4051,-0.4161,-0.4597,-0.5148,-0.5642,-0.5642,-0.6539,-0.7302,-0.7257,-0.7187,-0.7181,0.0,0.0,0.0,-0.7882,-0.8831,-0.9809,0.0,-1.095,0.0,-1.2624,-1.2899,-1.3258,-1.3864,-1.5589,-1.6244,-1.5421,-1.5563,-1.5489,-1.5168,-1.5409,-1.593,-1.6796,-1.7424,-1.7745,-1.7704,-1.7981,-1.8226,-1.8469,-1.8261,-1.855,-1.9209,-1.9519,-1.9369,-1.9049,-2.0245,-2.0426,-2.0027,-2.0541,-2.0721,-2.0638,-2.0283,-2.014,-2.0137,0.0,0.0,0.0,0.0,0.0,0.0,0.0,0.0,0.0,0.0,0.0,0.0,0.0,0.0,0.0,0.0,0.0,0.0,0.0,0.0,0.0,0.0,0.0,0.0,0.0,0.0,0.0,0.0,0.0,0.0,0.0,0.0,0.0,0.0,0.0,0.0,0.0,0.0,0.0,0.0,0.0,0.0,0.0,0.0,0.0,0.0,0.0,0.0,0.0,0.0,0.3385,0.1662,0.1442,0.0499,-0.0554,-0.0777,-0.1279,-0.1783,-0.2007,-0.2063,-0.2063,-0.2174,-0.2174,-0.2174,-0.2174,-0.3166,-0.4097,-0.4097,-0.5314,-0.6346,-0.6173,-0.6052,-0.6094,-0.6402,0.0,-0.6667,-0.6601,-0.784,-0.8799,-0.9009,-0.9925,-1.082,-1.1519,-1.172,-1.1809,-1.1752,-1.3247,-1.4152,-1.4109,-1.3686,-1.3402,-1.3318,-1.3843,-1.462,-1.569,-1.5818,-1.5874,-1.5831,-1.6338,-1.6435,-1.6058,-1.5893,-1.6061,-1.6512,-1.6337,-1.6395,-1.6679,-1.6863,-1.7041,-1.7208,-1.7372,-1.7315,-1.7134,-1.7076,-1.709,-1.7018,0.0,0.0,0.0,0.0,0.0,0.0,0.0,0.0,0.0,0.0,1.2049,1.2881,0.0,0.0,0.0,0.0,0.0,0.0,0.0,0.0,0.0,0.0,0.0,0.0,0.0,0.0,0.0,0.0,0.0,0.0,0.0,0.0,0.0,0.0,0.0,0.0,0.0,0.0,0.0,0.0,0.0,0.0,0.0,0.0,0.0,0.0,0.0,0.0,0.0,0.0,0.5592,0.4539,0.3279,0.2726,0.228,0.1059,0.0614,0.0279,-0.0949,-0.1284,-0.1452,-0.2063,-0.2174,-0.2174,-0.2174,-0.2395,0.0,0.0,-0.3284,-0.3895,-0.3871,-0.4475,-0.4725,-0.4039,-0.4568,-0.5008,-0.4838,-0.5702,-0.6481,0.0,-0.8125,-0.885,-0.8864,-0.9856,-1.0269,-0.9928,-1.0272,-1.0965,-1.1983,-1.2027,-1.1809,-1.134,-1.1889,-1.23,-1.2484,-1.3084,-1.3356,-1.3346,-1.344,-1.3939,-1.4755,-1.3619,-1.3658,-1.4609,-1.3443,-1.2433,-1.1771,-1.3008,-1.3368,-1.3201,-1.4155,-1.4862,-1.5303,-1.4976,-1.4865,-1.4689,0.0,0.0,0.0,0.0,0.0,0.0,0.0,0.9361,1.0064,1.0712,1.1683,1.2452,1.2881,1.2881,1.2881,0.0,0.0,0.0,0.0,0.0,0.0,0.0,0.0,0.0,0.0,0.0,1.4518,1.5164,0.0,1.5874,1.563,1.6213,1.6522,1.6522,1.6522,1.6522,1.6479,0.0,0.0,1.4663,1.405,1.2986,0.0,0.0,0.0,0.0,0.0,0.0,0.0,0.0,0.5814,0.5374,0.4663,0.3892,0.3176,0.2454,0.1675,0.095,0.0223,-0.0224,-0.0615,-0.095,-0.1062,-0.1062,-0.1062,0.0,0.0,0.0,-0.2315,-0.2836,-0.273,-0.3226,0.0,-0.2989,-0.3236,-0.3499,-0.3402,-0.4137,-0.4952,-0.5563,-0.6583,-0.7355,-0.7628,-0.8167,-0.8439,-0.8109,-0.8137,-0.8639,-0.9582,-0.9963,-1.0003,-0.9717,-1.0679,-1.1232,-1.1232,-1.1509,-1.1483,-1.1146,-1.1103,-1.1216,-1.1443,-1.0763,-1.077,-1.1309,-1.0637,-1.0032,-0.956,-1.0335,-1.0521,-1.0319,-1.0462,-1.0516,-1.0462,-0.9864,-0.9676,-0.957,0.0,0.0,0.0,0.0,0.0,0.0,0.0,0.9263,0.9814,1.0517,1.1065,1.1674,1.2559,1.2822,1.2881,0.0,0.0,0.0,0.0,0.0,0.0,0.0,0.0,0.0,0.0,0.0,0.0,1.4082,1.4944,0.0,0.0,0.0,0.0,0.0,1.6522,1.6423,1.6281,1.5676,1.505,0.0,0.0,1.2899,0.0,0.0,0.0,0.0,0.0,0.0,0.0,0.0,0.5977,0.576,0.576,0.4718,0.3511,0.3345,0.2508,0.1563,0.1396,0.0895,0.0448,0.028,0.0224,0.0168,0.0056,-0.0448,0.0,-0.0838,-0.1426,-0.1905,-0.1755,-0.2087,-0.2282,0.0,-0.2079,-0.2189,-0.2216,-0.2793,-0.3489,-0.4104,-0.5078,0.0,-0.6345,-0.6731,-0.6856,-0.6527,-0.6444,-0.6761,-0.7577,-0.7997,-0.8265,-0.8265,-0.9304,-0.9872,-0.9872,-0.9862,-0.9541,-0.9009,-0.883,-0.8559,-0.8235,-0.7757,-0.7647,-0.7745,-0.743,-0.7325,-0.7325,-0.7325,-0.7384,-0.7483,-0.6871,-0.64,-0.594,-0.5218,-0.4942,-0.4889,0.0,0.0,0.0,0.0,0.0,0.0,0.0,0.8857,0.9106,0.9814,0.9969,1.0466,1.1765,1.251,1.2881,0.0,0.0,0.0,0.0,0.0,0.0,0.0,0.0,0.0,0.0,0.0,0.0,1.4642,1.4721,0.0,0.0,0.0,0.0,0.0,0.0,1.6194,1.5632,1.5062,0.0,0.0,0.0,0.0,0.0,0.0,0.0,0.0,0.0,0.0,0.0,0.0,0.0,0.648,0.648,0.555,0.4236,0.3511,0.0,0.0,0.2286,0.2063,0.1842,0.1174,0.1006,0.0839,0.0168,0.0,-0.0112,-0.0112,-0.0168,-0.0227,-0.0233,-0.0748,-0.1038,0.0,0.0,-0.1238,-0.1228,-0.1421,-0.1768,-0.234,0.0,0.0,-0.413,-0.5627,-0.6233,-0.5318,-0.5065,-0.5417,-0.6678,-0.6756,-0.6799,-0.6799,-0.6902,-0.7009,-0.7009,-0.7004,-0.695,-0.6902,-0.6206,-0.6177,-0.6643,-0.4664,-0.4117,-0.4638,-0.3369,-0.2775,-0.2775,-0.2775,-0.3212,-0.3802,-0.3692,-0.4069,-0.4494,-0.3761,-0.3482,-0.3209,0.0,0.0,0.0,0.0,0.0,0.0,0.8804,0.8804,0.9061,0.971,0.9814,1.0167,1.1116,1.1832,1.2403,1.2871,0.0,0.0,0.0,0.0,0.0,0.0,0.0,0.0,0.0,0.0,1.3382,1.361,1.3967,0.0,0.0,0.0,0.0,0.0,0.0,1.5287,1.5017,1.4422,0.0,0.0,0.0,0.0,0.0,0.0,0.0,0.0,0.0,0.0,0.8156,0.0,0.0,0.0,0.5928,0.5277,0.0,0.0,0.3735,0.3345,0.301,0.2565,0.212,0.1842,0.1452,0.1006,0.0727,0.0,0.0,0.0,0.0,0.0,0.0,-0.0689,-0.0936,0.0,0.0,0.0,-0.0522,-0.0478,-0.0829,-0.1566,-0.211,-0.2593,-0.3087,-0.3841,-0.4072,-0.359,-0.3321,-0.3444,-0.3941,-0.5206,-0.5928,-0.5928,-0.5964,-0.5955,-0.5955,-0.5078,-0.4641,-0.4587,-0.3871,-0.3649,-0.386,-0.3049,-0.2548,-0.2367,-0.1774,-0.1276,-0.0886,-0.0886,-0.1051,-0.1269,-0.0828,-0.0828,-0.099,-0.0275,0.0,0.022,0.0,0.0,0.0,0.0,0.0,0.8804,0.8804,0.8804,0.8962,0.9465,0.9517,0.9762,1.0415,1.0914,1.1575,1.2501,1.2774,0.0,0.0,0.0,0.0,0.0,0.0,0.0,0.0,0.0,1.2881,1.2881,1.3334,1.3647,0.0,0.0,1.4514,1.4698,0.0,0.0,0.0,0.0,0.0,0.0,0.0,0.0,0.0,0.0,0.0,0.0,0.0,0.0,0.0,0.0,0.0,0.0,0.0,0.0,0.0,0.0,0.4125,0.3735,0.3735,0.3287,0.2843,0.2565,0.1953,0.1341,0.0,0.0,0.0,0.0,0.0,0.0,0.0,-0.0525,-0.0717,0.0,0.0,-0.0687,-0.0068,0.0,-0.0213,-0.082,-0.0945,-0.1208,-0.181,-0.2121,-0.2273,-0.2472,-0.2331,-0.2184,-0.2206,-0.3663,-0.4536,-0.4549,-0.4532,-0.4522,-0.4522,-0.3259,-0.2654,-0.2654,-0.1664,-0.1224,-0.1224,-0.1001,-0.0611,-0.0111,-0.0111,0.0166,0.0664,0.0664,0.0774,0.1048,0.1549,0.188,0.2154,0.2881,0.3161,0.3272,0.0,0.0,0.0,0.0,0.0,0.0,0.8804,0.8804,0.8804,0.8811,0.8804,0.9061,0.971,0.9814,1.0364,1.1715,1.2501,0.0,0.0,0.0,0.0,0.0,0.0,0.0,0.0,0.0,1.2881,1.2881,1.2929,1.319,1.3815,1.3826,1.4143,1.4698,0.0,0.0,0.0,0.0,0.0,0.0,0.0,0.0,0.0,0.0,0.0,0.0,0.0,0.0,0.0,0.0,0.0,0.0,0.0,0.5058,0.4519,0.0,0.4519,0.4463,0.4463,0.4463,0.4294,0.3511,0.2732,0.2009,0.0,0.0504,0.0,0.0,0.0,0.0,0.0,0.0,0.0,0.0,0.0,0.0,0.0,0.0,0.0,0.0,0.0,0.0,0.0,-0.0684,-0.1527,-0.2404,-0.2331,-0.2208,-0.2222,-0.2225,-0.2251,-0.2233,-0.223,-0.223,-0.223,-0.1499,-0.1109,-0.1109,0.0388,0.1054,0.1109,0.1836,0.2174,0.2174,0.2174,0.2174,0.2174,0.2174,0.2611,0.3262,0.3262,0.3747,0.4446,0.5221,0.5446,0.5558,0.0,0.0,0.0,0.0,0.0,0.0,0.0,0.848,0.8804,0.8804,0.8804,0.8857,0.9106,0.951,0.9961,1.0415,1.1475,0.0,0.0,0.0,0.0,0.0,0.0,0.0,0.0,0.0,1.2129,1.2129,1.1683,1.1575,1.1747,1.1747,1.1846,1.2024,1.2024,1.1787,0.0,0.0,0.0,0.0,0.0,0.0,0.9106,0.0,0.0,0.0,0.0,0.0,0.0,0.0,0.0,0.0,0.0,0.0,0.0,0.4519,0.4519,0.4519,0.4519,0.4125,0.3622,0.34,0.2397,0.1396,0.1174,0.0504,0.0,0.0,0.0,0.0,0.0,0.0,0.0,0.0,0.0,0.0,0.0,0.0,0.0,0.0,0.0,0.0,0.0,-0.0182,-0.0471,-0.0764,-0.0174,0.0174,0.0176,0.0777,0.012,-0.2147,-0.1224,-0.0691,-0.0691,0.0562,0.1167,0.1167,0.1614,0.1838,0.1838,0.2117,0.2726,0.3715,0.3715,0.4265,0.5202,0.5202,0.5366,0.5529,0.5529,0.5688,0.6009,0.6694,0.6956,0.7116,0.0,0.0,0.0,0.0,0.0,0.0,0.0,0.767,0.8049,0.8374,0.8374,0.848,0.8752,0.9159,0.951,0.9762,1.0568,0.0,0.0,0.0,0.0,0.0,0.0,0.0,0.0,1.1774,1.1416,1.1416,1.1015,1.0813,1.0813,1.0813,1.0813,1.0813,1.0813,1.0661,0.0,0.0,0.0,0.0,0.0,0.0,0.7996,0.0,0.0,0.0,0.0,0.0,0.0,0.0,0.0,0.0,0.0,0.0,0.0,0.0,0.407,0.407,0.407,0.3456,0.2899,0.2954,0.2009,0.1118,0.1118,0.0,0.0,0.0,0.0,0.0,0.0,0.0,0.0,0.0,0.0,0.0,0.0,0.0,0.0,0.0,0.0,0.0,0.0,0.0,0.0,0.0,0.0479,0.0962,0.1277,0.1859,0.1375,-0.0374,0.0479,0.0936,0.0936,0.204,0.2619,0.2619,0.2899,0.3065,0.3065,0.3065,0.3561,0.444,0.444,0.5097,0.0,0.6204,0.6529,0.702,0.702,0.7182,0.7503,0.7906,0.8205,0.8567,0.0,0.0,0.0,0.0,0.0,0.0,0.0,0.6588,0.6858,0.7509,0.7616,0.7883,0.8586,0.8646,0.8896,0.9607,0.0,0.0,0.0,0.0,0.0,0.0,0.0,0.0,1.1715,1.1065,1.072,1.072,1.0661,1.0661,1.0661,1.0661,1.061,1.0559,1.0559,1.0202,0.0,0.0,0.0,0.0,0.7616,0.7235,0.0,0.0,0.0,0.0,0.0,0.0,0.0,0.0,0.0,0.0,0.0,0.0,0.0,0.0,0.0,0.0,0.0,0.2621,0.212,0.212,0.1563,0.1006,0.1006,0.0,0.0,0.0,0.0,0.0,0.0,0.0,0.0,0.0,0.0,0.0,0.0,0.0,0.0,0.0,0.0,0.0,0.0,0.0063,0.0062,0.0062,0.0186,0.0626,0.1478,0.1545,0.193,0.2634,0.2666,0.2638,0.258,0.3119,0.3398,0.34,0.4125,0.4519,0.4519,0.4574,0.4625,0.4625,0.468,0.5113,0.5756,0.5756,0.6519,0.7777,0.7824,0.8262,0.8857,0.8956,0.9413,0.9969,0.0,0.0,0.0,0.0,0.0,0.0,0.0,0.0,0.0,0.0,0.6858,0.6912,0.7074,0.7128,0.7396,0.0,0.0,0.0,0.0,0.0,0.0,0.0,0.0,0.0,1.1065,1.0364,1.0064,1.0064,0.951,0.9256,0.9256,0.9256,0.8988,0.8448,0.8448,0.8019,0.0,0.0,0.0,0.0,0.6858,0.675,0.0,0.0,0.0,0.0,0.5982,0.576,0.0,0.0,0.0,0.0,0.0,0.0,0.0,0.0,0.2954,0.2343,0.1786,0.0,0.1341,0.1341,0.0783,0.028,0.0,0.0,0.0,0.0,0.0,0.0,0.0,0.0,0.0,0.0,0.0,0.0,0.0,0.0,0.0,0.0,0.0,0.0,0.0,0.0628,0.0995,0.1018,0.2288,0.312,0.3334,0.3911,0.4298,0.4489,0.43,0.3868,0.3103,0.3854,0.4236,0.4236,0.4405,0.4519,0.4515,0.5058,0.5546,0.6154,0.6691,0.7337,0.8043,0.8043,0.8209,0.8586,0.9093,0.9399,0.9666,1.0712,1.1216,1.1416,0.0,0.0,0.0,0.0,0.0,0.0,0.0,0.0,0.0,0.0,0.0,0.6204,0.6588,0.6588,0.0,0.0,0.0,0.0,0.0,0.0,0.0,0.0,0.0,1.0364,1.0364,0.9666,0.9197,0.8823,0.8468,0.8103,0.7777,0.7777,0.7563,0.7182,0.7182,0.6966,0.0,0.0,0.0,0.0,0.6091,0.0,0.0,0.0,0.0,0.0,0.5167,0.5058,0.0,0.4177,0.3959,0.3901,0.0,0.0,0.0,0.0,0.2009,0.1507,0.0783,0.0616,0.0616,0.0616,0.028,0.0,0.0,0.0,0.0,0.0,0.0,0.0,0.0,0.0408,0.0551,0.007,0.0785,0.1235,0.0799,0.0288,0.0141,0.055,0.0602,0.0788,0.1181,0.1681,0.1922,0.1866,0.2794,0.3556,0.3778,0.4318,0.469,0.4935,0.4843,0.4523,0.3926,0.431,0.468,0.4948,0.4948,0.5113,0.55,0.5819,0.6204,0.6642,0.702,0.7616,0.8321,0.862,0.8935,0.9309,1.0012,1.0261,1.0364,1.1065,1.1566,1.1864,0.0,0.0,0.0,0.0,0.0,0.0,0.0,0.0,0.0,0.0,0.0,0.0,0.0,0.0,0.0,0.0,0.0,0.0,0.0,0.0,0.0,0.0,0.9309,0.9287,0.9287,0.8732,0.8156,0.7509,0.7509,0.7235,0.6588,0.6588,0.6534,0.6421,0.6312,0.6204,0.0,0.0,0.0,0.5022,0.4999,0.0,0.0,0.0,0.0,0.0,0.0,0.0,0.0,0.3345,0.3121,0.301,0.2397,0.0,0.0,0.0,0.0,0.0,0.0224,0.0,0.0,0.0,0.0,0.0,0.0,0.0,0.0,0.0,0.0,0.0,0.0,0.0822,0.0,0.0,0.1704,0.2645,0.1896,0.1041,0.0725,0.148,0.1577,0.1817,0.2611,0.2811,0.2847,0.2704,0.2954,0.3249,0.3758,0.3974,0.4316,0.4701,0.4796,0.4845,0.4826,0.4692,0.4948,0.5487,0.5597,0.5982,0.6588,0.6696,0.675,0.675,0.6912,0.7289,0.7937,0.8495,0.9072,0.971,1.0364,1.072,1.0813,1.0914,1.1366,1.1972,0.0,0.0,0.0,0.0,0.0,0.0,0.0,0.0,0.0,0.0,0.0,0.0,0.0,0.0,0.0,0.0,0.0,0.0,0.0,0.0,0.0,0.7354,0.7165,0.7063,0.7063,0.7015,0.6858,0.675,0.675,0.6696,0.6588,0.6588,0.6258,0.5651,0.5062,0.4453,0.3782,0.0,0.0,0.2723,0.2703,0.0,0.0,0.0,0.0,0.0,0.0,0.0,0.0,0.2397,0.2341,0.2343,0.2232,0.0,0.0,0.0,0.0,0.0,0.0224,0.0,0.0,0.0,0.0,0.0,0.0,0.0,0.0,0.0,0.0,0.0,0.0,0.0607,0.041,0.0,0.1539,0.2052,0.2789,0.2741,0.2601,0.2679,0.268,0.2679,0.2683,0.3347,0.3769,0.3599,0.4313,0.4709,0.4681,0.4657,0.4641,0.4694,0.4585,0.4849,0.5368,0.534,0.5378,0.5487,0.6145,0.648,0.6642,0.7235,0.7509,0.7563,0.8209,0.8533,0.8646,0.8745,0.885,0.9008,0.971,1.0312,1.0864,1.1466,1.2089,1.2715,0.0,0.0,0.0,0.0,0.0,0.0,0.0,0.0,0.0,0.0,0.0,0.0,0.0,0.0,0.0,0.0,0.0,0.0,0.0,0.0,0.4934,0.4934,0.4864,0.5202,0.6009,0.6009,0.5625,0.4809,0.4809,0.459,0.4213,0.4213,0.4048,0.3721,0.3398,0.3065,0.273,0.273,0.2531,0.2222,0.0,0.0,0.0,0.0,0.0,0.0,0.0,0.0,0.0,0.0,0.1619,0.1563,0.1118,0.0,0.0,0.0,0.0,0.0,0.0112,0.0,0.0,0.0,0.0,0.0,0.0,0.0,0.0,0.0,0.0,0.0,0.0,0.0,0.2203,0.3765,0.3106,0.2766,0.3829,0.3377,0.3149,0.3564,0.3539,0.3666,0.4087,0.4553,0.4668,0.4403,0.4832,0.4996,0.4691,0.4762,0.4738,0.4572,0.4579,0.471,0.4948,0.571,0.6308,0.6686,0.7015,0.7396,0.7777,0.8156,0.8321,0.8315,0.9047,0.9159,0.8857,0.9562,0.9865,0.9969,1.0618,1.1325,1.195,1.2295,1.2842,1.342,0.0,0.0,0.0,0.0,0.0,0.0,0.0,0.0,0.0,0.0,0.0,0.0,0.0,0.0,0.0,0.0,0.0,0.0,0.0,0.0,0.2895,0.3102,0.2873,0.3463,0.4965,0.4852,0.4194,0.3046,0.3046,0.2777,0.2174,0.2174,0.2174,0.2174,0.2174,0.212,0.1952,0.1952,0.185,0.1693,0.0,0.0,0.0,0.0,0.0,0.0,0.0,0.0,0.0,0.0,0.0,0.0,0.0,0.0,0.0,-0.028,-0.0392,-0.0504,-0.0504,-0.0504,-0.0448,-0.028,-0.0112,0.0,0.0,0.0,0.0,0.0,0.0,0.0,0.0,0.223,0.3578,0.5269,0.4399,0.3853,0.4947,0.4239,0.3844,0.452,0.4469,0.4654,0.5362,0.5328,0.5199,0.4938,0.4986,0.486,0.4539,0.4684,0.4838,0.4856,0.4872,0.5046,0.5341,0.6337,0.7074,0.745,0.7777,0.8262,0.8811,0.8956,0.9061,0.9061,0.9762,0.9762,0.9361,1.0364,1.0813,1.0864,1.1366,1.203,1.2676,1.2939,1.335,1.3813,0.0,0.0,0.0,0.0,0.0,0.0,0.0,0.0,0.0,0.0,0.0,0.0,0.0,0.0,0.0,0.0,0.0,0.0,0.0,0.0,0.1621,0.2516,0.1629,0.1832,0.3511,0.2839,0.2395,0.2286,0.2286,0.223,0.2174,0.2174,0.2174,0.2174,0.2174,0.184,0.1174,0.1174,0.0797,0.0176,0.017,0.0,0.0,0.0,0.0,0.0,0.0,0.0,0.0,0.0,0.0,0.0,0.0,0.0,-0.1006,-0.1006,-0.1507,-0.2063,-0.2063,-0.2063,-0.1898,-0.1174,-0.0504,0.0,0.0,0.0,0.0,0.0,0.0,0.0,0.0,0.2196,0.3037,0.3272,0.4017,0.4947,0.6069,0.5957,0.5731,0.5659,0.559,0.5446,0.5376,0.5233,0.5084,0.4931,0.4796,0.4646,0.4525,0.4539,0.4941,0.587,0.5596,0.6248,0.7908,0.7732,0.7289,0.6696,0.8049,0.8752,0.8804,0.9465,0.9718,0.9762,1.0415,1.0712,1.0661,1.0762,1.0813,1.0813,1.0864,1.1266,1.2017,1.3099,1.3457,1.3557,0.0,0.0,0.0,0.0,0.0,0.0,0.0,0.0,0.0,0.0,0.0,0.0,0.0,0.0,0.0,0.0,0.0,0.0,0.0,0.0344,0.0574,0.0908,0.1022,0.1128,0.1279,0.1449,0.1284,0.0838,0.0838,0.0848,0.0808,0.0808,0.0808,0.0808,0.0808,0.0685,0.0393,0.0401,0.0233,0.0,0.0,0.0,0.0,0.0,0.0,0.0,0.0,0.0,0.0,0.0,0.0,-0.0056,-0.056,-0.0895,-0.1174,-0.1675,-0.2009,-0.2174,-0.2174,-0.1842,-0.1452,-0.1174,0.0,0.0,0.0,0.0,0.0,0.0,0.0,0.0,0.0,0.3229,0.4514,0.4054,0.4817,0.5638,0.5979,0.585,0.5735,0.5677,0.5454,0.5281,0.5223,0.5084,0.4975,0.4921,0.5185,0.5346,0.5337,0.5614,0.5973,0.6382,0.6246,0.6514,0.7209,0.7555,0.7563,0.7289,0.8315,0.8804,0.8811,0.9061,0.9159,0.9211,0.9865,1.0167,1.021,1.0618,1.1065,1.1493,1.2213,1.2777,1.328,1.3723,1.445,1.5177,0.0,0.0,0.0,0.0,0.0,0.0,0.0,0.0,0.0,0.0,0.0,0.0,0.0,0.0,0.0,0.0,0.0,0.0,-0.1452,-0.1237,-0.1012,-0.0724,-0.0507,-0.0507,-0.0668,-0.0223,-0.0056,-0.0336,-0.056,-0.0679,-0.0695,-0.076,-0.076,-0.0695,-0.076,-0.075,-0.0672,-0.0688,-0.0695,-0.0695,-0.0695,-0.0695,0.0,0.0,0.0,0.0,0.0,0.0,0.0,0.0,-0.0671,-0.0783,-0.1284,-0.1619,-0.1898,-0.2397,-0.2565,-0.2565,-0.2565,-0.2009,-0.1396,0.0,0.0,0.0,0.0,0.0,0.0,0.0,0.0,0.0339,0.1306,0.0,0.4796,0.4441,0.527,0.5922,0.5817,0.5681,0.5572,0.5521,0.5287,0.5111,0.5067,0.4931,0.4903,0.5142,0.5505,0.5797,0.6023,0.6394,0.6727,0.7072,0.7003,0.7112,0.7405,0.7818,0.8049,0.8049,0.8791,0.9008,0.8804,0.9263,0.9413,0.9465,1.0379,1.0787,1.083,1.1283,1.1733,1.2224,1.3169,1.3682,1.3912,1.4238,1.4907,1.5814,0.0,0.0,0.0,0.0,0.0,0.0,0.0,0.0,0.0,0.0,0.0,0.0,0.0,0.0,0.0,0.0,0.0,0.0,-0.2232,-0.3106,-0.3175,-0.2233,-0.3108,-0.3173,-0.2233,-0.2232,-0.1842,-0.1118,-0.1842,-0.2174,-0.2178,-0.2425,-0.2362,-0.2235,-0.2427,-0.2361,-0.2174,-0.2176,-0.2176,-0.2176,-0.2176,-0.2176,-0.2176,0.0,0.0,0.0,0.0,0.0,0.0,0.0,-0.2174,-0.2174,-0.223,-0.273,-0.3289,-0.34,-0.3345,-0.3289,-0.34,-0.2788,-0.2009,0.0,0.0,0.0,-0.0175,0.0,0.0,0.0,0.0,0.0269,0.114,0.2192,0.3207,0.4045,0.5133,0.5796,0.5796,0.5674,0.5528,0.5442,0.522,0.507,0.4928,0.4779,0.5031,0.5772,0.5592,0.5814,0.6593,0.6642,0.7127,0.8155,0.7913,0.8172,0.9176,0.8951,0.8804,0.8804,0.9465,0.9458,0.8857,1.021,1.0813,1.0872,1.2255,1.2881,1.2881,1.2881,1.2881,1.293,1.334,1.3516,1.3623,1.4473,1.4785,1.4956,0.0,0.0,0.0,0.0,0.0,0.0,0.0,0.0,0.0,0.0,0.0,0.0,0.0,0.0,0.0,0.0,0.0,0.0,-0.3067,-0.3263,-0.3268,-0.3067,-0.2757,-0.2703,-0.2954,-0.3138,-0.2742,-0.1898,-0.212,-0.2201,-0.2195,-0.2276,-0.2274,-0.2196,-0.2276,-0.2246,-0.2178,-0.2174,-0.2195,-0.2195,-0.2195,-0.2195,-0.219,0.0,0.0,0.0,0.0,0.0,0.0,0.0,0.0,0.0,-0.2785,-0.3176,-0.3456,-0.4015,-0.379,-0.34,-0.34,-0.2454,0.0,-0.1174,0.0,0.0,0.0,0.0,0.0,0.0,0.0941,0.1684,0.1326,0.3167,0.454,0.4134,0.4927,0.5576,0.5359,0.5294,0.5213,0.5067,0.4914,0.4806,0.4762,0.4619,0.4911,0.5764,0.6101,0.6648,0.7467,0.7925,0.83,0.8603,0.8526,0.8625,0.8931,0.8851,0.9061,0.9517,0.9718,0.971,0.951,1.0415,1.0813,1.0813,1.1225,1.1683,1.2187,1.2666,1.3057,1.334,1.3457,1.3877,1.4434,1.4687,1.542,1.6332,0.0,0.0,0.0,0.0,0.0,0.0,0.0,0.0,0.0,0.0,-0.5873,0.0,0.0,0.0,0.0,0.0,0.0,0.0,0.0,-0.4608,-0.4608,-0.4663,-0.4216,-0.4161,-0.4608,-0.4991,-0.4793,-0.4129,-0.3519,-0.3218,-0.3222,-0.3222,-0.314,-0.3104,-0.3145,-0.3163,-0.3125,-0.3133,-0.3101,-0.3101,-0.3101,-0.3101,-0.3099,0.0,0.0,0.0,0.0,0.0,0.0,0.0,0.0,0.0,-0.3622,-0.3825,-0.3916,-0.403,-0.3602,-0.2949,-0.2575,-0.1619,0.0,-0.0671,-0.0336,0.0,0.0,0.0,0.0,0.0,0.1045,0.1885,0.1797,0.3367,0.4598,0.4403,0.4931,0.5257,0.5074,0.5047,0.4992,0.4847,0.4748,0.4779,0.4997,0.4953,0.5376,0.649,0.6877,0.7404,0.8215,0.8624,0.8804,0.8804,0.8804,0.8804,0.8804,0.8804,0.9159,0.9814,1.0064,1.0364,1.0618,1.1015,1.1216,1.1216,1.1534,1.1841,1.2286,1.2987,1.3389,1.364,1.4061,1.4677,1.539,1.5522,1.6223,1.7207,0.0,0.0,-0.5597,-0.5597,0.0,0.0,0.0,0.0,0.0,0.0,-0.576,-0.5542,0.0,0.0,0.0,0.0,0.0,0.0,-0.6588,-0.6588,-0.6588,-0.6588,-0.6608,-0.6638,-0.6673,-0.7238,-0.741,-0.7151,-0.5566,-0.4807,-0.4807,-0.4735,-0.4652,-0.4577,-0.4663,-0.4706,-0.468,-0.4625,-0.4625,-0.468,-0.468,-0.4625,-0.4588,-0.473,0.0,0.0,0.0,0.0,0.0,0.0,0.0,0.0,-0.456,-0.4599,-0.4568,-0.3691,-0.2985,-0.2272,-0.1358,-0.0561,0.0,0.0,0.0,0.0,0.0,0.0059,0.0119,0.0123,0.0676,0.1472,0.2458,0.3186,0.3981,0.4793,0.4918,0.4914,0.4901,0.4897,0.4843,0.4687,0.4728,0.4951,0.5449,0.5542,0.6195,0.761,0.7723,0.8049,0.8752,0.8804,0.8804,0.8804,0.8804,0.8804,0.891,0.891,0.9263,0.9969,1.0618,1.1266,1.1913,1.1913,1.1913,1.1922,1.2618,1.2881,1.2929,1.3505,1.3732,1.3821,1.4799,1.5515,1.6065,1.6499,1.6997,1.7537,0.0,0.0,-0.6367,-0.6367,0.0,0.0,0.0,0.0,0.0,0.0,0.0,0.0,0.0,0.0,0.0,0.0,0.0,0.0,-0.6588,-0.6588,-0.6588,-0.6588,-0.6865,-0.7119,-0.7461,-0.7619,-0.7588,-0.7426,-0.6271,-0.5723,-0.5719,-0.4904,-0.4823,-0.5273,-0.4772,-0.5152,-0.6095,-0.5546,-0.5601,-0.6154,-0.6154,-0.5823,-0.5273,-0.5313,-0.5001,0.0,0.0,0.0,0.0,0.0,0.0,0.0,-0.4819,-0.4843,-0.468,-0.38,-0.3032,-0.2284,-0.1338,-0.0571,0.0,0.0,0.0,0.0,0.0,0.055,0.0977,0.0861,0.1447,0.2268,0.3179,0.3974,0.4539,0.4837,0.4918,0.4877,0.4758,0.4741,0.4684,0.4584,0.5005,0.5368,0.5487,0.6036,0.6745,0.7616,0.7723,0.8049,0.8752,0.8804,0.8804,0.8804,0.8804,0.9061,0.9562,0.9562,1.0167,1.1366,1.1516,1.1981,1.2666,1.2666,1.2666,1.2666,1.2832,1.2881,1.2929,1.3065,1.3104,1.3162,1.3836,1.4382,1.4857,1.54,1.6015,1.6664,0.0,0.0,0.0,0.0,0.0,0.0,0.0,0.0,0.0,0.0,0.0,0.0,0.0,0.0,0.0,0.0,-0.767,-0.767,-0.767,-0.767,-0.767,-0.767,-0.8087,-0.8357,-0.8434,-0.8863,-0.8933,-0.8566,-0.7656,-0.6962,-0.6397,-0.5806,-0.5714,-0.6036,-0.566,-0.5932,-0.6588,-0.6199,-0.6253,-0.6588,-0.6588,-0.6367,-0.5991,-0.5754,-0.5402,-0.5084,-0.4775,0.0,0.0,0.0,0.0,0.0,0.0,0.0,-0.4804,-0.3876,-0.3122,-0.2393,-0.1474,0.0,0.0,0.0,0.0,0.0121,0.0501,0.0945,0.151,0.2259,0.2662,0.2988,0.3404,0.411,0.4609,0.4687,0.4701,0.4674,0.4592,0.4858,0.505,0.5014,0.5601,0.6145,0.6519,0.6907,0.745,0.8156,0.8209,0.8374,0.8758,0.8804,0.8962,0.9263,0.9263,0.9614,1.0261,1.0261,1.0813,1.1814,1.1814,1.2187,1.2881,1.2881,1.2881,1.2881,1.2881,1.2881,1.2929,1.319,1.3515,1.3836,1.4411,1.5129,1.5856,1.6197,1.6715,1.7192,0.0,0.0,0.0,0.0,0.0,0.0,0.0,0.0,0.0,0.0,0.0,0.0,0.0,0.0,-0.8243,0.0,0.0,0.0,-0.9159,-0.9159,-0.9134,-0.9083,-0.9561,-0.9701,-0.9336,-1.016,-1.0274,-0.9686,-0.9084,-0.8276,-0.7242,-0.6778,-0.6642,-0.6804,-0.6642,-0.675,-0.6966,-0.6858,-0.6858,-0.6966,-0.6966,-0.6912,-0.6717,-0.6281,-0.5949,-0.5673,-0.5078,-0.4803,-0.4674,-0.4575,0.0,0.0,0.0,0.0,-0.4892,-0.3751,-0.3084,-0.245,-0.1381,0.0,0.0057,0.0177,0.0243,0.0,0.1352,0.1685,0.2134,0.3528,0.3686,0.3569,0.3564,0.4086,0.4519,0.4519,0.4519,0.4519,0.468,0.5164,0.5542,0.5651,0.6367,0.702,0.7616,0.783,0.8156,0.8752,0.8804,0.8857,0.8962,0.8956,0.9263,0.9961,0.9961,1.0312,1.0965,1.0965,1.1316,1.1972,1.1972,1.2295,1.2881,1.2881,1.2881,1.2881,1.2881,1.2881,1.2929,1.342,1.4014,1.4606,1.5231,1.611,1.709,1.7225,1.7526,1.7852,0.0,0.0,0.0,0.0,0.0,0.0,0.0,0.0,0.0,0.0,-1.0056,-1.0151,0.0,-0.9997,-1.0399,-1.0399,-1.0458,-1.0517,-1.0517,0.0,0.0,-1.0124,-1.0382,-1.04,-0.9993,-1.0367,-1.0274,-0.9686,-0.9621,0.0,0.0,0.0,0.0,-0.7509,-0.6912,-0.7289,-0.848,-0.783,-0.7937,-0.848,-0.848,-0.8103,-0.7563,-0.749,-0.6678,-0.5546,-0.56,-0.5262,-0.4707,-0.4819,-0.487,0.0,0.0,0.0,-0.4801,-0.3118,-0.2689,-0.2348,-0.0634,0.0,0.0183,0.0,0.1128,0.1354,0.0,0.0,0.3701,0.3801,0.3685,0.3808,0.4394,0.4495,0.4519,0.4519,0.4519,0.468,0.5269,0.5433,0.576,0.6367,0.7128,0.7616,0.767,0.8262,0.8699,0.8804,0.8804,0.9061,0.9614,0.9666,0.9961,1.0669,1.0669,1.0965,1.1665,1.1665,1.203,1.2764,1.2764,1.2822,1.2881,1.2881,1.2881,1.2881,1.2881,1.2881,1.2929,1.2968,1.3382,1.3956,1.456,1.5232,1.5885,1.6449,1.6685,1.6735,0.0,0.0,0.0,0.0,0.0,0.0,0.0,0.0,0.0,0.0,0.0,-1.0669,-1.0415,-1.0618,-1.0813,-1.0813,-1.0813,-1.0813,-1.0813,-1.0813,-1.0824,-1.0977,-1.1217,-1.13,-1.111,-1.1032,-1.0656,-1.0037,0.0,0.0,0.0,-0.8156,-0.7996,0.0,0.0,-0.8209,-0.8758,-0.848,-0.848,-0.8804,-0.8804,-0.8374,-0.767,-0.7235,-0.6416,-0.5441,-0.5198,-0.484,-0.4572,-0.464,-0.4775,-0.4891,-0.4718,0.0,0.0,0.0,-0.2547,-0.1536,0.0184,0.0614,0.0862,0.0,0.1951,0.2203,0.3193,0.3747,0.4135,0.4611,0.4502,0.4384,0.4659,0.4565,0.4519,0.4519,0.4519,0.4732,0.5433,0.5873,0.6362,0.7128,0.7883,0.8315,0.8315,0.8593,0.8804,0.8804,0.9159,0.9465,0.9762,1.0167,1.0669,1.1366,1.1366,1.1674,1.2403,1.2403,1.2559,1.2881,1.2881,1.2881,1.2881,1.2881,1.2881,1.2881,1.2881,1.2881,1.2929,1.3238,1.3552,1.3909,1.4824,1.5365,1.5676,1.6281,1.6522,1.6522,0.0,0.0,0.0,0.0,0.0,0.0,0.0,0.0,0.0,0.0,0.0,-1.1275,-1.1065,0.0,0.0,0.0,-1.1325,-1.1325,-1.1325,-1.1325,-1.1404,-1.1575,-1.1927,-1.1964,-1.1486,-1.1345,-1.09,-1.0042,0.0,0.0,-0.8804,-0.8804,-0.8804,0.0,-0.8804,-0.8804,0.0,0.0,0.0,-0.8804,-0.8593,-0.8209,-0.7616,-0.6858,-0.6145,-0.5437,-0.4997,-0.4685,0.0,0.0,-0.4704,-0.4763,-0.4418,-0.4095,0.0,0.0,0.0,0.0,0.0,0.0,0.1382,0.2304,0.2733,0.3134,0.0,0.435,0.4553,0.5226,0.5155,0.4985,0.5008,0.4759,0.457,0.4732,0.4732,0.5058,0.5923,0.6529,0.7128,0.7883,0.848,0.8804,0.8804,0.8804,0.8857,0.9061,0.951,0.9969,1.0312,1.0762,1.1366,1.208,1.208,1.2344,1.2881,1.2881,1.2881,1.2881,1.2881,1.2881,1.2929,1.3065,1.3152,1.3152,1.3152,1.3152,1.32,1.3779,1.4143,1.4365,1.5264,1.5676,1.5864,1.6324,1.6522,1.6522,0.0,0.0,0.0,0.0,0.0,0.0,0.0,0.0,0.0,0.0,0.0,-1.251,-1.1814,-1.2353,-1.2774,-1.2774,-1.2774,-1.2774,-1.2774,-1.2774,-1.2471,-1.1792,-1.2449,0.0,-1.0391,-1.1007,-1.0617,0.0,0.0,0.0,-0.8804,-0.8804,-0.8804,-0.8804,-0.8804,-0.8804,-0.8804,0.0,0.0,0.0,0.0,0.0,0.0,0.0,-0.6145,-0.5508,-0.5693,0.0,0.0,0.0,0.0,-0.4581,-0.3862,-0.3637,-0.3316,0.0,0.0,0.0,0.0,0.0641,0.0,0.2449,0.3335,0.4143,0.509,0.5296,0.5359,0.5362,0.5233,0.5258,0.5832,0.5174,0.4736,0.5324,0.5433,0.5923,0.7396,0.7616,0.7937,0.8646,0.8752,0.8804,0.8804,0.8804,0.9061,0.9718,0.9762,1.0364,1.1616,1.1715,1.208,1.2822,1.2822,1.2871,1.2881,1.2881,1.2881,1.2881,1.2881,1.2881,1.2929,1.3505,1.3732,1.3732,1.3732,1.3732,1.3815,1.4376,1.5005,1.5487,1.5588,1.5964,1.6479,1.6479,1.6522,1.6522,0.0,0.0,0.0,0.0,0.0,0.0,0.0,0.0,0.0,0.0,0.0,0.0,0.0,-1.2725,-1.2881,-1.2881,-1.2881,-1.2881,-1.2881,-1.2881,-1.289,-1.2881,-1.3389,-1.3401,-1.2753,-1.2534,0.0,0.0,0.0,-0.9978,-0.9465,-0.9465,-0.9211,-0.8804,-0.8804,-0.8804,-0.8804,-0.8804,0.0,0.0,0.0,0.0,0.0,0.0,0.0,0.0,0.0,0.0,0.0,0.0,0.0,0.0,0.0,0.0,0.0,0.0,0.0,0.0,0.0,0.0,0.0,0.3857,0.4399,0.4741,0.5252,0.5284,0.524,0.5342,0.5541,0.5766,0.5944,0.5615,0.5522,0.6114,0.6199,0.6578,0.7563,0.7723,0.7996,0.8699,0.8804,0.8804,0.8804,0.9211,0.9562,0.9762,1.0618,1.1316,1.1765,1.2236,1.2618,1.2881,1.2881,1.2881,1.2881,1.2881,1.2881,1.2881,1.2881,1.2881,1.2929,1.3104,1.3238,1.3286,1.4061,1.4376,1.4422,1.505,1.5186,1.5096,1.5876,1.6051,1.5952,1.638,1.6522,1.6522,0.0,0.0,0.0,0.0,0.0,0.0,0.0,0.0,0.0,0.0,0.0,0.0,0.0,0.0,-1.2881,-1.2881,-1.2881,-1.2881,-1.2881,-1.2881,-1.3008,-1.3281,-1.3828,-1.3796,-1.3155,-1.3122,0.0,0.0,0.0,0.0,0.0,-0.9562,-0.9211,-0.8804,-0.8804,-0.8804,0.0,0.0,0.0,-0.8699,0.0,0.0,-0.648,0.0,0.0,0.0,0.0,0.0,0.0,0.0,0.0,0.0,0.0,0.0,0.0,0.0,0.0,0.0,0.1827,0.0,0.0,0.0,0.4842,0.5094,0.5192,0.5209,0.5288,0.5661,0.5939,0.6241,0.6713,0.6648,0.6609,0.6895,0.6966,0.7235,0.7943,0.8049,0.8315,0.9054,0.9159,0.9211,0.9465,0.9865,1.0218,1.0466,1.1316,1.1922,1.2187,1.2618,1.2881,1.2881,1.2881,1.2881,1.2881,1.2881,1.2881,1.2881,1.2881,1.2881,1.2929,1.3344,1.3515,1.3573,1.4789,1.5062,1.4744,1.5555,1.5688,1.5389,1.6207,1.6238,1.5964,1.6337,1.6522,1.6522,0.0,0.0,0.0,0.0,0.0,0.0,0.0,0.0,0.0,-1.2881,0.0,0.0,0.0,0.0,0.0,-1.2881,-1.2881,-1.2881,-1.2881,-1.2881,-1.2881,-1.2881,-1.363,-1.3227,-1.1391,0.0,0.0,0.0,0.0,0.0,0.0,0.0,-0.8804,-0.8804,-0.8804,-0.8804,-0.8804,0.0,-0.8804,-0.8646,0.0,-0.6598,-0.6436,0.0,0.0,0.0,-0.4867,-0.4445,0.0,-0.3972,0.0,0.0,0.0,0.0,0.0,0.0,0.0,0.0,0.0,0.0,0.0,0.3875,0.4652,0.5281,0.4996,0.5152,0.5639,0.6236,0.6312,0.6679,0.8097,0.8137,0.7888,0.7764,0.7723,0.799,0.8699,0.8804,0.9061,0.971,0.9814,1.0064,1.0762,1.0813,1.1116,1.1765,1.1814,1.2129,1.2871,1.2881,1.2881,1.2881,1.2881,1.2881,1.2881,1.2881,1.2881,1.2881,1.2881,1.2929,1.2978,1.4154,1.4698,1.4744,1.5976,1.5788,1.4835,1.602,1.6522,1.6522,1.6522,1.6522,1.6522,1.6522,1.6522,1.6522,0.0,0.0,0.0,0.0,0.0,0.0,-1.2881,-1.2881,-1.2881,0.0,0.0,0.0,-1.2881,-1.2881,-1.2881,-1.2881,-1.2881,-1.2881,-1.2881,-1.2881,-1.2881,-1.2881,-1.31,-1.2978,-1.2482,0.0,0.0,-1.1832,-1.1207,-1.0645,-1.0172,-0.9724,-0.9263,-0.8804,-0.8804,-0.8804,-0.8804,-0.8804,0.0,-0.8665,-0.7362,-0.6819,-0.6665,-0.5327,-0.4819,-0.486,-0.4904,-0.4445,-0.3786,-0.3816,-0.2864,-0.1498,0.0,0.0,0.0,0.0,0.0,0.0,0.2896,0.0,0.0,0.0,0.0,0.0,0.5233,0.5728,0.6133,0.6266,0.7064,0.7844,0.8012,0.8331,0.8511,0.8493,0.848,0.8586,0.8752,0.9211,0.9614,0.9762,1.0218,1.0618,1.0762,1.1266,1.1616,1.1765,1.2295,1.2666,1.2881,1.2881,1.2881,1.2881,1.2881,1.2881,1.2881,1.2881,1.2881,1.2881,1.2881,1.3152,1.3552,1.392,1.4283,1.4744,1.5511,1.5676,1.541,1.6194,1.6522,1.6522,1.6522,1.6522,1.6522,1.6522,1.6522,1.6522,0.0,0.0,-1.2881,-1.2881,0.0,-1.2881,-1.2881,-1.2881,-1.2881,0.0,0.0,0.0,-1.2881,-1.2881,-1.2881,-1.2881,-1.2881,-1.2774,-1.2452,-1.2452,-1.2304,-1.2049,-1.2236,-1.2201,-1.1967,-1.2125,-1.2076,-1.1878,-1.1178,-1.0748,-1.0446,-0.9727,-0.9228,-0.8985,-0.8985,-0.8985,-0.8985,0.0,0.0,0.0,-0.7433,-0.6904,-0.6758,-0.5389,-0.4955,-0.5006,-0.5006,-0.427,-0.3327,-0.3327,-0.218,0.0,0.0,0.0,0.0,0.0,0.0,0.0,0.0,0.0,0.0,0.0,0.0,0.0,0.5538,0.5978,0.6461,0.6908,0.7656,0.8269,0.8409,0.8667,0.8804,0.8804,0.9061,0.9106,0.8857,0.9361,0.9917,1.0167,1.0813,1.1325,1.1642,1.2039,1.2236,1.2236,1.2666,1.2881,1.2881,1.2881,1.2881,1.2881,1.2881,1.2881,1.2881,1.2881,1.2881,1.2881,1.2881,1.3055,1.342,1.3684,1.4003,1.4376,1.5231,1.5588,1.5632,1.6238,1.6522,1.6522,1.6522,1.6522,1.6522,1.6522,1.6522,1.6522,0.0,0.0,-1.2881,-1.2881,-1.2881,-1.2881,-1.2881,-1.2881,-1.2881,0.0,-1.2881,-1.2881,-1.2881,-1.2881,-1.2881,-1.2881,-1.2881,-1.2608,-1.1864,-1.1814,-1.1516,-1.0813,-1.1168,-1.1136,-1.0676,-1.1359,-1.149,-1.0988,-1.0534,-1.0387,-1.0558,-0.9377,-0.8978,-0.9137,-0.917,-0.9163,-0.9137,-0.917,0.0,-0.8605,-0.7415,-0.6959,-0.6832,-0.5446,-0.5047,-0.5155,-0.5155,-0.4061,-0.2678,-0.2477,-0.1343,0.0,0.0,0.0,0.0,0.0,0.2437,0.0,0.0,0.0,0.0,0.0,0.5191,0.0,0.5875,0.625,0.6869,0.8097,0.8228,0.8432,0.9125,0.9078,0.8965,0.9105,0.9506,0.9658,0.9015,0.9562,1.0269,1.0864,1.1516,1.2187,1.2822,1.2881,1.2881,1.2881,1.2881,1.2881,1.2881,1.2881,1.2881,1.2881,1.2881,1.2881,1.2881,1.2881,1.2881,1.2881,1.2881,1.2929,1.3017,1.3552,1.3862,1.4039,1.5129,1.5632,1.5732,1.6281,1.6522,1.6522,1.6522,1.6522,1.6522,1.6522,1.6522,1.6522,-1.2881,-1.2881,-1.2881,-1.2881,-1.2881,-1.2881,-1.2881,-1.2881,-1.2881,-1.2881,-1.2881,-1.2881,-1.2881,-1.2881,-1.2881,-1.2881,-1.2881,-1.2608,-1.1864,-1.1814,-1.1516,-1.0813,-1.0651,-1.05,-1.0404,-1.0407,-1.0407,-1.0288,-1.0173,-1.0082,-0.9897,-0.9375,0.0,0.0,-0.9084,-0.9057,-0.8911,-0.909,-0.875,-0.804,-0.7317,-0.722,-0.7215,-0.5853,-0.5291,-0.5318,-0.5318,-0.4196,-0.2477,-0.1008,-0.0269,0.0134,0.0846,0.1077,0.0,0.2851,0.0,0.0,0.0,0.0,0.0,0.0,0.5476,0.0,0.6715,0.7772,0.8781,0.9,0.9606,0.9964,0.9679,0.9552,0.9866,1.0834,1.0554,1.0067,0.965,1.0669,1.1466,1.1566,1.2246,1.2725,1.2881,1.2881,1.2881,1.2881,1.2881,1.2881,1.2881,1.2881,1.2881,1.2881,1.2881,1.2881,1.2881,1.2881,1.2881,1.2881,1.2881,1.3152,1.3637,1.3732,1.4318,1.5264,1.5499,1.5864,1.6324,1.6466,1.6522,1.6522,1.6522,1.6522,1.6522,1.6522,1.6522,1.6522,-1.2881,-1.2881,-1.2881,-1.2881,-1.2881,-1.2881,-1.2881,-1.2881,-1.2881,-1.2881,-1.2881,-1.2881,-1.2881,-1.2881,-1.2881,-1.2881,-1.2559,-1.2039,-1.1366,-1.114,-1.0701,-0.9821,-0.9767,-0.9854,-1.0009,-0.9921,-1.004,-1.0341,-1.0187,-1.012,-1.0114,0.0,0.0,0.0,-0.8821,-0.8727,-0.8543,-0.8764,-0.8716,-0.8293,-0.7413,-0.7007,-0.6773,-0.5756,-0.5428,-0.5359,-0.4888,-0.3547,-0.181,-0.0471,0.0269,0.0737,0.1189,0.1802,0.2636,0.3513,0.3906,0.4089,0.0,0.0,0.4841,0.5348,0.5815,0.0,0.0,0.8531,0.9325,0.95,1.0099,1.049,0.998,1.0241,1.0689,1.13,1.14,1.1436,1.1419,1.1835,1.213,1.213,1.2953,1.3418,1.3213,1.3193,1.3105,1.29,1.2881,1.2881,1.2881,1.2881,1.2881,1.2881,1.2881,1.2881,1.2881,1.2881,1.2881,1.2881,1.2881,1.3065,1.3372,1.3637,1.4133,1.4721,1.5365,1.5776,1.6051,1.638,1.6522,1.6522,1.6522,1.6522,1.6522,1.6522,1.6522,1.6522,-1.2881,-1.2881,-1.2881,-1.2881,-1.2881,-1.2881,-1.2881,-1.2881,-1.2881,-1.2881,-1.2774,-1.2666,-1.2666,0.0,0.0,0.0,-1.1931,-1.1342,-1.0716,-1.0478,-0.9879,-0.8898,-0.9172,-0.9385,-0.9512,-0.9679,-0.9973,-1.0456,-1.0267,-1.0294,-1.0461,0.0,0.0,0.0,0.0,0.0,0.0,0.0,0.0,-0.822,-0.731,-0.6696,-0.6256,-0.5636,-0.5292,-0.4957,-0.3882,-0.2544,-0.114,-0.0269,0.0471,0.114,0.1474,0.2494,0.3589,0.3972,0.4366,0.4691,0.4691,0.4782,0.4998,0.569,0.6318,0.7073,0.0,0.0,0.0,0.99,1.0314,1.0611,1.0431,1.1013,1.1646,1.1939,1.2448,1.3014,1.3488,1.3194,1.2917,1.2834,1.3466,1.3789,1.3525,1.3584,1.3418,1.292,1.3027,1.3047,1.2891,1.2881,1.2881,1.2881,1.2881,1.2881,1.2881,1.2881,1.2881,1.2881,1.3017,1.3065,1.3104,1.3695,1.405,1.4179,1.5186,1.5676,1.582,1.6281,1.6522,1.6522,1.6522,1.6522,1.6522,1.6522,1.6522,1.6522,-1.2881,-1.2881,-1.2881,-1.2881,-1.2881,-1.2881,-1.2881,-1.2881,-1.2881,-1.2881,-1.2344,-1.1913,0.0,0.0,0.0,0.0,0.0,-1.0756,-1.0394,-1.0346,-0.9973,-0.9192,-0.9472,-0.9406,-0.8918,-0.9666,-0.9973,-0.978,-1.0274,-1.0394,-1.0167,0.0,0.0,0.0,-0.8655,0.0,0.0,0.0,-0.7164,-0.6496,-0.6354,-0.6455,-0.6559,-0.5745,-0.4888,-0.3949,-0.2209,-0.1474,-0.114,-0.0269,0.0067,0.0404,0.2011,0.2563,0.2955,0.4489,0.486,0.4691,0.4691,0.5039,0.5541,0.6045,0.709,0.8253,0.9315,0.0,1.0551,1.0808,0.0,1.1108,1.1531,0.0,0.0,1.4232,1.4234,1.4258,1.5023,1.479,1.4382,1.3941,1.3396,1.3154,1.3477,1.3848,1.374,1.2939,1.3574,1.3662,1.292,1.2881,1.2881,1.2881,1.2881,1.2881,1.2881,1.2881,1.2881,1.2929,1.342,1.3684,1.3732,1.4329,1.4869,1.5398,1.5543,1.5908,1.6423,1.6466,1.6522,1.6522,1.6522,1.6522,1.6522,1.6522,1.6522,1.6522,-1.2881,-1.2881,-1.2881,-1.2881,-1.2881,-1.2881,-1.2881,-1.2881,-1.2881,-1.2881,-1.2236,-1.1855,0.0,0.0,0.0,0.0,0.0,-1.0654,-1.0528,-1.0329,0.0,-0.9506,-0.978,-0.982,-0.9573,-0.9927,-1.014,-1.0194,-0.9989,-0.9793,-0.9612,0.0,0.0,0.0,-0.7335,0.0,-0.6482,0.0,-0.663,-0.6199,-0.5845,-0.547,-0.5071,-0.4749,-0.368,-0.2342,-0.1541,-0.1006,-0.0403,0.047,0.1141,0.1811,0.3078,0.3784,0.4344,0.5068,0.5114,0.4928,0.4847,0.5227,0.5858,0.6543,0.7602,0.8721,0.97,1.0392,1.0795,1.0755,0.0,0.0,0.0,0.0,0.0,0.0,1.4643,1.4773,1.5313,1.4834,1.4434,1.4502,1.4639,1.46,1.4277,1.3955,1.3525,1.293,1.3437,1.3506,1.291,1.2881,1.2881,1.2881,1.2881,1.2881,1.2881,1.2881,1.3055,1.342,1.3684,1.3956,1.4329,1.496,1.5365,1.5632,1.5952,1.6281,1.6522,1.6522,1.6522,1.6522,1.6522,1.6522,1.6522,1.6522,1.6522,1.6522,-1.2881,0.0,0.0,0.0,0.0,-1.2881,-1.2881,-1.2978,-1.2959,-1.2637,-1.2131,0.0,-1.1737,-1.1196,0.0,0.0,-1.0679,-1.0444,-1.0523,-1.0285,-1.002,-0.9813,-1.008,0.0,-1.0,-1.0154,-1.0307,-1.0441,-0.9685,-0.9274,0.0,0.0,0.0,0.0,0.0,-0.6069,-0.5461,0.0,-0.5559,-0.5176,-0.4757,-0.4071,-0.3278,-0.3278,-0.2477,-0.1273,-0.1006,-0.0538,0.0135,0.1006,0.1742,0.2544,0.3613,0.4486,0.509,0.5296,0.5445,0.5409,0.5261,0.5801,0.6639,0.7333,0.8236,0.912,1.0025,1.0501,1.0779,1.0891,1.166,0.0,0.0,0.0,1.4772,1.4848,0.0,1.5195,1.5381,1.498,1.4775,1.5098,1.5684,1.5771,1.5029,1.4619,1.4072,1.3281,1.3721,1.3691,1.292,1.2881,1.2881,1.2881,1.2881,1.2881,1.2881,1.2881,1.319,1.3815,1.3956,1.4376,1.4971,1.5555,1.5864,1.5864,1.6293,1.6522,1.6522,1.6522,1.6522,1.6522,1.6522,1.6522,1.6522,1.6522,1.6522,1.6522,-1.2881,-1.2881,0.0,0.0,0.0,0.0,-1.2881,-1.3232,-1.3077,-1.2004,-1.1867,-1.1517,0.0,0.0,0.0,0.0,0.0,-0.9858,-1.008,-1.0114,-1.0114,-1.01,0.0,-1.0342,0.0,-1.0315,-1.0408,-1.0134,-0.9592,0.0,0.0,0.0,0.0,0.0,-0.6711,-0.572,-0.4071,-0.4074,-0.3606,-0.2806,-0.2809,-0.2209,-0.1407,-0.1407,-0.134,-0.1207,-0.0337,0.0,0.0135,0.1006,0.134,0.1675,0.3413,0.4015,0.4215,0.516,0.583,0.6283,0.6042,0.7026,0.817,0.8474,0.9136,0.9833,1.0414,1.0341,1.0458,1.1527,1.1533,1.1952,1.3793,1.4547,0.0,0.0,0.0,0.0,0.0,1.5752,1.6066,1.6086,1.6105,1.5889,1.5439,1.6143,1.5867,1.4165,1.4873,1.4629,1.2969,1.2881,1.2881,1.2881,1.2881,1.2881,1.2881,1.2881,1.319,1.3826,1.4376,1.5005,1.5588,1.6194,1.6466,1.6466,1.6479,1.6522,1.6522,1.6522,1.6522,1.6522,1.6522,1.6522,1.6522,1.6522,1.6522,1.6522,0.0,0.0,0.0,0.0,0.0,0.0,-1.3711,-1.3346,-1.2949,-1.26,-1.1699,-1.1058,-1.0827,-1.0307,-1.0047,-1.0309,-1.0329,-1.0301,-1.0408,-1.0408,-1.0408,-1.0408,-1.0571,-1.021,0.0,0.0,-0.9418,-0.8678,0.0,0.0,0.0,0.0,0.0,0.0,0.0,-0.5094,0.0,0.0,0.0,-0.2678,-0.2009,-0.1208,-0.0471,-0.1073,-0.094,-0.0404,-0.0135,0.0404,0.1006,0.1942,0.2609,0.3278,0.4553,0.4954,0.4957,0.5296,0.5826,0.6216,0.6042,0.6958,0.8061,0.8273,0.901,0.9786,1.0174,1.0539,1.0962,1.1643,1.2346,1.3089,1.4013,1.4749,0.0,0.0,0.0,0.0,0.0,1.5781,1.6125,1.6125,1.5811,1.5693,1.583,1.5605,1.5078,1.4145,1.415,1.3779,1.293,1.2881,1.2881,1.2881,1.2881,1.2881,1.2881,1.2881,1.319,1.3826,1.4422,1.5017,1.5632,1.6238,1.6522,1.6522,1.6522,1.6522,1.6522,1.6522,1.6522,1.6522,1.6522,1.6522,1.6522,1.6522,1.6522,1.6522,-1.1851,0.0,0.0,0.0,0.0,-1.3241,-1.3241,-1.2919,-1.2573,-1.2159,-1.1514,-1.1005,-1.0742,-1.0445,-1.0354,-1.0604,-1.0624,-1.0624,-1.0624,-1.0624,-1.0428,-1.0174,-1.011,-0.9722,0.0,0.0,0.0,0.0,0.0,-0.6719,0.0,0.0,0.0,0.0,0.0,-0.4638,-0.3387,-0.352,-0.2811,-0.1677,-0.1074,-0.0471,-0.0067,-0.0605,-0.0471,0.0,0.0,0.0538,0.1405,0.2317,0.3253,0.414,0.5029,0.5318,0.5418,0.5294,0.5969,0.663,0.6373,0.7302,0.8379,0.8503,0.926,1.0022,1.0425,1.0953,1.16,1.231,1.3091,1.3777,1.4116,1.4849,0.0,0.0,0.0,0.0,0.0,1.5752,1.5889,1.6105,1.6094,1.6103,1.6125,1.5986,1.543,1.4175,1.417,1.3799,1.293,1.2881,1.2881,1.2881,1.2881,1.2881,1.2881,1.2881,1.319,1.3815,1.419,1.4698,1.5276,1.5688,1.5976,1.6194,1.6194,1.6281,1.6522,1.6522,1.6522,1.6522,1.6522,1.6522,1.6522,1.6522,1.6522,1.6522,-1.1598,-1.1995,-1.2118,-1.1434,-1.1573,-1.1784,-1.1784,-1.2093,-1.1966,-1.0883,-1.1323,-1.1352,-1.0228,-1.0388,-1.0624,-1.0624,-1.0624,-1.0624,-1.0624,-1.0561,-1.0174,-0.9338,-0.9274,-0.8812,-0.7962,0.0,0.0,0.0,0.0,0.0,0.0,0.0,0.0,0.0,-0.5355,0.0,-0.2673,-0.2676,-0.161,0.0,0.0,0.0,0.0,0.0,0.0,0.0,0.0,0.0605,0.1468,0.2271,0.3205,0.4188,0.4842,0.522,0.5377,0.5162,0.6237,0.7379,0.7019,0.8031,0.9163,0.9163,0.9707,1.0416,1.1084,1.1547,1.2201,1.334,1.3696,1.3867,1.4067,1.4834,1.5254,0.0,0.0,0.0,1.5977,1.5654,1.5537,1.6037,1.6758,1.6943,1.6204,1.7148,1.6826,1.4301,1.4902,1.4629,1.2969,1.292,1.293,1.2881,1.2881,1.2881,1.2881,1.2881,1.32,1.3779,1.3779,1.4097,1.4663,1.4709,1.5005,1.5588,1.5588,1.5952,1.6522,1.6522,1.6522,1.6522,1.6522,1.6522,1.6522,1.6522,1.6522,1.6522,-1.1,-1.1026,-1.1078,-1.108,-1.1936,-1.266,-1.266,-1.2261,-1.1859,-1.1533,-1.1188,-1.0773,-1.0517,-1.0577,-1.0624,-1.0624,-1.0624,-1.0624,-1.0624,-0.9983,-0.953,-0.9338,-0.8678,-0.7897,-0.7046,-0.7046,-0.6724,-0.6079,0.0,0.0,-0.5752,0.0,0.0,0.0,0.0,-0.3706,-0.2538,-0.1926,-0.1007,0.0,0.0,0.0,0.0,0.0,0.0,0.0,0.0,0.1008,0.2333,0.2466,0.3549,0.4839,0.4892,0.4999,0.5147,0.5651,0.6378,0.7165,0.7559,0.8239,0.8918,0.8918,0.9187,0.9653,1.0413,1.1028,1.1768,1.282,1.3338,1.3772,1.4467,1.4795,1.501,0.0,0.0,0.0,1.5566,1.5215,1.5107,1.5527,1.5508,1.5615,1.6086,1.5791,1.5332,1.4668,1.4521,1.4004,1.2939,1.3477,1.3525,1.29,1.2881,1.2881,1.2881,1.2881,1.2968,1.3152,1.36,1.3862,1.405,1.4525,1.5005,1.5588,1.5588,1.5952,1.6522,1.6522,1.6522,1.6522,1.6522,1.6522,1.6522,1.6522,1.6522,1.6522,-1.1012,-1.0848,-1.0802,-1.0962,-1.1503,-1.2018,-1.21,-1.1626,-1.1288,-1.1288,-1.0863,-1.0624,-1.0624,-1.0624,-1.0624,-1.0624,-1.0624,-1.0428,-1.0047,-0.9594,-0.8947,-0.8221,-0.7697,-0.7051,-0.6137,-0.6137,0.0,-0.5428,0.0,0.0,-0.5428,0.0,0.0,0.0,0.0,-0.3251,-0.19,-0.1067,-0.0471,0.0,0.0,0.0,0.0,0.0,0.0,0.0067,0.0404,0.1476,0.2727,0.2939,0.3938,0.5094,0.4887,0.4863,0.5026,0.5719,0.6374,0.7054,0.7627,0.8321,0.8804,0.8804,0.9131,0.9707,1.0647,1.1321,1.207,1.3,1.3494,1.3818,1.3926,1.4248,1.4639,1.5068,1.5293,1.5352,1.5156,1.4932,1.4805,1.4853,1.4814,1.4971,1.5459,1.5234,1.498,1.4795,1.4727,1.4326,1.3477,1.3824,1.375,1.291,1.2881,1.2881,1.2881,1.2881,1.2881,1.2881,1.3238,1.342,1.342,1.3742,1.4236,1.4812,1.5096,1.5555,1.6151,1.638,1.6522,1.6522,1.6522,1.6522,1.6522,1.6522,1.6522,1.6522,-1.1369,-1.1283,-1.1122,-1.1156,-1.0823,-1.0626,-1.1015,-1.0768,-1.0624,-1.0624,-1.0591,-1.0501,-1.0501,-1.053,-1.0524,-1.0557,-1.0501,-1.0199,-0.9338,-0.9204,-0.842,-0.6785,-0.6588,-0.6203,-0.5425,-0.5428,-0.5439,-0.5459,0.0,0.0,0.0,0.0,0.0,0.0,0.0,0.0,0.0,-0.0337,0.0,0.0,0.0,0.0,0.0,0.0,0.0067,0.0269,0.1136,0.1998,0.2774,0.3379,0.4235,0.5026,0.4748,0.481,0.5124,0.5727,0.6412,0.7104,0.7674,0.8315,0.8804,0.8804,0.9263,0.9993,1.1112,1.1887,1.2477,1.3266,1.3721,1.3769,1.3086,1.3603,1.4277,1.4717,1.5088,1.5186,1.4756,1.4697,1.458,1.4204,1.4404,0.0,1.4844,1.5146,1.5205,1.4893,1.5264,1.5098,1.4126,1.4297,1.3926,1.291,1.293,1.2939,1.2881,1.2881,1.2881,1.2881,1.2881,1.2881,1.2881,1.2968,1.3334,1.3956,1.456,1.5152,1.5764,1.6281,1.6522,1.6522,1.6522,1.6522,1.6522,1.6522,1.6522,1.6522,-1.1677,-1.175,-1.179,-1.2031,-1.1064,-1.0467,-1.12,-1.0902,-1.0624,-1.0624,-1.0347,-1.0194,-1.0194,-0.998,-0.9933,-1.0174,-1.0194,-0.9923,-0.932,-0.8619,-0.7762,-0.6719,-0.6009,-0.5557,-0.5428,-0.5428,-0.5423,-0.5549,-0.5549,0.0,0.0,0.0,0.0,0.0,0.0,0.0,-0.0202,-0.0067,0.0,0.0,0.0,0.0,0.0,0.0,0.0471,0.1204,0.2025,0.2395,0.2641,0.3356,0.412,0.4738,0.4558,0.4905,0.5528,0.627,0.697,0.7722,0.844,0.8699,0.8804,0.8804,0.891,0.933,1.064,1.1014,1.1479,1.2733,1.3047,1.3164,1.3359,1.3799,1.4277,1.4717,1.4844,1.4746,1.4307,1.4248,1.4355,1.4639,1.3809,1.376,1.5166,1.5049,1.501,1.5283,1.5703,1.542,1.4145,1.5146,1.4853,1.2939,1.3213,1.3232,1.2881,1.2881,1.2881,1.2881,1.2881,1.2881,1.2929,1.342,1.3967,1.456,1.5186,1.5776,1.6337,1.6479,1.6522,1.6522,1.6522,1.6522,1.6522,1.6522,1.6522,1.6522,-1.1844,-1.1501,0.0,-1.1125,-1.0014,-0.928,-0.9752,-0.9503,-0.939,-0.9849,-0.9409,-0.8953,-0.888,-0.8757,-0.8681,-0.8735,-0.8792,-0.8545,-0.7853,-0.751,-0.692,-0.6075,-0.562,-0.5428,-0.5428,-0.5428,-0.5437,-0.5589,-0.5589,-0.538,0.0,-0.5006,0.0,-0.2635,0.0,-0.0904,0.0,0.0,0.0,0.0,0.0,0.0269,0.0672,0.0672,0.1208,0.2135,0.2918,0.3115,0.3188,0.3939,0.4392,0.4721,0.4945,0.5218,0.5706,0.6853,0.7402,0.7883,0.8586,0.8804,0.8804,0.8804,0.8804,0.9061,1.0064,1.0559,1.1074,1.2138,1.2618,1.2939,1.3145,1.3701,1.4131,1.4121,1.4492,1.4561,1.3896,1.3809,1.3809,1.3799,1.3447,1.3613,1.4648,1.4766,1.4961,1.5381,1.5811,1.5498,1.4145,1.5146,1.4853,1.2939,1.3076,1.3086,1.2881,1.2881,1.2881,1.2881,1.2881,1.2881,1.2929,1.32,1.3647,1.4283,1.4869,1.5466,1.6051,1.638,1.6522,1.6522,1.6522,1.6522,1.6522,1.6522,1.6522,1.6522,-1.1416,-1.0701,-1.0039,-0.9863,-0.879,-0.8097,-0.8358,-0.7839,-0.7837,-0.8877,-0.8372,-0.782,-0.77,-0.7593,-0.7486,-0.7488,-0.7572,-0.7259,-0.6446,-0.6617,-0.6334,-0.5428,-0.5428,-0.5428,-0.5428,-0.5428,-0.5366,-0.5309,-0.5269,-0.4853,-0.3953,-0.3974,-0.3008,-0.1307,-0.0426,0.0,0.0,0.0,0.0,0.0,0.0202,0.0672,0.134,0.1541,0.2143,0.3064,0.3537,0.382,0.3969,0.4468,0.4643,0.4734,0.5317,0.5597,0.5977,0.7289,0.783,0.8049,0.8646,0.8804,0.8804,0.8804,0.8804,0.8956,0.9666,1.0218,1.0762,1.1466,1.2138,1.2695,1.2791,1.3375,1.3789,1.3545,1.3966,1.4022,1.3263,1.3234,1.3176,1.2849,1.32,1.3672,1.4038,1.4531,1.4865,1.4955,1.5555,1.5478,1.4408,1.5137,1.4805,1.3203,1.3232,1.3242,1.3154,1.2969,1.2881,1.2881,1.2881,1.2881,1.2881,1.3017,1.342,1.4003,1.4652,1.5231,1.582,1.6281,1.6522,1.6522,1.6522,1.6522,1.6522,1.6522,1.6522,1.6522,-0.9588,-0.9249,-0.9176,-0.8936,-0.796,-0.7487,-0.829,-0.6847,-0.6207,-0.7897,-0.7785,-0.7524,-0.7504,-0.7205,-0.7097,-0.7274,-0.731,-0.7048,-0.6433,-0.6617,-0.6334,-0.5428,-0.5428,-0.5428,-0.5428,-0.5428,-0.5026,-0.4327,-0.4362,-0.396,-0.3235,-0.3228,-0.2654,-0.1525,-0.0497,0.0,0.0,0.0,0.0,0.0067,0.0873,0.1207,0.1407,0.2275,0.3145,0.3855,0.365,0.4125,0.475,0.4582,0.4539,0.4643,0.5277,0.5982,0.6642,0.745,0.8156,0.8699,0.8758,0.8804,0.8804,0.8804,0.8804,0.8956,0.9666,0.9865,1.0064,1.0762,1.1416,1.204,1.2432,1.2793,1.3105,1.3447,1.3049,1.2565,1.204,1.2313,1.2602,1.2565,1.3119,1.3672,1.4038,1.4531,1.4458,1.3624,1.4762,1.542,1.5303,1.5742,1.5391,1.4009,1.4394,1.4414,1.397,1.3262,1.2881,1.2881,1.2881,1.2881,1.2929,1.3467,1.405,1.4652,1.5231,1.5864,1.6423,1.6479,1.6522,1.6522,1.6522,1.6522,1.6522,1.6522,1.6522,1.6522,-0.8985,-0.847,-0.7975,-0.7776,-0.6927,-0.6302,-0.6526,-0.5926,-0.5624,-0.6338,-0.6343,-0.6189,-0.6081,-0.594,-0.58,-0.5718,-0.5807,-0.5735,-0.5404,-0.5583,-0.5603,-0.5223,-0.5311,-0.5428,-0.5428,-0.4821,-0.4411,-0.4186,-0.3654,-0.3017,-0.2191,-0.221,-0.1654,-0.0655,-0.0213,0.0279,0.0757,0.0812,0.1074,0.1677,0.2009,0.2477,0.2945,0.3345,0.4015,0.4797,0.4607,0.4728,0.4999,0.4701,0.4811,0.5218,0.5928,0.6691,0.7396,0.8156,0.8586,0.8804,0.8804,0.8804,0.8804,0.8804,0.8804,0.8857,0.9159,0.951,0.9865,1.0167,1.0712,1.1267,1.143,1.1781,1.2013,1.1882,1.1904,1.1766,1.1267,1.1353,1.1456,1.1456,1.2067,1.2647,1.3128,1.4157,1.4714,1.461,1.5561,1.5725,1.4597,1.5271,1.543,1.4922,1.4082,1.3799,1.4077,1.3301,1.2881,1.2881,1.2881,1.2881,1.2929,1.3152,1.3789,1.4744,1.5744,1.6281,1.6522,1.6522,1.6522,1.6522,1.6522,1.6522,1.6522,1.6522,1.6522,1.6522,-0.7906,-0.7272,-0.6732,-0.6627,-0.5992,-0.5488,-0.5446,-0.5428,-0.5428,-0.5428,-0.5428,-0.5321,-0.5209,-0.5159,-0.5047,-0.484,-0.488,-0.4874,-0.4765,-0.4992,-0.5131,-0.5131,-0.5277,-0.5292,-0.5024,-0.435,-0.3785,-0.3378,-0.2764,-0.1958,-0.111,-0.1118,-0.0738,0.0,0.0283,0.0697,0.131,0.1621,0.2075,0.2744,0.3011,0.348,0.4015,0.4284,0.4821,0.5342,0.5186,0.5131,0.5091,0.4843,0.5277,0.6,0.644,0.6966,0.7563,0.8533,0.8804,0.8804,0.8804,0.8804,0.8804,0.8804,0.8804,0.8804,0.8804,0.9159,0.9517,0.9517,1.0064,1.0517,1.0517,1.0924,1.117,1.0854,1.0933,1.0902,1.0549,1.0517,1.0517,1.0517,1.1209,1.1804,1.199,1.3204,1.4026,1.4008,1.5289,1.5567,1.4478,1.505,1.5352,1.5234,1.3945,1.3535,1.4077,1.3301,1.2881,1.2881,1.2881,1.2881,1.2929,1.3055,1.3742,1.4755,1.5788,1.6337,1.6522,1.6522,1.6522,1.6522,1.6522,1.6522,1.6522,1.6522,1.6522,1.6522,-0.5894,-0.5662,-0.5545,-0.5456,-0.5428,-0.5428,-0.5428,-0.5428,-0.5428,-0.5428,-0.5428,-0.5428,-0.5425,-0.5223,-0.5128,-0.5125,-0.4999,-0.4918,-0.4914,-0.505,-0.5131,-0.5131,-0.5277,-0.4957,-0.4015,-0.4015,-0.3145,-0.1341,-0.131,-0.0841,0.0,0.0,0.0,0.007,0.091,0.1307,0.1341,0.2277,0.2678,0.2744,0.3613,0.4015,0.4082,0.5024,0.5362,0.5342,0.5186,0.5131,0.5108,0.4965,0.5809,0.6864,0.6653,0.6588,0.6912,0.8374,0.8804,0.8804,0.8804,0.8804,0.8804,0.8804,0.8804,0.8804,0.8804,0.8811,0.8804,0.8804,0.9361,0.9814,0.9814,1.0372,1.0821,1.0813,1.0269,0.9814,0.9814,0.9814,0.9814,0.9814,1.0829,1.1322,1.0854,1.1606,1.176,1.0808,1.3065,1.4697,1.5352,1.541,1.5225,1.4805,1.4355,1.4068,1.4077,1.3301,1.2881,1.2881,1.2881,1.2881,1.2929,1.3505,1.4097,1.4744,1.5365,1.5964,1.6522,1.6522,1.6522,1.6522,1.6522,1.6522,1.6522,1.6522,1.6522,1.6522,-0.5511,-0.5433,-0.542,-0.5435,-0.5428,-0.5428,-0.5428,-0.5428,-0.5428,-0.5428,-0.5428,-0.5428,-0.5428,-0.5318,-0.5206,-0.5003,-0.4945,-0.483,-0.4623,-0.4847,-0.4986,-0.4986,-0.4637,-0.4284,-0.4015,-0.2811,-0.1876,-0.1273,-0.0691,-0.0281,0.0,0.0,0.035,0.0885,0.1155,0.1959,0.3145,0.348,0.3949,0.4553,0.4821,0.4957,0.4957,0.5292,0.5428,0.5422,0.5308,0.522,0.5171,0.551,0.5868,0.6308,0.7095,0.767,0.8209,0.8646,0.8804,0.8804,0.8804,0.8804,0.8804,0.8804,0.8804,0.8804,0.8804,0.8804,0.8804,0.8804,0.8962,0.9106,0.9106,0.9309,0.9465,0.9465,0.9263,0.9106,0.9106,0.9106,0.9106,0.9106,0.9859,1.0283,1.0123,1.1337,1.2035,1.1879,1.3375,1.4262,1.4188,1.4956,1.5488,1.5713,1.4385,1.3848,1.4077,1.3301,1.2881,1.2881,1.2881,1.2881,1.2929,1.3505,1.4143,1.4744,1.532,1.5952,1.6522,1.6522,1.6522,1.6522,1.6522,1.6522,1.6522,1.6522,1.6522,1.6572,-0.4888,-0.4619,-0.442,-0.442,-0.4686,-0.4888,-0.4888,-0.516,-0.5428,-0.5428,-0.5428,-0.5292,-0.4888,-0.4888,-0.4954,-0.5101,-0.5033,-0.4918,-0.4724,-0.4585,-0.4497,-0.4497,-0.3853,-0.3347,-0.3011,-0.1876,-0.114,-0.0806,-0.0274,0.0,0.0,0.0345,0.0751,0.134,0.2009,0.2945,0.4015,0.435,0.4888,0.5428,0.5428,0.5428,0.5428,0.5428,0.5624,0.5873,0.5745,0.5849,0.6041,0.6293,0.651,0.6709,0.7521,0.8236,0.8804,0.8804,0.8804,0.8804,0.8804,0.8804,0.8804,0.8804,0.8804,0.8804,0.8804,0.8804,0.8804,0.8804,0.8804,0.8804,0.8804,0.8804,0.8804,0.8804,0.8804,0.8804,0.8804,0.8804,0.8804,0.8804,0.9159,0.9413,0.9413,1.0302,1.0911,1.1015,1.2258,1.3042,1.3064,1.4381,1.5193,1.5342,1.415,1.3555,1.3662,1.3145,1.2881,1.2881,1.2881,1.2881,1.2929,1.3286,1.3779,1.4376,1.4778,1.541,1.6151,1.6151,1.6293,1.6522,1.6522,1.6522,1.6522,1.6522,1.666,1.6898,-0.3882,-0.328,-0.2678,-0.2678,-0.3347,-0.3882,-0.3882,-0.4619,-0.5226,-0.5226,-0.5226,-0.4888,-0.4015,-0.3882,-0.4284,-0.516,-0.5022,-0.4934,-0.4921,-0.4163,-0.3717,-0.3717,-0.3031,-0.221,-0.134,-0.1274,-0.0806,0.0,0.0,0.0,0.0135,0.094,0.134,0.1541,0.3278,0.4015,0.4151,0.5024,0.5428,0.5428,0.5428,0.5428,0.5491,0.5491,0.6009,0.6759,0.6455,0.6818,0.7449,0.725,0.7486,0.7891,0.7946,0.8348,0.8804,0.8804,0.8804,0.8804,0.8804,0.8804,0.8804,0.8804,0.8804,0.8804,0.8804,0.8804,0.8804,0.8804,0.8804,0.8804,0.8804,0.8804,0.8804,0.8804,0.8804,0.8804,0.8804,0.8804,0.8804,0.8804,0.8804,0.8804,0.8804,0.8804,0.8824,0.8864,1.0091,1.1236,1.2114,1.3708,1.4455,1.4165,1.3769,1.335,1.293,1.29,1.2881,1.2881,1.2881,1.2881,1.2881,1.2881,1.3238,1.3815,1.3815,1.4503,1.5588,1.5588,1.5952,1.6522,1.6522,1.6522,1.6522,1.6559,1.6886,1.7338,-0.3011,-0.2811,-0.2678,-0.2678,-0.2878,-0.3011,-0.3011,-0.3211,-0.3345,-0.3345,-0.3345,-0.328,-0.3011,-0.3011,-0.3078,-0.3345,-0.3199,-0.3054,-0.2921,-0.2852,-0.2827,-0.2827,-0.2046,-0.1541,-0.1273,-0.0672,-0.0202,0.0,0.0,0.0337,0.1006,0.1207,0.2009,0.3413,0.3813,0.4417,0.509,0.5296,0.5428,0.5428,0.5428,0.5818,0.6396,0.6396,0.6915,0.7692,0.7579,0.7471,0.742,0.7903,0.7949,0.7865,0.841,0.8698,0.8804,0.8804,0.8804,0.8804,0.8804,0.8804,0.8804,0.8804,0.8804,0.8804,0.8804,0.8804,0.8804,0.8804,0.8804,0.8804,0.8804,0.8804,0.8804,0.8804,0.8804,0.8804,0.8804,0.8804,0.8804,0.8804,0.8804,0.8804,0.8804,0.8804,0.8991,0.9446,0.9982,1.1048,1.2677,1.338,1.397,1.4603,1.4209,1.3789,1.3359,1.3037,1.2881,1.2881,1.2881,1.2881,1.2881,1.2881,1.3238,1.3815,1.3815,1.4503,1.5588,1.5588,1.5952,1.6522,1.6522,1.6522,1.6572,1.7011,1.6986,1.6911,-0.2082,-0.174,-0.1462,-0.1462,-0.179,-0.2057,-0.2082,-0.2408,-0.2674,-0.2707,-0.2712,-0.2561,-0.2118,-0.2048,-0.1902,-0.1478,-0.2182,-0.2538,-0.2432,-0.2143,-0.1966,-0.1966,-0.1132,-0.0739,-0.0739,-0.0269,0.0202,0.0605,0.0605,0.1074,0.1941,0.2342,0.3078,0.4015,0.442,0.4954,0.5428,0.5428,0.5428,0.5428,0.5428,0.5686,0.6137,0.6527,0.7242,0.8011,0.8286,0.8455,0.8622,0.8734,0.872,0.8675,0.8882,0.9098,0.9212,0.9212,0.9018,0.8804,0.8804,0.8804,0.8804,0.8804,0.8804,0.8804,0.8804,0.8804,0.8804,0.8804,0.8804,0.8804,0.8804,0.8804,0.8804,0.8804,0.8804,0.8804,0.8804,0.8804,0.8804,0.8804,0.8804,0.8804,0.8804,0.8925,0.9138,0.9459,0.9873,1.0721,1.2145,1.2538,1.3329,1.4749,1.4551,1.4228,1.3799,1.3574,1.3457,1.3457,1.3457,1.3457,1.3457,1.3457,1.3531,1.3667,1.3667,1.4111,1.4767,1.4767,1.532,1.6095,1.6095,1.6442,1.6948,1.7262,1.7501,1.7743,-0.1081,-0.0508,0.0,0.0,-0.0643,-0.1134,-0.1087,-0.1782,-0.2262,-0.2305,-0.2311,-0.2006,-0.1191,-0.1119,-0.0833,-0.0068,-0.1421,-0.2291,-0.2291,-0.1552,-0.1082,-0.1086,-0.0407,0.0,0.0,0.0136,0.0612,0.1281,0.1483,0.2017,0.2945,0.368,0.4082,0.4217,0.5024,0.5428,0.5428,0.5428,0.5495,0.5624,0.5624,0.5752,0.6079,0.6789,0.7632,0.8452,0.8935,0.9524,1.004,0.9482,0.9512,0.9639,0.9385,0.9479,0.9686,0.9686,0.9332,0.8931,0.8884,0.8838,0.8804,0.8804,0.8804,0.8804,0.8804,0.8804,0.8804,0.8804,0.8804,0.8804,0.8804,0.8804,0.8824,0.8864,0.8838,0.8824,0.8864,0.8838,0.8804,0.8804,0.8844,0.8871,0.8871,0.9138,0.925,0.925,0.9813,1.0463,1.1271,1.1707,1.2852,1.4657,1.4646,1.446,1.4087,1.4077,1.4077,1.4077,1.4077,1.4077,1.4077,1.4077,1.3906,1.3506,1.3506,1.3591,1.3815,1.3815,1.4457,1.5466,1.5671,1.6365,1.7297,1.7518,1.8179,1.8883,-0.0213,-0.0072,0.0,0.0,-0.0145,-0.0217,-0.0218,-0.029,-0.0432,-0.0425,-0.0424,-0.0352,-0.0211,-0.0211,-0.0141,0.0,-0.0282,-0.0418,-0.0418,-0.0279,-0.0211,-0.0216,-0.0071,0.0,0.0,0.0863,0.135,0.1319,0.2219,0.3014,0.3816,0.3949,0.4417,0.516,0.5359,0.5428,0.5428,0.5428,0.5815,0.6527,0.6527,0.7377,0.8683,0.8812,0.946,1.0225,1.0312,1.0203,1.01,1.0013,0.9846,0.9679,0.9626,0.9646,0.9686,0.9686,0.9619,0.9492,0.9239,0.8991,0.8804,0.8804,0.8804,0.8804,0.8804,0.8804,0.8804,0.8804,0.8804,0.8804,0.8804,0.8804,0.8884,0.9077,0.8965,0.8891,0.9084,0.8965,0.8804,0.8804,0.9025,0.9117,0.9117,0.9439,0.9613,0.9613,0.9927,1.0463,1.1271,1.2253,1.3278,1.4241,1.3972,1.3895,1.4087,1.4077,1.4077,1.4077,1.4077,1.4077,1.4077,1.4077,1.3906,1.3506,1.3506,1.3591,1.3815,1.3815,1.419,1.4926,1.5892,1.6394,1.6725,1.8213,1.8581,1.8455,0.0,0.0,0.0,0.0,0.0,0.0,0.0,0.0,0.0,0.0,0.0,0.0,0.0,0.0,0.0,0.0,0.0,0.0,0.0,0.0,0.0,0.0,0.0,0.0288,0.0873,0.122,0.1909,0.286,0.3348,0.3991,0.4755,0.483,0.507,0.5481,0.5466,0.567,0.6206,0.6113,0.6593,0.7372,0.7372,0.7897,0.8678,0.9139,0.953,0.9983,1.0428,1.0474,1.0327,1.0174,1.0134,1.0127,0.9967,1.0027,1.0154,1.0154,0.982,0.9412,0.9223,0.9025,0.8804,0.8804,0.8804,0.8804,0.8804,0.8804,0.8804,0.8804,0.8804,0.8804,0.8804,0.8804,0.8851,0.8985,0.8891,0.8851,0.8985,0.8891,0.8804,0.8804,0.8925,0.9005,0.9005,0.9419,0.9686,0.9686,1.01,1.0712,1.154,1.205,1.2931,1.4154,1.4452,1.462,1.4824,1.4824,1.4824,1.4824,1.4824,1.4824,1.4824,1.4824,1.459,1.418,1.3945,1.3748,1.3629,1.3629,1.4,1.4612,1.5394,1.6333,1.7325,1.8139,1.8672,1.9133,0.0,0.0,0.0,0.0,0.0,0.0,0.0,0.0,0.0,0.0,0.0,0.0,0.0,0.0,0.0,0.0,0.0,0.0,0.0,0.022,0.0289,0.0,0.0222,0.0739,0.1615,0.1868,0.2762,0.4227,0.4437,0.4864,0.5416,0.5569,0.564,0.5633,0.5748,0.6229,0.6988,0.7017,0.7531,0.8364,0.8312,0.8415,0.8672,0.9332,0.9594,0.9658,1.0364,1.0624,1.0591,1.0294,1.0374,1.0584,1.0294,1.0374,1.0624,1.0624,1.0033,0.9376,0.9303,0.9132,0.8891,0.8824,0.8804,0.8804,0.8804,0.8804,0.8804,0.8804,0.8804,0.8752,0.8586,0.8699,0.8778,0.8678,0.8745,0.8831,0.8898,0.8851,0.8804,0.8804,0.8925,0.9011,0.9011,0.9539,0.9886,0.9886,1.0369,1.0926,1.1772,1.1958,1.281,1.4451,1.505,1.541,1.541,1.541,1.541,1.541,1.541,1.541,1.541,1.541,1.5186,1.4756,1.4326,1.3896,1.3496,1.3398,1.3641,1.4109,1.4841,1.5989,1.7357,1.7871,1.8694,1.9579,0.0,0.0,0.0,0.0,0.0,0.0,0.0,0.0,0.0,0.0,0.0,0.0,0.0,0.0,0.0,0.0,0.0,0.0,0.0,0.0916,0.1065,0.0078,0.0936,0.1543,0.1582,0.3373,0.422,0.4198,0.5206,0.5641,0.5576,0.5718,0.5786,0.5779,0.6521,0.6948,0.7306,0.774,0.8543,0.9536,0.9297,0.9722,1.0428,1.0498,1.0498,1.0498,1.0561,1.0624,1.0618,1.0598,1.0604,1.0618,1.0598,1.0604,1.0624,1.0624,1.0321,0.9993,0.9719,0.9432,0.909,0.8878,0.8804,0.8804,0.8804,0.8804,0.8804,0.8804,0.8804,0.8593,0.7883,0.8321,0.8678,0.8324,0.8546,0.8898,0.9117,0.8978,0.8804,0.8804,0.9292,0.9619,0.9619,1.0154,1.0557,1.0557,1.0598,1.0926,1.1772,1.2512,1.3666,1.5235,1.5352,1.541,1.541,1.541,1.541,1.541,1.541,1.541,1.541,1.541,1.5186,1.4756,1.4326,1.3896,1.3477,1.3086,1.2969,1.3145,1.4604,1.5257,1.5644,1.7815,1.8679,1.8874,0.0,0.0,0.0,0.0,0.0,0.0,0.0,0.0,0.0,0.0,0.0,0.0,0.0,0.0,0.0,0.0,0.0622,0.1009,0.1019,0.194,0.2324,0.1955,0.2345,0.288,0.3471,0.4173,0.4795,0.535,0.5721,0.5867,0.5725,0.5874,0.6232,0.6868,0.6863,0.7794,0.9219,0.9102,0.9622,1.0514,1.0411,1.0458,1.0624,1.0624,1.0624,1.0624,1.0624,1.0624,1.0624,1.0624,1.0624,1.0624,1.0624,1.0624,1.0624,1.0624,1.0481,1.0327,1.0033,0.974,0.9486,0.9379,0.9212,0.9072,0.9072,0.8938,0.8804,0.8804,0.8804,0.8699,0.8427,0.8593,0.8738,0.8575,0.8718,0.8844,0.8958,0.8878,0.8804,0.8804,0.9005,0.9212,0.9392,0.978,1.0094,1.0274,1.0454,1.117,1.2451,1.3786,1.4756,1.5352,1.541,1.541,1.541,1.541,1.541,1.541,1.541,1.541,1.541,1.541,1.5186,1.4756,1.4326,1.399,1.3887,1.3721,1.3818,1.4228,1.5502,1.6095,1.6378,1.8072,1.8787,1.8992,0.0,0.0,0.0,0.0,0.0,0.0,0.0,0.0,0.0,0.0,0.0,0.0,0.0,0.0316,0.0554,0.0471,0.1589,0.2148,0.2116,0.3047,0.3435,0.3124,0.3435,0.3982,0.4686,0.4882,0.5274,0.603,0.603,0.5976,0.5878,0.603,0.6622,0.7571,0.7535,0.8629,1.0489,1.0335,1.0638,1.1256,1.1069,1.0929,1.0822,1.0728,1.0759,1.0759,1.0759,1.0698,1.0624,1.0624,1.0624,1.0624,1.0624,1.0624,1.0624,1.0624,1.0624,1.0577,1.0314,1.0107,0.9913,0.9733,0.9532,0.9352,0.9203,0.9085,0.8918,0.8824,0.8804,0.8752,0.848,0.8646,0.8699,0.848,0.8646,0.8804,0.8804,0.8804,0.8804,0.8804,0.8971,0.9158,0.9359,0.9733,1.004,1.0241,1.0448,1.117,1.2573,1.4145,1.4991,1.4991,1.5294,1.541,1.541,1.541,1.541,1.541,1.541,1.541,1.541,1.541,1.5254,1.4951,1.4531,1.4336,1.4326,1.4136,1.4307,1.4674,1.5604,1.6185,1.6685,1.7875,1.8606,1.9006,0.0,0.0,0.0,0.0,0.0,0.0,0.0,0.0,0.0,0.0,0.0,0.0,0.0,0.112,0.1767,0.165,0.2859,0.3451,0.3134,0.4139,0.4219,0.3202,0.4139,0.4688,0.4688,0.5572,0.603,0.603,0.603,0.603,0.6034,0.619,0.6872,0.7851,0.8532,0.9579,1.0828,1.1243,1.1597,1.1817,1.1236,1.1169,1.1396,1.1102,1.0995,1.0995,1.0995,1.0808,1.0624,1.0624,1.0624,1.0624,1.0624,1.0624,1.0624,1.0624,1.0624,1.0624,1.0624,1.0624,1.0483,0.984,0.9686,0.9613,0.9256,0.919,0.9103,0.8871,0.8804,0.8586,0.783,0.8321,0.854,0.783,0.8321,0.8811,0.8804,0.8804,0.8804,0.8804,0.9325,0.9679,0.9679,1.0207,1.0618,1.0618,1.0624,1.0989,1.1772,1.3356,1.4213,1.4213,1.4991,1.541,1.541,1.541,1.541,1.541,1.541,1.541,1.541,1.541,1.541,1.5381,1.4971,1.4785,1.4746,1.4316,1.4087,1.4136,1.4619,1.5255,1.6051,1.7181,1.8058,1.8821,0.0,0.0,0.0,0.0,0.0,0.0,0.0,0.0,0.0334,0.1139,0.1234,0.1574,0.2468,0.2809,0.3062,0.3041,0.3987,0.4874,0.545,0.5762,0.5801,0.5395,0.5631,0.5786,0.5786,0.606,0.6193,0.6193,0.6193,0.6193,0.6193,0.7,0.7859,0.8908,0.9569,1.0621,1.1822,1.1754,1.179,1.1857,1.1677,1.1536,1.1416,1.1329,1.1296,1.1269,1.1062,1.0942,1.0835,1.0628,1.0624,1.0624,1.0624,1.0624,1.0624,1.0624,1.0624,1.0624,1.0624,1.0624,1.0577,1.0403,1.014,0.9967,0.9873,0.9475,0.9157,0.907,0.8945,0.8752,0.8533,0.881,0.8936,0.8513,0.881,0.9038,0.8838,0.8804,0.8804,0.8804,0.8958,0.9152,0.9352,0.9719,1.0027,1.0234,1.153,1.2634,1.3416,1.4442,1.505,1.505,1.5284,1.541,1.541,1.541,1.541,1.541,1.541,1.541,1.541,1.541,1.5254,1.4971,1.4844,1.4785,1.4775,1.4648,1.4766,1.5096,1.5735,1.6185,1.6685,1.7928,1.8606,1.8993,0.1337,0.1339,0.1428,0.1459,0.1455,0.1445,0.1437,0.1452,0.1618,0.2308,0.2429,0.2783,0.3397,0.3946,0.4311,0.4189,0.5103,0.5988,0.6566,0.6505,0.6434,0.6349,0.6342,0.6318,0.6264,0.6338,0.6338,0.6338,0.6338,0.6338,0.6338,0.7326,0.8313,0.9367,1.0183,1.1242,1.2291,1.2118,1.2037,1.2031,1.1917,1.183,1.1757,1.1643,1.1597,1.1577,1.1403,1.1189,1.0969,1.0788,1.0719,1.0624,1.0624,1.0624,1.0624,1.0624,1.0624,1.0624,1.0624,1.0624,1.0624,1.0624,1.0421,1.0261,1.014,0.984,0.9552,0.9439,0.9279,0.9118,0.8998,0.9064,0.909,0.8851,0.8958,0.9051,0.8985,0.8878,0.8851,0.8965,0.9085,0.9225,0.9399,0.9786,1.0275,1.0751,1.2157,1.3183,1.3726,1.451,1.4932,1.4932,1.5225,1.541,1.541,1.541,1.541,1.541,1.541,1.541,1.541,1.541,1.5273,1.5039,1.5039,1.5039,1.5039,1.5039,1.5186,1.5468,1.5864,1.6315,1.6798,1.789,1.8536,1.8953,0.3357,0.3496,0.3566,0.3556,0.3605,0.3582,0.3639,0.3566,0.3606,0.3463,0.3685,0.3763,0.3611,0.4741,0.5507,0.5309,0.6145,0.6732,0.6722,0.659,0.6508,0.6491,0.6491,0.6427,0.6359,0.6281,0.6352,0.6338,0.6338,0.6338,0.649,0.748,0.8466,0.9448,1.049,1.1465,1.2305,1.2305,1.2305,1.2278,1.2011,1.2064,1.2271,1.2011,1.1911,1.1904,1.1844,1.1503,1.1069,1.1042,1.0822,1.0624,1.0651,1.0645,1.0624,1.0624,1.0624,1.0624,1.0624,1.0624,1.0624,1.0624,1.0624,1.0488,1.0214,1.0134,1.004,0.978,0.9699,0.9599,0.9325,0.9243,0.917,0.8931,0.8905,0.9005,0.919,0.9051,0.8985,0.919,0.9519,0.9744,0.9795,1.037,1.1142,1.195,1.2696,1.313,1.3183,1.3914,1.4332,1.4332,1.4991,1.541,1.541,1.541,1.541,1.541,1.541,1.541,1.541,1.541,1.541,1.541,1.541,1.541,1.541,1.541,1.541,1.541,1.5468,1.5921,1.6708,1.7413,1.8178,1.8874,0.332,0.3405,0.3502,0.3548,0.3558,0.3622,0.3582,0.3624,0.3892,0.4827,0.499,0.5303,0.6213,0.6524,0.6724,0.6692,0.687,0.6997,0.6888,0.6848,0.6776,0.6658,0.6651,0.658,0.643,0.6427,0.6373,0.6338,0.6338,0.6718,0.748,0.8542,0.9518,1.049,1.1545,1.2077,1.2305,1.2305,1.2305,1.2291,1.2231,1.2245,1.2291,1.2231,1.2204,1.2144,1.1683,1.159,1.1643,1.141,1.0989,1.0665,1.0828,1.0742,1.0624,1.0624,1.0624,1.0624,1.0624,1.0624,1.0624,1.0624,1.0624,1.0604,1.0481,1.0281,1.01,1.004,0.984,0.9666,0.9599,0.9773,0.9833,0.9539,0.9686,0.9773,0.9613,0.9532,0.9512,0.9579,0.9646,0.9962,1.0572,1.1577,1.2584,1.358,1.3846,1.4204,1.4874,1.505,1.5108,1.5108,1.5294,1.541,1.541,1.541,1.541,1.541,1.541,1.541,1.541,1.541,1.541,1.541,1.541,1.541,1.541,1.541,1.541,1.5468,1.6036,1.6698,1.7468,1.8167,1.8927,1.9579,0.5072,0.5099,0.5216,0.5242,0.5262,0.5245,0.5277,0.5227,0.5489,0.6073,0.6168,0.6404,0.696,0.7099,0.7139,0.7139,0.7139,0.7082,0.6939,0.6929,0.6895,0.6814,0.681,0.6736,0.6583,0.658,0.6474,0.6338,0.6338,0.6567,0.7099,0.8618,0.9599,1.0115,1.1626,1.2305,1.2305,1.2305,1.2305,1.2305,1.2305,1.2305,1.2305,1.2305,1.2218,1.2071,1.1904,1.1764,1.1597,1.1162,1.0815,1.0651,1.0735,1.0681,1.0624,1.0624,1.0624,1.0624,1.0624,1.0624,1.0658,1.0735,1.0661,1.0624,1.0624,1.0441,1.0327,1.0327,1.0207,1.006,0.9913,1.0013,1.002,0.9733,0.9813,0.9907,0.9893,0.9773,0.9733,0.9873,0.9886,1.029,1.1241,1.2545,1.3576,1.4136,1.4754,1.5295,1.5723,1.5723,1.582,1.6035,1.583,1.583,1.6035,1.6045,1.5928,1.5723,1.5508,1.541,1.541,1.541,1.541,1.541,1.541,1.541,1.541,1.541,1.5584,1.5979,1.6379,1.6922,1.7688,1.8447,1.915,1.9798,0.6922,0.7024,0.7112,0.7136,0.7139,0.7139,0.7139,0.7139,0.7099,0.698,0.7068,0.7095,0.6976,0.7068,0.7139,0.7139,0.7139,0.7092,0.6973,0.6966,0.6966,0.6966,0.6966,0.6881,0.6705,0.6864,0.6796,0.6567,0.6567,0.6718,0.7096,0.8765,0.9674,0.9895,1.1552,1.2305,1.2305,1.2305,1.2305,1.2305,1.2305,1.2305,1.2305,1.2305,1.2124,1.1904,1.2144,1.1884,1.1356,1.0868,1.0708,1.0701,1.0648,1.0698,1.0692,1.0638,1.0624,1.0631,1.0685,1.0698,1.0701,1.0995,1.0848,1.0698,1.0698,1.0658,1.0624,1.0624,1.0624,1.0551,1.0241,1.0194,1.0114,0.9873,0.988,0.9973,1.0167,1.0027,0.998,1.0167,1.0431,1.0963,1.2011,1.3571,1.4519,1.4592,1.5603,1.6182,1.6182,1.6182,1.6348,1.6719,1.6367,1.6357,1.6728,1.6665,1.6543,1.6172,1.5811,1.5557,1.541,1.5488,1.5488,1.541,1.541,1.541,1.541,1.5526,1.5921,1.6549,1.6765,1.7246,1.7907,1.8608,1.9254,1.9798,0.6902,0.6946,0.6997,0.7119,0.7139,0.7139,0.7139,0.7139,0.7132,0.7112,0.7129,0.7132,0.7112,0.7129,0.7139,0.7139,0.7139,0.7132,0.7112,0.7112,0.7112,0.7112,0.7112,0.6983,0.6705,0.7514,0.7829,0.7629,0.7629,0.8456,1.0185,1.0484,1.1087,1.1929,1.215,1.2305,1.2305,1.2305,1.2305,1.2305,1.2305,1.2305,1.2305,1.2305,1.2124,1.187,1.1911,1.171,1.1416,1.1336,1.1309,1.1263,1.1015,1.0935,1.0882,1.0698,1.0624,1.0678,1.0868,1.0935,1.1002,1.1296,1.1149,1.0935,1.0935,1.0742,1.0624,1.0624,1.0624,1.0611,1.0571,1.0501,1.0551,1.051,1.0655,1.0742,1.0528,1.0681,1.0742,1.0591,1.1781,1.283,1.3304,1.4841,1.6011,1.6336,1.6539,1.6641,1.6641,1.6641,1.667,1.6665,1.667,1.667,1.6665,1.6665,1.6636,1.6641,1.6519,1.6152,1.542,1.5801,1.5762,1.541,1.541,1.541,1.5468,1.6093,1.6436,1.6652,1.7895,1.8436,1.8661,1.9371,1.9695,1.9798,0.7034,0.7048,0.7065,0.7129,0.7139,0.7139,0.7139,0.7139,0.7139,0.7139,0.7139,0.7139,0.7139,0.7139,0.7139,0.7139,0.7139,0.7139,0.7139,0.7139,0.7139,0.7139,0.7065,0.6922,0.6705,0.71,0.7728,0.8618,0.8618,0.9069,0.997,1.0565,1.1013,1.1465,1.2077,1.2305,1.2291,1.2131,1.2151,1.2285,1.2124,1.2158,1.2285,1.2124,1.1984,1.185,1.1683,1.1643,1.165,1.1483,1.1423,1.1376,1.1082,1.0995,1.0969,1.0835,1.0802,1.0828,1.0955,1.0995,1.1022,1.1149,1.0962,1.0795,1.0955,1.0768,1.0624,1.0624,1.0624,1.0672,1.0775,1.0668,1.0732,1.0989,1.0875,1.0762,1.0795,1.0775,1.0887,1.124,1.2672,1.3785,1.4301,1.5589,1.6523,1.6719,1.6953,1.709,1.709,1.709,1.7197,1.7441,1.7217,1.7207,1.7441,1.7451,1.7324,1.71,1.7334,1.6865,1.5791,1.624,1.6191,1.5771,1.5771,1.6009,1.6392,1.6483,1.7197,1.8249,1.8565,1.8939,1.9359,1.9695,1.9798,1.9798]},{"header":{"parameterUnit":"m.s-1","parameterCategory":1,"la1":30.6,"la2":28.766,"lo1":-90.7593,"lo2":-88.6598,"dy":0.0162,"dx":0.0183,"nx":116,"ny":114,"refTime":"2024-03-14T06:00:00:Z","depth":0,"parameterNumber":3,"parameterNumberName":"V-component_of_WINDS"},"data":[0.0,0.0,0.0,0.0,0.0,0.0,0.0,0.0,0.0,0.0,0.0,0.0,0.0,0.0,0.0,0.0,0.0,0.0,0.0,0.0,0.0,0.0,0.0,0.0,0.0,0.0,0.0,0.0,0.0,0.0,0.0,0.0,0.0,0.0,0.0,0.0,0.0,0.0,0.0,0.0,0.0,0.0,0.0,0.0,0.0,0.0,0.0,0.0,0.0,0.0,0.0,0.0,0.0,0.0,0.0,0.0,0.0,0.0,0.0,0.0,0.0,0.0,0.0,0.0,0.0,0.0,0.0,0.0,0.0,0.0,0.0,0.0,0.0,0.0,0.0,0.0,0.0,0.0,0.0,0.0,0.0,0.0,0.0,0.0,0.0,0.0,0.0,0.0,0.0,0.0,0.0,0.0,0.0,0.0,0.0,0.0,0.0,0.0,0.0,0.0,0.0,0.0,0.0,0.0,0.0,0.0,0.0,0.0,0.0,0.0,0.0,0.0,0.0,0.0,0.0,0.0,0.0,0.0,0.0,0.0,0.0,0.0,0.0,0.0,0.0,0.0,0.0,0.0,0.0,0.0,0.0,0.0,0.0,0.0,0.0,0.0,0.0,0.0,0.0,0.0,0.0,0.0,0.0,0.0,0.0,0.0,0.0,0.0,0.0,0.0,0.0,0.0,0.0,0.0,0.0,0.0,0.0,0.0,0.0,0.0,0.0,0.0,0.0,0.0,0.0,0.0,0.0,0.0,0.0,0.0,0.0,0.0,0.0,0.0,0.0,0.0,0.0,0.0,0.0,0.0,0.0,0.0,0.0,0.0,0.0,0.0,0.0,0.0,0.0,0.0,0.0,0.0,0.0,0.0,0.0,0.0,0.0,0.0,0.0,0.0,0.0,0.0,0.0,0.0,0.0,0.0,0.0,0.0,0.0,0.0,0.0,0.0,0.0,0.0,0.0,0.0,0.0,0.0,0.0,0.0,0.0,0.0,0.0,0.0,0.0,0.0,0.0,0.0,0.0,0.0,0.0,0.0,0.0,0.0,0.0,0.0,0.0,0.0,0.0,0.0,0.0,0.0,0.0,0.0,0.0,0.0,0.0,0.0,0.0,0.0,0.0,0.0,0.0,0.0,0.0,0.0,0.0,0.0,0.0,0.0,0.0,0.0,0.0,0.0,0.0,0.0,0.0,0.0,0.0,0.0,0.0,0.0,0.0,0.0,0.0,0.0,0.0,0.0,0.0,0.0,0.0,0.0,0.0,0.0,0.0,0.0,0.0,0.0,0.0,0.0,0.0,0.0,0.0,0.0,0.0,0.0,0.0,0.0,0.0,0.0,0.0,0.0,0.0,0.0,0.0,0.0,0.0,0.0,0.0,0.0,0.0,0.0,0.0,0.0,0.0,0.0,0.0,0.0,0.0,0.0,0.0,0.0,0.0,0.0,0.0,0.0,0.0,0.0,0.0,0.0,0.0,0.0,0.0,0.0,0.0,0.0,0.0,0.0,0.0,0.0,0.0,0.0,0.0,0.0,0.0,0.0,0.0,0.0,0.0,0.0,0.0,0.0,0.0,0.0,0.0,0.0,0.0,0.0,0.0,0.0,0.0,0.0,0.0,0.0,0.0,0.0,0.0,0.0,0.0,0.0,0.0,0.0,0.0,0.0,0.0,0.0,0.0,0.0,0.0,0.0,0.0,0.0,0.0,0.0,0.0,0.0,0.0,0.0,0.0,0.0,0.0,0.0,0.0,0.0,0.0,0.0,0.0,0.0,0.0,0.0,0.0,0.0,0.0,0.0,0.0,0.0,0.0,0.0,0.0,0.0,0.0,0.0,0.0,0.0,0.0,0.0,0.0,0.0,0.0,0.0,0.0,0.0,0.0,0.0,0.0,0.0,0.0,0.0,0.0,0.0,0.0,0.0,0.0,0.0,0.0,0.0,0.0,0.0,0.0,0.0,0.0,0.0,0.0,0.0,0.0,0.0,0.0,0.0,0.0,0.0,0.0,0.0,0.0,0.0,0.0,0.0,0.0,0.0,0.0,0.0,0.0,0.0,0.0,0.0,0.0,0.0,0.0,0.0,0.0,0.0,0.0,0.0,0.0,0.0,0.0,0.0,0.0,0.0,0.0,0.0,0.0,0.0,0.0,0.0,0.0,0.0,0.0,0.0,0.0,0.0,0.0,0.0,0.0,0.0,0.0,0.0,0.0,0.0,0.0,0.0,0.0,0.0,0.0,0.0,0.0,0.0,0.0,0.0,0.0,0.0,0.0,0.0,0.0,0.0,0.0,0.0,0.0,0.0,0.0,0.0,0.0,0.0,0.0,0.0,0.0,0.0,0.0,0.0,0.0,0.0,0.0,0.0,0.0,0.0,0.0,0.0,0.0,0.0,0.0,0.0,0.0,0.0,0.0,0.0,0.0,0.0,0.0,0.0,0.0,0.0,0.0,0.0,0.0,0.0,0.0,0.0,0.0,0.0,0.0,0.0,0.0,0.0,0.0,0.0,0.0,0.0,0.0,0.0,0.0,0.0,0.0,0.0,0.0,0.0,0.0,0.0,0.0,0.0,0.0,0.0,0.0,0.0,0.0,0.0,0.0,0.0,0.0,0.0,0.0,0.0,0.0,0.0,0.0,0.0,0.0,0.0,0.0,0.0,0.0,0.0,0.0,0.0,0.0,0.0,0.0,0.0,0.0,0.0,0.0,0.0,0.0,0.0,0.0,0.0,0.0,0.0,0.0,0.0,0.0,0.0,0.0,0.0,0.0,0.0,0.0,0.0,0.0,0.0,0.0,0.0,0.0,0.0,0.0,0.0,0.0,0.0,0.0,0.0,0.0,0.0,0.0,0.0,0.0,0.0,0.0,0.0,0.0,0.0,0.0,0.0,0.0,0.0,0.0,0.0,0.0,0.0,0.0,0.0,0.0,0.0,0.0,0.0,0.0,0.0,0.0,0.0,0.0,0.0,0.0,0.0,0.0,0.0,0.0,0.0,0.0,0.0,0.0,0.0,0.0,0.0,0.0,0.0,0.0,0.0,0.0,0.0,0.0,0.0,0.0,0.0,0.0,0.0,0.0,0.0,0.0,0.0,0.0,0.0,0.0,0.0,0.0,0.0,0.0,0.0,0.0,0.0,0.0,0.0,0.0,0.0,0.0,0.0,0.0,0.0,0.0,0.0,0.0,0.0,0.0,0.0,0.0,0.0,0.0,0.0,0.0,0.0,0.0,0.0,0.0,0.0,0.0,0.0,0.0,0.0,0.0,0.0,0.0,0.0,0.0,0.0,0.0,0.0,0.0,0.0,0.0,0.0,0.0,0.0,0.0,0.0,0.0,0.0,0.0,0.0,0.0,0.0,0.0,0.0,0.0,0.0,0.0,0.0,0.0,0.0,0.0,0.0,0.0,0.0,0.0,0.0,0.0,0.0,0.0,0.0,0.0,0.0,0.0,0.0,0.0,0.0,0.0,0.0,0.0,0.0,0.0,0.0,0.0,0.0,0.0,0.0,0.0,0.0,0.0,0.0,0.0,0.0,0.0,0.0,0.0,0.0,0.0,0.0,0.0,0.0,0.0,0.0,0.0,0.0,0.0,0.0,0.0,0.0,0.0,0.0,0.0,0.0,0.0,0.0,0.0,0.0,0.0,0.0,0.0,0.0,0.0,0.0,0.0,0.0,0.0,0.0,0.0,0.0,0.0,0.0,0.0,0.0,0.0,0.0,0.0,0.0,0.0,0.0,0.0,0.0,0.0,0.0,0.0,0.0,0.0,0.0,0.0,0.0,0.0,0.0,0.0,0.0,0.0,0.0,0.0,0.0,0.0,0.0,0.0,0.0,0.0,0.0,0.0,0.0,0.0,0.0,0.0,0.0,0.0,0.0,0.0,0.0,0.0,0.0,0.0,0.0,0.0,0.0,0.0,0.0,0.0,0.0,0.0,0.0,0.0,0.0,0.0,0.0,0.0,0.0,0.0,0.0,0.0,0.0,0.0,0.0,0.0,0.0,0.0,0.0,0.0,0.0,0.0,0.0,0.0,0.0,0.0,0.0,0.0,0.0,0.0,0.0,0.0,0.0,0.0,0.0,0.0,0.0,0.0,0.0,0.0,0.0,0.0,0.0,0.0,0.0,0.0,0.0,0.0,0.0,0.0,0.0,0.0,0.0,0.0,0.0,0.0,0.0,0.0,0.0,0.0,0.0,0.0,0.0,0.0,0.0,0.0,0.0,0.0,0.0,0.0,0.0,0.0,0.0,0.0,0.0,0.0,0.0,0.0,0.0,0.0,0.0,0.0,0.0,0.0,0.0,0.0,0.0,0.0,0.0,0.0,0.0,0.0,0.0,0.0,0.0,0.0,0.0,0.0,0.0,0.0,0.0,0.0,0.0,0.0,0.0,0.0,0.0,0.0,0.0,0.0,0.0,0.0,0.0,0.0,0.0,0.0,0.0,0.0,0.0,0.0,0.0,0.0,0.0,0.0,0.0,0.0,0.0,0.0,0.0,0.0,0.0,0.0,0.0,0.0,0.0,0.0,0.0,0.0,0.0,0.0,0.0,0.0,0.0,0.0,0.0,0.0,0.0,0.0,0.0,0.0,0.0,0.0,0.0,0.0,0.0,0.0,0.0,0.0,0.0,0.0,0.0,0.0,0.0,0.0,0.0,0.0,0.0,0.0,0.0,0.0,0.0,0.0,0.0,0.0,0.0,0.0,0.0,0.0,0.0,0.0,0.0,0.0,0.0,0.0,0.0,0.0,0.0,0.0,0.0,0.0,0.0,0.0,0.0,0.0,0.0,0.0,0.0,0.0,0.0,0.0,0.0,0.0,0.0,0.0,0.0,0.0,0.0,0.0,0.0,0.0,0.0,0.0,0.0,0.0,0.0,0.0,0.0,0.0,0.0,0.0,0.0,0.0,0.0,0.0,0.0,0.0,0.0,0.0,0.0,0.0,0.0,0.0,0.0,0.0,0.0,0.0,0.0,0.0,0.0,0.0,0.0,0.0,0.0,0.0,0.0,0.0,0.0,0.0,0.0,0.0,0.0,0.0,0.0,0.0,0.0,0.0,0.0,0.0,0.0,0.0,0.0,0.0,0.0,0.0,0.0,0.0,0.0,0.0,0.0,0.0,0.0,0.0,0.0,0.0,0.0,0.0,0.0,0.0,0.0,0.0,0.0,0.0,0.0,0.0,0.0,0.0,0.0,0.0,0.0,0.0,0.0,0.0,0.0,0.0,0.0,0.0,0.0,0.0,0.0,0.0,0.0,0.0,0.0,0.0,0.0,0.0,0.0,0.0,0.0,0.0,0.0,0.0,0.0,0.0,0.0,0.0,0.0,0.0,0.0,0.0,0.0,0.0,0.0,0.0,0.0,0.0,0.0,0.0,0.0,0.0,0.0,0.0,0.0,0.0,0.0,0.0,0.0,0.0,0.0,0.0,0.0,0.0,0.0,0.0,0.0,0.0,0.0,0.0,0.0,0.0,0.0,0.0,0.0,0.0,0.0,0.0,0.0,0.0,0.0,0.0,0.0,0.0,0.0,0.0,0.0,0.0,0.0,0.0,0.0,0.0,0.0,0.0,0.0,0.0,0.0,0.0,0.0,0.0,0.0,0.0,0.0,0.0,0.0,0.0,0.0,0.0,0.0,0.0,0.0,0.0,0.0,0.0,0.0,0.0,0.0,0.0,0.0,0.0,0.0,0.0,0.0,0.0,0.0,0.0,0.0,0.0,0.0,0.0,0.0,0.0,0.0,0.0,0.0,0.0,0.0,0.0,0.0,0.0,0.0,0.0,0.0,0.0,0.0,0.0,0.0,0.0,0.0,0.0,0.0,0.0,0.0,0.0,0.0,0.0,0.0,0.0,0.0,0.0,0.0,0.0,0.0,0.0,0.0,0.0,0.0,0.0,0.0,0.0,0.0,0.0,0.0,0.0,0.0,0.0,0.0,0.0,0.0,0.0,0.0,0.0,0.0,0.0,0.0,0.0,0.0,0.0,0.0,0.0,0.0,0.0,0.0,0.0,0.0,0.0,0.0,0.0,0.0,0.0,0.0,0.0,0.0,0.0,0.0,0.0,0.0,0.0,0.0,0.0,0.0,0.0,0.0,0.0,0.0,0.0,0.0,-1.3678,-1.5017,0.0,0.0,0.0,0.0,0.0,0.0,0.0,0.0,0.0,0.0,0.0,0.0,0.0,0.0,0.0,0.0,0.0,0.0,0.0,0.0,0.0,0.0,0.0,0.0,0.0,0.0,0.0,0.0,0.0,0.0,0.0,0.0,0.0,0.0,2.3112,2.3166,2.3513,2.4183,2.4214,2.4141,2.3944,2.2457,2.1093,1.9755,0.0,0.0,0.0,0.0,0.0,0.0,0.0,0.0,0.0,0.0,0.0,0.0,0.0,0.0,0.0,0.0,0.0,0.0,0.0,0.0,0.0,0.0,0.0,0.0,0.0,0.0,0.0,0.0,0.0,0.0,0.0,0.0,0.0,0.0,0.0,0.0,0.0,0.0,0.0,0.0,0.0,0.0,0.0,0.0,0.0,0.0,0.0,0.0,0.0,0.0,0.0,0.0,0.0,0.0,0.0,0.0,0.0,0.0,0.0,0.0,0.0,0.0,0.0,0.0,0.0,0.0,0.0,0.0,0.0,0.0,-1.2311,-1.3627,0.0,0.0,0.0,0.0,0.0,0.0,0.0,0.0,0.0,0.0,0.0,0.0,0.0,0.0,0.0,0.0,0.0,0.0,0.0,0.0,0.0,0.0,0.0,1.995,2.0861,2.2465,2.3156,2.3813,2.4471,2.4544,2.4484,2.4269,2.3927,2.3867,2.4115,2.3762,2.3944,2.4686,2.4572,2.4465,2.4312,2.2721,2.1197,1.9668,1.6906,0.0,0.0,0.0,0.0,0.0,0.0,0.0,0.0,0.0,0.0,0.0,0.0,0.0,0.0,0.0,0.0,0.0,0.0,0.0,0.0,0.0,0.0,0.0,0.0,0.0,0.0,0.0,0.0,0.0,0.0,0.0,0.0,0.0,0.0,0.0,0.0,0.0,0.0,0.0,0.0,0.0,0.0,0.0,0.0,0.0,0.0,0.0,0.0,0.0,0.0,0.0,0.0,0.0,0.0,0.0,0.0,0.0,0.0,0.0,0.0,0.0,0.0,0.0,-0.4273,-0.5739,-0.8088,-0.8554,-0.8808,-0.8929,-1.1191,-1.2201,-1.24,-1.4834,0.0,0.0,0.0,0.0,0.0,0.0,0.0,0.0,0.0,0.0,0.0,0.0,0.0,0.0,0.0,0.0,0.0,0.0,0.0,0.0,0.0,2.1784,2.2902,2.3314,2.4281,2.4887,2.4994,2.5169,2.5275,2.5309,2.5194,2.5108,2.5024,2.4539,2.4228,2.4189,2.3672,2.3102,2.2488,2.0439,1.8734,1.7377,1.7774,0.0,0.0,0.0,0.0,0.0,0.0,0.0,0.0,0.0,0.0,0.0,0.0,0.0,0.0,0.0,0.0,0.0,0.0,0.0,0.0,0.0,0.0,0.0,0.0,0.0,0.0,0.0,0.0,0.0,0.0,0.0,0.0,0.0,0.0,0.0,0.0,0.0,0.0,0.0,0.0,0.0,0.0,0.0,0.5553,0.5558,0.0,0.0,0.0,0.0,0.0,0.0,0.0,0.0,0.0,0.0,0.0,0.0,0.0,-0.0607,-0.0605,-0.0608,-0.0609,-0.0608,-0.3254,-0.4689,-0.5171,-0.768,-0.8817,-0.8798,-0.9196,0.0,-0.9548,-1.2279,0.0,0.0,0.0,0.0,0.0,0.0,0.0,0.0,0.0,0.0,0.0,0.0,0.0,0.0,0.0,0.0,0.0,0.0,0.0,0.0,0.0,2.3038,2.3816,2.4358,2.4962,2.5311,2.5312,2.541,2.5429,2.5348,2.5263,2.5151,2.4985,2.444,2.3933,2.342,2.2569,2.1915,2.1453,1.9065,1.7408,1.6439,1.5622,1.2282,0.6823,-0.0359,0.0,0.0,0.0,0.0,0.0,0.0,0.0,0.0,0.0,0.0,0.0,0.0,0.0,0.0,0.0,0.0,0.0,0.0,0.0,0.0,0.0,0.0,0.0,0.0,0.0,0.0,0.0,0.0,0.0,0.0,0.0,0.0,0.0,0.0,0.0,0.0,0.0,0.0,0.0,0.5556,0.6056,0.6468,0.5251,0.4072,0.0,0.0,0.0,0.0,0.0,0.0,0.0,0.0,0.0,0.0554,0.1832,0.2112,0.1223,0.039,0.0,-0.0056,-0.3058,-0.4505,-0.4529,-0.5819,-0.6362,-0.6489,-0.8098,-0.879,-0.899,-1.1786,-1.4329,-1.6591,0.0,0.0,0.0,0.0,-1.9689,-1.9689,0.0,0.0,0.0,0.0,0.0,0.0,0.0,0.0,0.0,0.0,0.0,0.0,2.3411,2.4005,2.4516,2.5116,2.5376,2.5483,2.5487,2.5436,2.5321,2.519,2.5072,2.4889,2.4596,2.4081,2.343,2.2695,2.1894,2.1147,2.04,1.8275,1.6654,1.5425,1.3387,1.0218,0.5996,0.1335,-0.2975,0.0,0.0,0.0,0.0,0.0,0.0,0.0,0.0,0.0,0.0,0.0,0.0,0.0,0.0,0.0,0.0,0.0,0.0,0.0,0.0,0.0,0.0,0.0,0.0,0.0,0.0,0.0,0.0,0.0,0.0,0.0,0.0,0.0,0.0,0.0,0.0,0.0,0.0,0.71,0.7276,0.7647,0.6716,0.5698,0.0,0.0,0.0,0.0,0.0,0.0,0.3677,0.3503,0.3729,0.4487,0.4255,0.3685,0.279,0.1172,0.0279,-0.0056,-0.2681,-0.4135,-0.4494,-0.4484,-0.4518,-0.466,-0.7133,-0.8447,-0.9006,-1.1772,-1.3973,-1.5619,-1.6268,-1.7463,-1.8877,-1.8889,-1.8901,-1.8901,0.0,0.0,0.0,0.0,0.0,0.0,0.0,0.0,0.0,0.0,0.0,2.284,2.3774,2.4733,2.5337,2.5372,2.5463,2.5468,2.541,2.5234,2.5119,2.512,2.4924,2.4564,2.4045,2.3498,2.2888,2.2135,2.2079,2.0971,1.8898,1.8128,1.6338,1.3767,1.2377,0.9748,0.632,0.5386,0.0959,-0.5415,0.0,0.0,0.0,0.0,0.0,0.0,0.0,0.0,0.0,0.0,0.0,0.0,0.0,0.0,0.0,0.0,0.0,0.0,0.0,0.0,0.0,0.0,0.0,0.0,0.0,0.0,0.0,0.0,0.0,0.0,0.0,0.0,0.0,0.0,0.0,0.0,0.0,0.0,0.0,1.0653,1.0503,0.0,0.0,0.0,0.0,0.6416,0.6421,0.6145,0.5433,0.4751,0.4429,0.4519,0.3566,0.3514,0.4366,0.2402,0.0949,0.0,-0.156,-0.307,-0.4477,-0.4522,-0.4498,-0.4573,-0.6077,-0.7486,-0.9006,-1.1772,-1.2969,-1.3331,-1.5619,-1.6585,-1.666,-1.6667,-1.6663,-1.6663,0.0,0.0,0.0,0.0,0.0,0.0,0.0,0.0,2.1175,2.2128,2.2987,2.3843,2.4764,2.5226,2.5457,2.5409,2.5469,2.5469,2.541,2.5335,2.5178,2.4911,2.4836,2.4487,2.3806,2.3419,2.2838,2.2096,2.0924,1.984,1.874,1.7154,1.5656,1.425,1.2048,0.9561,0.699,0.5436,0.1355,-0.4008,-0.3741,-0.5267,0.0,0.0,0.0,0.0,0.0,0.0,0.0,0.0,0.0,0.0,0.0,0.0,0.0,0.0,0.0,0.0,0.0,0.0,0.0,0.0,0.0,0.0,0.0,0.0,0.0,0.0,0.0,0.0,0.0,0.0,0.0,0.0,0.0,0.0,0.0,0.0,0.0,0.9948,0.9788,0.0,0.8505,0.8305,0.7779,0.6663,0.7214,0.7235,0.6263,0.5529,0.5148,0.5164,0.4398,0.4128,0.447,0.3292,0.223,0.1393,-0.0056,-0.156,-0.3014,-0.3569,-0.4064,-0.4553,-0.5487,-0.6637,-0.8008,-0.9607,-1.1316,-1.2976,-1.3861,-1.4189,-1.4159,-1.4161,-1.5178,-1.6393,0.0,0.0,0.0,0.0,0.0,0.0,0.0,0.0,2.1817,2.2815,2.3628,2.4438,2.5336,2.5467,2.5464,2.5407,2.5445,2.5441,2.536,2.5307,2.5147,2.4877,2.4659,2.4298,2.3824,2.3419,2.2838,2.2096,2.0767,1.9647,1.8792,1.7179,1.5816,1.4595,1.2628,1.0116,0.7431,0.6033,0.2392,-0.2538,-0.2548,-0.3762,-0.5471,0.0,0.0,0.0,0.0,0.0,0.0,0.0,0.0,0.0,0.0,0.0,0.0,0.0,0.0,0.0,0.0,0.0,0.0,0.0,0.0,0.0,0.0,0.0,0.0,0.0,0.0,0.0,0.0,0.0,0.0,0.0,0.0,0.0,0.0,1.1074,1.1234,1.0172,1.0394,1.0346,0.9674,0.9525,0.9084,0.8141,0.833,0.8146,0.7203,0.6564,0.6032,0.5542,0.5058,0.4732,0.4519,0.368,0.3065,0.2565,0.0835,-0.0501,-0.1504,-0.2785,-0.368,-0.4125,-0.5105,-0.5873,-0.6534,-0.8165,-0.9857,-1.1621,-1.2541,-1.2885,-1.2886,-1.2886,-1.3921,-1.5223,0.0,0.0,0.0,0.0,0.0,0.0,0.0,2.1055,2.1962,2.2877,2.3785,2.4645,2.5429,2.5508,2.5471,2.5401,2.5406,2.536,2.5293,2.5111,2.501,2.501,2.4377,2.4007,2.4007,2.3494,2.2863,2.2124,2.172,2.0574,1.8815,1.8338,1.6902,1.4744,1.4032,1.1452,0.7639,0.7629,0.4321,-0.088,-0.1001,-0.1946,-0.3209,0.0,0.0,0.0,0.0,0.0,0.0,0.0,0.0,0.0,0.0,0.0,0.0,0.0,0.0,0.0,0.0,0.0,0.0,0.0,0.0,0.0,0.0,0.0,0.0,0.0,0.0,0.0,0.0,0.0,0.0,0.0,0.0,0.0,1.2134,1.2748,1.3033,1.1737,1.2715,1.3152,1.2244,1.1676,1.1231,1.0933,0.9904,0.8961,0.8335,0.7919,0.7069,0.5592,0.5538,0.5164,0.4519,0.3732,0.3345,0.3287,0.1112,0.0056,-0.0056,-0.2336,-0.3345,-0.3398,-0.4827,-0.5089,-0.4736,-0.7547,-0.8744,-0.9058,-1.1799,-1.288,-1.2881,-1.2881,-1.2881,-1.3085,0.0,0.0,0.0,0.0,0.0,0.0,0.0,2.1578,2.2641,2.2963,2.4307,2.534,2.5559,2.5534,2.5464,2.5413,2.5354,2.5331,2.5313,2.5253,2.5152,2.501,2.4728,2.44,2.4007,2.3852,2.337,2.2548,2.1735,2.0814,1.9813,1.9001,1.7652,1.5903,1.4653,1.2809,1.0466,0.8894,0.6754,0.4183,0.1537,-0.0719,-0.2447,0.0,0.0,0.0,0.0,0.0,0.0,0.0,0.0,0.0,0.0,0.0,0.0,0.0,0.0,0.0,0.0,0.0,0.0,0.0,0.0,0.0,0.0,0.0,0.0,0.0,0.0,0.0,0.0,0.0,0.0,0.0,1.5252,1.5219,1.4043,1.4523,1.4781,1.416,1.3896,1.3635,1.3363,1.2871,1.2323,1.1784,1.0936,1.0275,0.9878,0.8502,0.7503,0.7122,0.6086,0.5433,0.5218,0.4508,0.3901,0.3345,0.2783,0.1613,-0.0056,-0.1221,-0.2334,-0.34,-0.4343,-0.4941,-0.5311,-0.6067,-0.7298,-0.8894,-1.0685,-1.1972,-1.2841,-1.2138,-1.2589,-1.3647,0.0,0.0,0.0,0.0,0.0,0.0,0.0,2.1778,2.2912,2.2983,2.4528,2.5597,2.5561,2.5554,2.5503,2.5447,2.5368,2.5348,2.5329,2.5322,2.5253,2.5141,0.0,2.4651,2.4136,2.4045,2.365,2.2923,2.218,2.1508,2.086,2.0014,1.8826,1.7448,1.6488,1.5017,1.3202,1.1856,1.0141,0.8093,0.5911,0.3225,0.0551,0.0718,0.1377,0.2251,0.2099,0.314,0.4667,0.4794,0.0,0.0,0.0,0.0,0.0,0.0,0.0,0.0,0.0,0.0,0.0,0.0,0.0,0.0,0.0,0.0,0.0,0.0,0.0,0.0,0.0,0.0,0.0,0.0,1.582,1.5864,1.5522,1.5712,1.5682,1.5142,1.449,1.4155,1.444,1.3549,1.2971,1.2966,1.1687,1.0823,1.0682,0.9059,0.7996,0.7723,0.6848,0.614,0.5487,0.5113,0.4563,0.3846,0.3511,0.2506,0.089,-0.0167,-0.1445,-0.2954,-0.368,-0.4398,-0.5109,-0.571,-0.6676,-0.7947,0.0,0.0,0.0,0.0,-1.1826,-1.2765,0.0,0.0,0.0,0.0,0.0,0.0,0.0,2.1836,2.2953,2.3116,2.4553,2.5564,2.5506,2.5544,2.5559,2.5496,2.5446,2.5388,2.5408,2.5354,2.5322,2.5313,2.5143,2.4835,2.4388,2.4206,2.3853,2.3315,2.2988,2.2528,2.1924,2.1305,2.0369,1.9287,1.8982,1.7789,1.597,1.5718,1.407,1.1547,1.1352,0.8657,0.4646,0.4114,0.4638,0.5584,0.4433,0.5346,0.6992,0.6333,0.0,0.0,0.0,0.0,0.0,0.0,0.0,0.0,0.0,0.0,0.0,0.0,0.0,0.0,0.0,0.0,0.0,0.0,0.0,0.0,0.0,0.0,0.0,0.0,1.6318,1.667,1.6522,1.6402,1.6042,1.5305,1.4813,1.4769,1.5387,1.4026,1.3467,1.4269,1.2373,1.1125,1.1012,0.9703,0.0,0.0,0.0,0.7009,0.5651,0.5542,0.5164,0.4519,0.379,0.3065,0.2286,0.0779,-0.0612,-0.2007,-0.2899,-0.3735,-0.446,-0.5878,-0.6588,-0.6853,-0.8265,-0.957,-1.0712,-1.0762,-1.0961,-1.1149,0.0,0.0,0.0,0.0,0.0,0.0,0.0,2.2153,2.3107,2.3877,2.4833,2.5451,2.55,2.5464,2.5466,2.5506,2.5444,2.5426,2.5473,2.5477,2.5441,2.5383,2.5332,2.5178,2.4867,2.4828,2.4561,2.4081,2.4008,2.3614,2.2932,2.278,2.2174,2.116,2.1123,2.0355,1.9118,1.8902,1.7889,1.6424,1.6244,1.2379,0.6794,0.7292,0.7671,0.7934,0.8287,0.9358,1.0524,0.988,1.0229,1.0839,1.0316,0.0,0.0,0.0,0.0,0.0,0.0,0.0,0.0,0.0,0.0,0.0,0.0,0.0,0.0,0.0,0.0,0.0,0.0,0.0,0.0,1.7031,1.7525,1.7596,1.6615,1.648,1.6386,1.6078,1.5493,1.5254,1.5625,1.4903,1.4638,1.5129,1.3643,1.2419,1.1919,1.044,0.9309,0.8593,0.7996,0.7289,0.6421,0.5814,0.5164,0.4519,0.4349,0.0,0.3065,0.1555,0.0389,-0.0556,-0.2449,-0.34,-0.3732,-0.516,-0.6416,-0.761,-0.9026,-0.9755,-1.0064,-1.0618,-1.0822,-1.0872,0.0,0.0,0.0,0.0,0.0,0.0,0.0,2.1985,2.2973,2.3435,2.4609,2.5408,2.5447,2.5459,2.5464,2.5503,2.5445,2.5406,2.546,2.5417,2.5408,2.5396,2.5391,2.5299,2.5091,2.5101,2.4952,2.4587,2.4587,2.4412,2.4057,2.391,2.3594,2.3088,2.294,2.2528,2.1953,2.1357,2.0713,2.0104,1.9466,1.6817,1.3125,1.1598,1.1351,1.1733,1.1204,1.1698,1.2569,1.2234,1.2388,1.2628,1.2357,1.2454,1.2706,0.0,0.0,0.0,0.0,0.0,0.0,0.0,0.0,0.0,0.0,0.0,0.0,0.0,0.0,1.7021,1.7629,0.0,1.8153,1.818,1.7986,1.76,1.6989,1.668,1.646,1.6314,1.6009,1.5954,1.6234,1.5683,1.5446,1.5614,1.4079,1.2896,1.2323,1.1023,1.0167,0.9814,0.9436,0.8744,0.7635,0.7304,0.6392,0.5003,0.5003,0.4395,0.3287,0.2169,0.1056,-0.0056,-0.156,-0.2621,-0.3508,-0.532,-0.647,-0.7289,-0.8725,-0.9309,-0.9361,-0.9666,-0.9862,-0.9964,0.0,0.0,0.0,0.0,0.0,0.0,0.0,2.1812,2.2851,2.3024,2.44,2.5376,2.5387,2.5428,2.5477,2.5468,2.5449,2.5416,2.5427,2.5371,2.5351,2.5401,2.5401,2.5339,2.5213,2.5213,2.5137,2.4981,2.4981,2.4981,2.4962,2.4762,2.4659,2.463,2.4375,2.4243,2.4202,2.3356,2.2989,2.2939,2.2003,2.1104,1.9919,1.6599,1.5527,1.5592,1.4094,1.4105,1.4755,1.4462,1.4418,1.445,1.4139,1.4494,1.488,1.4253,1.415,0.0,0.0,0.0,0.0,0.0,0.0,0.0,0.0,0.0,1.7222,1.8232,1.8444,1.8556,1.8999,1.8815,1.8728,1.9013,1.8358,1.7719,1.7489,1.7076,1.6784,1.6672,1.6524,1.6538,1.6814,1.6328,1.5999,1.6084,1.4356,1.3143,1.2715,1.1634,1.0914,1.0813,1.0813,1.0136,0.8731,0.8678,0.767,0.5706,0.5706,0.4992,0.3727,0.295,0.1835,0.039,-0.067,-0.2007,-0.3671,-0.5425,-0.6367,-0.6696,-0.7883,-0.8374,-0.8427,-0.8699,-0.8954,-0.909,0.0,0.0,0.0,0.0,0.0,0.0,0.0,0.0,2.309,2.386,2.4745,2.5313,2.5313,2.5322,2.5357,2.542,2.5463,2.5488,2.5481,2.5477,2.5457,2.5395,2.5396,2.5367,2.5291,2.529,2.529,2.5269,2.5269,2.5269,2.5249,2.5228,2.5208,2.5208,2.5167,2.5146,2.5144,2.4849,2.4749,2.4775,2.4471,2.4162,2.368,2.2368,2.0307,1.8083,1.7889,1.82,1.8627,1.7644,1.7329,1.7076,1.5738,1.5688,1.6009,1.5481,0.0,1.6108,1.6108,1.6506,1.7066,1.772,1.784,1.815,0.0,0.0,1.8989,1.9558,1.9692,1.9534,1.9018,1.9748,2.0091,1.908,1.9309,1.9239,1.8135,1.7947,1.7936,1.797,1.7062,1.6598,1.7034,1.6507,1.6332,1.6649,1.516,1.3983,1.3307,1.2273,1.1416,1.0813,1.0813,1.0136,0.8731,0.8678,0.7947,0.6475,0.6475,0.6036,0.521,0.4484,0.3327,0.1839,-0.0223,-0.2336,-0.4316,-0.4535,-0.542,-0.6588,-0.6804,-0.6858,-0.702,-0.8315,-0.8837,-0.8822,0.0,0.0,0.0,0.0,0.0,0.0,0.0,0.0,0.0,2.3077,2.4181,2.5019,2.5019,2.5019,2.5022,2.5042,2.507,0.0,2.509,2.5081,2.5082,2.5043,2.5043,2.5057,2.5063,2.5063,2.5063,2.5063,2.5063,2.5063,2.5063,2.5063,2.5063,2.5063,2.5063,2.5063,2.5068,2.4935,2.4978,2.5096,2.4977,2.4778,2.4523,2.411,2.3,2.1566,2.0561,2.0146,0.0,0.0,1.9276,1.8869,1.8047,1.7921,1.8051,1.7843,1.7769,0.0,1.7798,1.8218,1.8745,1.9221,1.933,1.9528,2.034,2.0119,1.9893,2.0436,2.0522,2.0553,2.0681,2.0791,2.0845,2.0731,2.0339,1.9891,1.9411,1.9046,1.8917,1.907,1.8915,1.8681,1.8228,1.731,1.6807,1.7066,1.5758,1.4704,1.4185,1.3747,1.3348,1.31,1.2725,1.1868,1.0444,1.046,0.96,0.7841,0.7841,0.741,0.6651,0.5128,0.3382,0.1507,0.0111,-0.1224,-0.2556,-0.3432,-0.4152,-0.4772,-0.5186,-0.5575,-0.6091,-0.7122,-0.7509,-0.7469,0.0,0.0,0.0,0.0,0.0,0.0,0.0,0.0,0.0,0.0,2.3903,2.4804,2.4804,2.4804,2.479,2.481,2.4799,0.0,0.0,2.4799,2.4804,2.4791,2.4803,2.4815,2.4873,2.4989,2.503,2.503,2.5152,2.5108,2.4892,2.4892,2.479,2.4612,2.4612,2.4612,2.4593,2.4536,2.4677,2.4895,2.4839,2.4829,2.4803,2.4803,2.4632,2.4174,2.2656,2.1836,0.0,2.1361,2.1035,2.0651,2.0073,1.9953,2.0069,1.9903,1.9622,1.9343,1.9343,1.9607,0.0,2.0541,2.0671,2.0831,2.139,2.1231,2.107,2.1438,2.1439,2.1488,2.1794,2.1392,2.1167,2.1646,2.1,2.0438,2.0438,2.0277,2.0212,2.0336,2.0789,2.0784,2.0043,1.8553,1.7676,1.7784,1.6291,1.5243,1.4937,1.4789,1.4698,1.4698,1.4097,1.3215,1.2006,1.1895,1.0939,0.9304,0.9304,0.877,0.7817,0.545,0.3545,0.1947,0.1001,0.0167,-0.0613,-0.1885,-0.255,-0.2837,-0.3534,-0.4142,-0.4659,-0.5206,-0.5923,-0.6563,0.0,0.0,0.0,0.0,0.0,0.0,0.0,0.0,0.0,0.0,0.0,0.0,0.0,2.4804,2.4804,2.4804,0.0,0.0,0.0,2.4804,2.4804,2.4804,2.4804,2.4799,2.4799,2.5176,2.5373,2.5373,2.5792,2.5615,2.4904,2.4904,2.452,2.3842,2.3842,2.3842,2.3842,2.3823,2.4052,2.4417,2.4417,2.4686,2.5094,2.5094,2.5206,2.5227,2.4187,0.0,2.3709,2.3066,2.2817,2.2614,2.1423,2.1408,0.0,2.1196,2.0855,2.0639,2.0639,2.0639,2.086,2.1652,2.1838,2.2023,2.2689,2.2811,2.2811,2.2841,2.259,2.2194,2.1631,2.1243,2.1007,2.1023,2.1007,2.0991,2.0991,2.16,2.202,2.2028,2.2226,2.2369,2.2393,2.0356,1.9027,1.9027,1.6896,1.5599,1.5588,1.5017,1.4698,1.4698,1.4097,1.3474,1.2764,1.2101,1.1466,1.0762,1.0762,1.0033,0.8567,0.5716,0.4371,0.4207,0.2781,0.1725,0.0998,0.0222,-0.05,-0.1221,-0.2003,-0.2286,-0.2286,-0.2341,-0.4158,-0.6588,0.0,0.0,0.0,0.0,0.0,0.0,0.0,0.0,0.0,0.0,0.0,0.0,0.0,0.0,0.0,0.0,0.0,0.0,0.0,2.3731,2.3731,2.3731,2.3731,2.3731,2.3731,2.3862,2.4172,2.4671,2.4807,2.4853,2.4778,2.4778,2.4217,2.3206,2.3523,2.3424,2.3017,2.3294,2.356,2.3805,2.4043,2.4339,2.4662,2.4973,2.5169,2.523,0.0,0.0,2.4607,2.4076,2.3878,2.3729,2.3092,2.3021,2.3079,2.2623,2.2439,2.2359,2.2359,2.2359,2.2468,2.2859,2.2959,2.2976,2.3082,2.3101,2.3101,2.3101,2.2998,2.2877,2.2678,2.2522,2.2443,2.2443,2.2443,2.238,2.2152,2.2344,2.2655,2.3122,2.3199,2.339,2.372,2.1668,2.0104,1.9683,1.8245,1.7183,1.6769,1.6213,1.5876,1.5876,1.532,1.4687,1.3989,1.381,1.3205,1.2132,1.2132,1.1165,0.9327,0.8837,0.7814,0.6352,0.4931,0.3902,0.313,0.194,0.1001,0.0443,0.1161,0.0553,-0.0609,0.0386,-0.0219,-0.1691,0.0,0.0,0.0,0.0,0.0,0.0,0.0,0.0,0.0,0.0,0.0,0.0,0.0,0.0,0.0,0.0,0.0,0.0,0.0,0.0,2.2822,2.2822,2.2822,2.2758,2.2605,2.3161,2.3519,2.367,2.3998,2.4024,2.3776,2.3776,2.322,2.2245,2.2534,2.2428,2.2057,2.2293,2.2486,2.2663,2.3257,2.3657,2.396,2.4695,2.5052,0.0,0.0,2.5312,2.5149,2.4793,2.4636,2.4571,2.4254,2.4163,2.4078,2.3712,2.3599,2.3599,2.3599,2.3599,2.3655,2.3897,2.3952,2.3933,2.3794,2.3707,2.3663,2.3663,2.3508,2.3392,2.3392,2.3531,2.3549,2.3242,2.3364,2.333,2.2933,2.3015,2.3388,2.4084,2.4408,2.4661,2.4939,2.3624,2.2124,2.0726,1.9331,1.8422,1.7962,1.7389,1.7076,1.7076,1.6275,1.5748,1.5545,1.4971,1.4272,1.349,1.3243,1.2425,1.1113,1.1062,1.0166,0.8577,0.739,0.6506,0.5761,0.4595,0.3675,0.3075,0.3787,0.3018,0.1704,0.2634,0.2682,0.1913,0.0,0.0,0.0,0.0,0.0,0.0,0.0,0.0,0.0,0.0,0.0,0.0,0.0,0.0,0.0,0.0,0.0,0.0,0.0,0.0,0.0,2.2104,2.2104,2.1914,2.1492,2.3006,2.3386,2.2551,2.3407,2.3226,2.2112,2.2112,2.1711,2.099,2.1023,2.1007,2.0959,2.0991,2.1019,2.1136,2.2169,2.2713,2.305,2.4301,0.0,0.0,0.0,2.5385,2.5354,2.5183,2.5166,2.5166,2.4905,2.4835,2.4776,2.4451,2.4351,2.4369,2.4353,2.4353,2.4439,2.4737,2.4818,2.4818,2.4804,2.4654,2.4512,2.4512,2.4099,2.3735,0.0,0.0,2.4189,2.3407,2.3731,2.3876,2.3319,2.363,2.416,0.0,0.0,0.0,0.0,2.595,2.4874,2.2159,2.0259,1.9238,1.9196,1.8544,1.8131,1.8171,1.7122,1.6777,1.7288,1.5672,1.4835,1.4824,1.4171,1.3835,1.3742,1.2435,1.15,1.0872,1.0073,0.9475,0.8889,0.7964,0.7285,0.667,0.5961,0.528,0.4656,0.4757,0.4757,0.4263,0.0,0.0,0.0,0.0,0.0,0.0,0.0,0.0,0.0,0.0,0.0,0.0,0.0,0.0,0.0,0.0,0.0,0.0,0.0,0.0,0.0,0.0,0.0,0.0,0.0,0.0,0.0,2.2215,2.2442,2.2479,2.23,2.23,2.1755,2.0792,2.1089,2.0967,2.0516,2.0862,2.1162,2.1508,0.0,2.2581,2.3203,0.0,0.0,0.0,0.0,0.0,0.0,0.0,2.5292,2.5273,2.5258,2.524,2.5232,2.5205,2.5194,2.5178,2.512,2.512,2.5091,2.4979,2.4949,2.4911,2.4814,2.476,2.4731,2.4731,2.4491,2.4302,2.4302,2.4894,2.5115,2.4284,2.48,2.4924,2.3941,2.3775,0.0,2.4417,0.0,2.4843,2.4995,2.5575,2.5128,2.3143,2.1797,2.0959,2.0743,1.9374,1.8777,1.9053,1.8803,1.8555,1.8384,1.7193,1.6541,1.6541,1.6388,1.5862,1.5048,1.5124,1.4631,1.3627,1.2359,1.2149,1.2477,1.0055,0.9377,0.9817,0.9479,0.8885,0.8403,0.9379,0.9772,0.9492,0.0,0.0,0.0,0.0,0.0,0.0,0.0,0.0,0.0,0.0,0.0,0.0,0.0,0.0,0.0,0.0,0.0,0.0,0.0,0.0,0.0,0.0,0.0,0.0,0.0,0.0,0.0,0.0,0.0,0.0,2.0793,2.11,2.0871,2.0258,2.0506,2.0386,2.0054,2.0311,0.0,0.0,0.0,0.0,0.0,0.0,0.0,0.0,0.0,0.0,0.0,0.0,0.0,2.5349,2.5391,2.5404,2.5403,2.5457,2.5472,2.5484,2.5459,2.5447,2.5409,2.5258,2.5224,2.5206,2.511,2.5023,2.4936,2.4936,2.5059,2.5051,2.4698,2.5916,2.6566,0.0,0.0,0.0,2.4998,2.4596,2.4432,0.0,2.4885,0.0,2.5045,2.5453,2.5334,2.4381,2.3221,2.2359,2.182,2.0652,2.0094,2.0313,2.0082,1.9671,1.9068,1.8522,1.8215,1.8173,1.7981,1.7678,1.7223,1.7557,1.7223,1.6334,1.5526,1.5338,1.5426,1.3784,1.3265,1.3445,1.3339,1.2948,1.2523,1.3235,1.3521,1.3455,0.0,0.0,0.0,0.0,0.0,0.0,0.0,0.0,0.0,0.0,0.0,0.0,0.0,0.0,0.0,0.0,0.0,0.0,0.0,0.0,0.0,0.0,0.0,0.0,0.0,0.0,0.0,0.0,0.0,0.0,0.0,0.0,0.0,0.0,0.0,0.0,0.0,0.0,0.0,0.0,0.0,0.0,0.0,0.0,0.0,0.0,0.0,0.0,0.0,0.0,2.5282,2.5356,2.5389,2.5405,2.5404,2.5418,2.5476,2.5504,2.5507,2.5503,2.5503,2.5493,2.5493,2.5493,2.5493,2.533,2.5157,2.5157,2.5547,2.5693,2.4991,2.6746,2.7777,2.6162,0.0,2.674,2.5991,2.5645,2.5373,2.5092,2.5688,2.5961,2.5572,2.5717,2.5762,2.5638,2.4655,2.367,2.269,2.201,2.1657,2.1732,2.1215,2.0591,1.9813,1.9886,1.9867,1.9726,1.9385,1.9328,1.9567,1.9626,1.9311,1.8745,1.8794,1.8613,1.8201,1.8004,1.7646,1.7208,1.7071,1.6794,1.6474,1.6563,1.6576,1.6651,0.0,0.0,0.0,0.0,0.0,0.0,0.0,0.0,0.0,0.0,2.266,2.231,0.0,0.0,0.0,0.0,0.0,0.0,0.0,0.0,0.0,0.0,0.0,0.0,0.0,0.0,0.0,0.0,0.0,0.0,0.0,0.0,0.0,0.0,0.0,0.0,0.0,0.0,0.0,0.0,0.0,0.0,0.0,0.0,0.0,0.0,0.0,0.0,0.0,0.0,2.4967,2.5101,2.5335,2.5401,2.5425,2.5525,2.5579,2.5584,2.5588,2.5573,2.5564,2.5503,2.5493,2.5493,2.5493,2.5454,0.0,0.0,2.5374,2.5307,2.5153,2.6044,2.6456,2.5502,2.6583,2.702,2.5482,2.6263,2.6484,0.0,2.5966,2.6449,2.5743,2.6716,2.7104,2.6377,2.6077,2.5368,2.4034,2.2981,2.2565,2.287,2.2479,2.219,2.2065,2.1669,2.1479,2.1462,2.1404,2.1059,2.0495,2.0872,2.0635,1.9925,2.031,2.0898,2.1456,2.0127,1.9913,2.0328,1.9483,1.9023,1.8897,1.9429,1.9637,1.9671,0.0,0.0,0.0,0.0,0.0,0.0,0.0,2.3917,2.3566,2.3236,2.2807,2.2463,2.231,2.231,2.231,0.0,0.0,0.0,0.0,0.0,0.0,0.0,0.0,0.0,0.0,0.0,2.083,1.9851,0.0,1.9867,1.9562,1.9667,1.969,1.969,1.969,1.969,1.9726,0.0,0.0,2.1039,2.143,2.2046,0.0,0.0,0.0,0.0,0.0,0.0,0.0,0.0,2.4937,2.5015,2.5157,2.5288,2.5408,2.5488,2.5551,2.5607,2.5604,2.5624,2.5637,2.5607,2.5603,2.5603,2.5603,0.0,0.0,0.0,2.5814,2.59,2.544,2.6759,0.0,2.6236,2.786,2.8497,2.6285,2.7681,2.8082,2.5893,2.6902,2.745,2.6604,2.7137,2.7177,2.6318,2.6207,2.582,2.4962,2.3905,2.3422,2.3605,2.3165,2.2902,2.2902,2.2588,2.2536,2.2726,2.2639,2.2496,2.2337,2.2565,2.2453,2.2076,2.23,2.2664,2.3079,2.2291,2.2182,2.2513,2.2059,2.1925,2.2059,2.2418,2.2521,2.2545,0.0,0.0,0.0,0.0,0.0,0.0,0.0,2.3976,2.3692,2.3346,2.3069,2.2789,2.2426,2.2321,2.231,0.0,0.0,0.0,0.0,0.0,0.0,0.0,0.0,0.0,0.0,0.0,0.0,2.0206,2.0382,0.0,0.0,0.0,0.0,0.0,1.969,1.9747,1.9839,2.0246,2.0715,0.0,0.0,2.2119,0.0,0.0,0.0,0.0,0.0,0.0,0.0,0.0,2.4898,2.4949,2.4949,2.5147,2.5383,2.5406,2.5463,2.5558,2.5567,2.5629,2.566,2.5662,2.5683,2.5683,2.5703,2.566,0.0,2.5611,2.6113,2.6416,2.5917,2.7283,2.8209,0.0,2.8831,2.945,2.7391,2.9006,2.9482,2.7054,2.808,0.0,2.7761,2.777,2.7498,2.6674,2.6332,2.591,2.5377,2.4612,2.4173,2.4173,2.3771,2.3541,2.3541,2.3376,2.3467,2.378,2.3618,2.3676,2.3915,2.4053,2.4068,2.4016,2.4116,2.4148,2.4148,2.4148,2.415,2.4099,2.4159,2.4308,2.4505,2.4549,2.4566,2.4577,0.0,0.0,0.0,0.0,0.0,0.0,0.0,2.417,2.4036,2.3692,2.3628,2.3369,2.2721,2.2453,2.231,0.0,0.0,0.0,0.0,0.0,0.0,0.0,0.0,0.0,0.0,0.0,0.0,2.0911,2.0927,0.0,0.0,0.0,0.0,0.0,0.0,1.9909,2.028,2.0731,0.0,0.0,0.0,0.0,0.0,0.0,0.0,0.0,0.0,0.0,0.0,0.0,0.0,2.4832,2.4832,2.5037,2.5312,2.5383,0.0,0.0,2.5484,2.5503,2.5539,2.5598,2.5605,2.5631,2.5683,0.0,2.5683,2.5683,2.5742,2.6015,2.6737,2.6357,2.6425,0.0,0.0,2.8352,2.8118,2.9575,2.9987,2.8165,0.0,0.0,2.8925,2.9289,2.9325,2.8691,2.7328,2.6044,2.4922,2.4779,2.4727,2.4727,2.4678,2.4648,2.4648,2.4629,2.4644,2.4678,2.4661,2.4547,2.4365,2.4859,2.4936,2.4725,2.5166,2.5337,2.5337,2.5337,2.5246,2.5065,2.5081,2.4983,2.4851,2.4794,2.4776,2.4793,0.0,0.0,0.0,0.0,0.0,0.0,2.419,2.419,2.4074,2.3735,2.3692,2.3522,2.3045,2.273,2.249,2.2293,0.0,0.0,0.0,0.0,0.0,0.0,0.0,0.0,0.0,0.0,2.1945,2.1781,2.1507,0.0,0.0,0.0,0.0,0.0,0.0,2.0565,2.0764,2.1181,0.0,0.0,0.0,0.0,0.0,0.0,0.0,0.0,0.0,0.0,2.4375,0.0,0.0,0.0,2.493,2.5096,0.0,0.0,2.5371,2.5406,2.5428,2.5477,2.5517,2.5539,2.5564,2.5605,2.5634,0.0,2.5703,2.5703,2.5703,2.5801,2.6152,2.6319,2.68,0.0,0.0,0.0,2.9898,3.1266,3.1669,2.9881,3.018,3.0397,2.9998,2.9674,2.8973,2.7737,2.6571,2.5727,2.5241,2.5031,2.493,2.493,2.4841,2.4803,2.4803,2.4957,2.5042,2.5052,2.5153,2.5166,2.5076,2.5286,2.5302,2.5162,2.5368,2.5417,2.5375,2.5375,2.533,2.5261,2.5299,2.5279,2.5195,2.5213,2.5215,2.5214,0.0,0.0,0.0,0.0,0.0,2.419,2.419,2.419,2.4132,2.3876,2.3855,2.3714,2.3392,2.3141,2.284,2.2436,2.2349,0.0,0.0,0.0,0.0,0.0,0.0,0.0,0.0,0.0,2.231,2.231,2.1974,2.1735,0.0,0.0,2.1118,2.0991,0.0,0.0,0.0,0.0,0.0,0.0,0.0,0.0,0.0,0.0,0.0,0.0,0.0,0.0,0.0,0.0,0.0,0.0,0.0,0.0,0.0,0.0,2.533,2.5371,2.5371,2.5394,2.5447,2.5477,2.5531,2.559,0.0,0.0,2.5703,2.5703,2.5703,2.5859,2.6367,2.6714,2.7393,0.0,0.0,3.1496,3.0976,3.2148,3.2577,3.1298,3.0923,3.0738,3.0689,2.9416,2.8092,2.6898,2.5989,2.561,2.5863,2.5658,2.5399,2.5158,2.5062,2.5005,2.5005,2.5181,2.5251,2.5251,2.5395,2.5478,2.5478,2.5488,2.5461,2.5429,2.5429,2.541,2.5362,2.5362,2.532,2.5271,2.5324,2.5301,2.526,2.5286,2.5291,2.5277,0.0,0.0,0.0,0.0,0.0,0.0,2.419,2.419,2.419,2.4208,2.419,2.4074,2.3735,2.3692,2.3414,2.2746,2.2436,0.0,0.0,0.0,0.0,0.0,0.0,0.0,0.0,0.0,2.231,2.231,2.2282,2.2061,2.1582,2.1598,2.1368,2.0991,0.0,0.0,0.0,0.0,0.0,0.0,0.0,0.0,0.0,0.0,0.0,0.0,0.0,0.0,0.0,0.0,0.0,0.0,0.0,2.5141,2.5303,0.0,2.5303,2.5313,2.5313,2.5313,2.5322,2.5383,2.5459,2.5526,0.0,2.5659,2.5703,2.5703,2.5703,2.623,2.7949,2.7578,2.7851,0.0,0.0,0.0,3.0898,3.166,3.2207,3.2187,3.1426,3.0898,3.0898,2.8488,2.689,2.6806,2.5989,2.5883,2.6744,2.6783,2.6389,2.5527,2.5489,2.5489,2.5489,2.5425,2.5405,2.5405,2.5407,2.5408,2.5405,2.5461,2.5493,2.5493,2.5493,2.5493,2.5493,2.5493,2.5374,2.52,2.52,2.5073,2.4899,2.4828,2.482,2.4815,0.0,0.0,0.0,0.0,0.0,0.0,0.0,2.4284,2.419,2.419,2.419,2.417,2.4036,2.3837,2.361,2.3392,2.289,0.0,0.0,0.0,0.0,0.0,0.0,0.0,0.0,0.0,2.2573,2.2573,2.2807,2.284,2.2686,2.2686,2.2635,2.2496,2.2496,2.2643,0.0,0.0,0.0,0.0,0.0,0.0,2.4036,0.0,0.0,0.0,0.0,0.0,0.0,0.0,0.0,0.0,0.0,0.0,0.0,2.5303,2.5303,2.5303,2.5303,2.533,2.5368,2.5398,2.5473,2.5567,2.5598,2.5659,2.5879,2.6465,2.6582,2.6934,2.8086,2.8066,2.8359,2.9785,0.0,0.0,0.0,0.0,0.0,3.2207,3.0898,2.9785,2.918,2.7812,2.6968,2.6942,2.664,2.6581,2.6855,2.7391,2.7558,2.7279,2.6691,2.6397,2.6397,2.5775,2.5461,2.5461,2.5476,2.5481,2.5481,2.5479,2.5401,2.5236,2.5236,2.5149,2.5011,2.5011,2.4977,2.4941,2.4941,2.4885,2.479,2.4553,2.446,2.4414,0.0,0.0,0.0,0.0,0.0,0.0,0.0,2.4512,2.441,2.4321,2.4321,2.4284,2.4209,2.4016,2.3837,2.3714,2.3323,0.0,0.0,0.0,0.0,0.0,0.0,0.0,0.0,2.2738,2.2898,2.2898,2.3093,2.3189,2.3189,2.3189,2.3189,2.3189,2.3189,2.3259,0.0,0.0,0.0,0.0,0.0,0.0,2.4428,0.0,0.0,0.0,0.0,0.0,0.0,0.0,0.0,0.0,0.0,0.0,0.0,0.0,2.5339,2.5339,2.5339,2.5391,2.5441,2.5434,2.5526,2.5601,2.5601,0.0,2.5957,2.6816,2.6992,2.7363,2.8574,2.8789,2.918,3.0391,3.1289,0.0,3.2578,3.2949,3.291,3.2285,3.0957,2.9746,2.8887,2.8008,2.748,2.748,2.7457,2.7561,2.7861,2.8357,2.8619,2.8591,2.7437,2.68,2.68,2.5916,2.5451,2.5451,2.5441,2.5421,2.5421,2.5421,2.5337,2.5178,2.5178,2.5053,0.0,2.4883,2.4799,2.4685,2.4685,2.4639,2.4543,2.4334,2.4173,2.4026,0.0,0.0,0.0,0.0,0.0,0.0,0.0,2.4804,2.4731,2.4561,2.4528,2.4444,2.4247,2.4247,2.4114,2.3777,0.0,0.0,0.0,0.0,0.0,0.0,0.0,0.0,2.2746,2.3069,2.3253,2.3253,2.3259,2.3259,2.3259,2.3259,2.3282,2.3305,2.3305,2.3464,0.0,0.0,0.0,0.0,2.4528,2.4623,0.0,0.0,0.0,0.0,0.0,0.0,0.0,0.0,0.0,0.0,0.0,0.0,0.0,0.0,0.0,0.0,0.0,2.5471,2.5517,2.5517,2.5558,2.5605,2.5605,0.0,0.0,2.6894,2.709,2.7637,2.9375,2.9687,3.0215,3.1836,3.2793,3.3301,3.3301,3.4004,3.3926,3.2305,3.1348,3.0488,2.9687,2.8808,2.832,2.8379,2.8378,2.8685,2.9435,2.9471,2.9448,2.9374,2.7684,2.6784,2.679,2.5867,2.5379,2.5398,2.533,2.5303,2.5303,2.5293,2.5264,2.5264,2.5253,2.513,2.493,2.493,2.4762,2.4478,2.4442,2.4339,2.417,2.4113,2.3896,2.3628,0.0,0.0,0.0,0.0,0.0,0.0,0.0,0.0,0.0,0.0,2.4731,2.4716,2.467,2.4654,2.4575,0.0,0.0,0.0,0.0,0.0,0.0,0.0,0.0,0.0,2.3069,2.3414,2.3566,2.3566,2.3837,2.3958,2.3958,2.3958,2.4039,2.4192,2.4192,2.4317,0.0,0.0,0.0,0.0,2.4731,2.476,0.0,0.0,0.0,0.0,2.4917,2.4949,0.0,0.0,0.0,0.0,0.0,0.0,0.0,0.0,2.5434,2.5498,2.5543,0.0,2.559,2.559,2.5633,2.5682,0.0,0.0,0.0,0.0,0.0,2.8535,3.0273,3.0586,3.0723,3.1133,3.1914,3.248,3.248,3.2656,3.2383,3.1328,3.0449,2.9824,2.9629,2.8763,2.8498,2.9162,2.907,2.9071,2.9264,2.9212,2.9197,2.9168,2.7537,2.6674,2.6715,2.5788,2.5312,2.5312,2.5303,2.5303,2.5284,2.5141,2.5018,2.4915,2.4756,2.4572,2.4392,2.4392,2.4357,2.4247,2.3999,2.386,2.3774,2.3236,2.2996,2.2898,0.0,0.0,0.0,0.0,0.0,0.0,0.0,0.0,0.0,0.0,0.0,2.4883,2.4804,2.4804,0.0,0.0,0.0,0.0,0.0,0.0,0.0,0.0,0.0,2.3414,2.3414,2.3774,2.3959,2.4079,2.4248,2.4393,2.4478,2.4478,2.4545,2.4639,2.4639,2.47,0.0,0.0,0.0,0.0,2.4891,0.0,0.0,0.0,0.0,0.0,2.5118,2.5141,0.0,2.5302,2.5357,2.5346,0.0,0.0,0.0,0.0,2.5526,2.5561,2.5633,2.5657,2.5657,2.5657,2.5662,2.5703,2.5703,0.0,0.0,0.0,0.0,0.0,3.0644,3.1189,3.1558,3.1973,3.2725,3.3278,3.3291,3.2987,3.2421,3.1519,3.0639,3.0087,3.0055,2.9601,2.9332,2.9453,2.9693,2.9493,2.8698,2.9332,2.9196,2.7986,2.7467,2.7026,2.6666,2.5755,2.5253,2.5163,2.5163,2.513,2.5068,2.4956,2.4883,2.479,2.4685,2.4528,2.4339,2.4173,2.4058,2.3937,2.3588,2.3459,2.3414,2.3069,2.2822,2.2669,0.0,0.0,0.0,0.0,0.0,0.0,0.0,0.0,0.0,0.0,0.0,0.0,0.0,0.0,0.0,0.0,0.0,0.0,0.0,0.0,0.0,0.0,2.3937,2.3883,2.3883,2.4154,2.4375,2.4561,2.4561,2.4623,2.4804,2.4804,2.4818,2.4828,2.4855,2.4883,0.0,0.0,0.0,2.5248,2.5133,0.0,0.0,0.0,0.0,0.0,0.0,0.0,0.0,2.5406,2.5415,2.5428,2.5473,0.0,0.0,0.0,0.0,0.0,2.5683,2.5703,2.5703,2.5703,2.5703,2.5703,2.5703,0.0,0.0,0.0,0.0,0.0,0.0,3.1395,0.0,0.0,3.3922,3.4567,3.4733,3.4086,3.3215,3.229,3.1406,3.0806,3.0611,3.0594,3.0257,2.9427,2.9992,2.9666,2.807,2.9203,2.8878,2.6659,2.7198,2.7129,2.6359,2.5629,2.5163,2.501,2.4986,2.4917,2.4804,2.4775,2.476,2.476,2.4716,2.4607,2.4426,2.4155,2.3945,2.3735,2.3414,2.3253,2.3189,2.3141,2.2923,2.2634,0.0,0.0,0.0,0.0,0.0,0.0,0.0,0.0,0.0,0.0,0.0,0.0,0.0,0.0,0.0,0.0,0.0,0.0,0.0,0.0,0.0,2.5646,2.4989,2.4632,2.4632,2.4666,2.4731,2.476,2.476,2.4775,2.4804,2.4804,2.4869,2.4974,2.516,2.5255,2.5305,0.0,0.0,2.6462,2.5718,0.0,0.0,0.0,0.0,0.0,0.0,0.0,0.0,2.5473,2.5479,2.5498,2.5508,0.0,0.0,0.0,0.0,0.0,2.5683,2.5703,2.5703,2.5703,2.5703,2.5703,2.5703,0.0,0.0,0.0,0.0,0.0,0.0,3.0912,3.1325,0.0,3.3558,3.4803,3.5437,3.4834,3.4002,3.3114,3.2252,3.1409,3.0664,3.0559,3.0156,2.9311,2.9294,2.8916,2.797,2.7459,2.7006,2.6621,2.6005,2.554,2.5256,2.5122,2.5034,2.501,2.4877,2.4832,2.479,2.4623,2.4561,2.4545,2.4357,2.4266,2.4247,2.419,2.4152,2.4094,2.3735,2.3437,2.3165,2.2873,2.2616,2.236,0.0,0.0,0.0,0.0,0.0,0.0,0.0,0.0,0.0,0.0,0.0,0.0,0.0,0.0,0.0,0.0,0.0,0.0,0.0,0.0,2.5683,2.5683,2.5318,2.5011,2.479,2.479,2.486,2.503,2.503,2.5071,2.5177,2.5177,2.5204,2.5274,2.5379,2.5421,2.544,2.544,2.5696,2.6058,0.0,0.0,0.0,0.0,0.0,0.0,0.0,0.0,0.0,0.0,2.5554,2.5558,2.5601,0.0,0.0,0.0,0.0,0.0,2.5683,2.5703,2.5703,2.5703,2.5703,2.582,2.6309,0.0,0.0,0.0,0.0,0.0,0.0,0.0,3.2523,3.3697,3.4627,3.5145,3.4967,3.4287,3.3465,3.254,3.1678,3.0975,3.0528,3.0462,2.9892,2.8608,2.8876,2.8332,2.6601,2.7005,2.6871,2.5928,2.5967,2.5725,2.5163,2.4981,2.4836,2.4737,2.4666,2.4575,2.4478,2.4375,2.4339,2.4321,2.4037,2.4016,2.417,2.3816,2.3671,2.3628,2.33,2.2965,2.2712,2.2527,2.2243,2.1899,0.0,0.0,0.0,0.0,0.0,0.0,0.0,0.0,0.0,0.0,0.0,0.0,0.0,0.0,0.0,0.0,0.0,0.0,0.0,0.0,2.5913,2.5732,2.5719,2.5449,2.496,2.4962,2.5062,2.5266,2.5266,2.5356,2.5493,2.5493,2.5493,2.5493,2.5493,2.5517,2.5511,2.5511,2.5656,2.5823,0.0,0.0,0.0,0.0,0.0,0.0,0.0,0.0,0.0,0.0,0.0,0.0,0.0,0.0,0.0,2.5682,2.5661,2.5659,2.5659,2.5659,2.566,2.5662,2.5683,2.5937,2.6797,0.0,0.0,0.0,0.0,0.0,0.0,3.1895,3.3344,3.4739,3.5195,3.518,3.4649,3.3916,3.3098,3.2164,3.1304,3.0684,3.041,3.0217,2.9486,2.8005,2.8275,2.7563,2.5418,2.6563,2.6754,2.5578,2.5973,2.5959,2.5401,2.495,2.467,2.4559,2.4478,2.4339,2.4208,2.4113,2.4074,2.4074,2.3714,2.3714,2.3917,2.3414,2.3189,2.3165,2.2923,2.2625,2.2405,2.2525,2.2329,2.1999,0.0,0.0,0.0,0.0,0.0,0.0,0.0,0.0,0.0,0.0,0.0,0.0,0.0,0.0,0.0,0.0,0.0,0.0,0.0,0.0,2.7491,2.6737,2.663,2.6205,2.5383,2.5408,2.5454,2.5484,2.5484,2.5489,2.5493,2.5493,2.5493,2.5493,2.5493,2.552,2.5598,2.5598,2.6101,2.6816,2.6015,0.0,0.0,0.0,0.0,0.0,0.0,0.0,0.0,0.0,0.0,0.0,0.0,0.0,2.5605,2.5605,2.5561,2.5503,2.5503,2.5503,2.5535,2.5598,2.5659,0.0,2.6797,2.7051,0.0,2.9258,0.0,0.0,0.0,3.1408,3.2279,3.3218,3.3943,3.4649,3.5322,3.4668,3.3795,3.2935,3.2115,3.1287,3.0487,2.9679,2.8832,2.7967,2.7198,2.6351,2.5341,2.5418,2.5721,2.6206,2.5507,2.5294,2.5665,2.4901,2.4607,2.4775,2.441,2.4209,2.419,2.3876,2.3753,2.3714,2.3392,2.3236,2.3259,2.3212,2.3189,2.3189,2.3165,2.2972,2.2721,2.3153,2.3308,2.3363,0.0,0.0,0.0,0.0,0.0,0.0,0.0,0.0,0.0,0.0,0.0,0.0,0.0,0.0,0.0,0.0,0.0,0.0,0.0,2.6306,2.6302,2.6,2.6015,2.5835,2.5476,2.5525,2.5573,2.5611,2.5611,2.5904,2.6433,2.6433,2.6433,2.6433,2.6433,2.6143,2.57,2.6247,2.6679,2.6973,2.6641,2.6719,0.0,0.0,0.0,0.0,0.0,0.0,0.0,0.0,2.5703,2.5683,2.5658,2.5629,2.5598,2.5551,2.5526,2.5493,2.5493,2.5539,2.5564,2.5598,0.0,0.0,0.0,0.0,2.8144,2.9355,3.0039,0.0,0.0,3.2064,3.2638,3.3014,3.374,3.4147,3.391,3.3179,3.2526,3.2199,3.0929,2.9948,2.9621,2.8832,2.8217,2.7909,2.6987,2.6278,2.5941,2.5323,2.512,2.5362,2.5053,2.4965,2.5139,2.4711,2.4545,2.4607,2.4321,2.419,2.4208,2.4074,2.4016,2.3996,2.3671,2.3522,2.3482,2.33,2.3069,2.2925,2.3214,2.3532,2.3835,2.4011,2.3696,2.326,0.0,0.0,0.0,0.0,0.0,0.0,0.0,0.0,0.0,0.0,0.0,0.0,0.0,0.0,0.0,0.0,0.0,0.0,2.5564,2.5752,2.5761,2.5517,2.5796,2.5815,2.5519,2.5546,2.5605,2.5662,2.5658,2.5948,2.6534,2.6806,2.6786,2.6534,2.6806,2.6454,2.5675,2.626,2.6534,2.6534,2.6534,2.6534,0.0,0.0,0.0,0.0,0.0,0.0,0.0,0.0,2.5636,2.5633,2.5573,2.5554,2.5535,2.5473,2.5477,2.5477,2.5477,2.5526,2.5567,0.0,0.0,0.0,0.0,0.0,2.8555,2.9414,3.0293,3.1033,3.1496,0.0,3.2578,3.2629,3.3277,3.3583,3.2987,3.2218,3.1602,3.1314,2.9987,2.8986,2.8736,2.7967,2.7456,2.7412,2.6465,2.5882,2.5831,2.5177,2.4888,2.5076,2.4832,2.4801,2.5,2.4608,2.441,2.441,2.4153,2.4094,2.419,2.3976,2.3896,2.3876,2.345,2.3265,2.3224,2.3007,2.2781,2.2632,2.3158,2.3697,2.4218,2.4661,2.4446,2.3893,0.0,0.0,0.0,0.0,0.0,0.0,0.0,0.0,0.0,0.0,0.0,0.0,0.0,0.0,0.0,0.0,0.0,0.0,2.5508,2.6243,2.6333,2.5527,2.6262,2.6313,2.5527,2.5508,2.5539,2.5601,2.5539,2.5493,2.5532,2.6393,2.634,2.5547,2.6412,2.632,2.5493,2.5513,2.5513,2.5513,2.5513,2.5513,2.5513,0.0,0.0,0.0,0.0,0.0,0.0,0.0,2.5493,2.5493,2.5489,2.544,2.5413,2.5398,2.5406,2.5413,2.5398,2.5453,2.5526,0.0,0.0,0.0,2.6777,2.7656,2.8535,2.9414,3.0273,3.0839,3.0721,3.1349,3.1851,3.1794,3.2408,3.2872,3.2872,3.2179,3.1352,3.0475,2.9602,2.8756,2.7948,2.7101,2.6499,2.6308,2.5487,2.4937,2.4823,2.479,2.5061,2.5669,2.4906,2.4781,2.5384,2.4593,2.419,2.419,2.3876,2.3858,2.417,2.3482,2.3189,2.3183,2.2571,2.231,2.231,2.231,2.231,2.2395,2.3105,2.341,2.3596,2.5067,2.5609,2.5645,0.0,0.0,0.0,0.0,0.0,0.0,0.0,0.0,0.0,0.0,0.0,0.0,0.0,0.0,0.0,0.0,0.0,0.0,2.5441,2.5653,2.5691,2.5441,2.5692,2.5718,2.5434,2.6022,2.6087,2.5535,2.5517,2.5805,2.6413,2.668,2.6661,2.6432,2.668,2.633,2.5532,2.616,2.6413,2.6413,2.6413,2.6413,2.6354,0.0,0.0,0.0,0.0,0.0,0.0,0.0,0.0,0.0,2.5434,2.5408,2.5391,2.5348,2.5363,2.5398,2.5398,2.5488,0.0,2.5598,0.0,0.0,0.0,2.6758,0.0,0.0,2.8754,2.8564,3.0362,3.0775,3.0839,3.0877,3.1551,3.1621,3.039,3.0025,2.9563,2.8736,2.7871,2.7255,2.7005,2.6197,2.5866,2.627,2.5411,2.503,2.541,2.4759,2.445,2.4635,2.4413,2.4358,2.4538,2.4318,2.4074,2.3855,2.3753,2.3735,2.3837,2.3392,2.3189,2.3189,2.3014,2.2807,2.2563,2.2388,2.2615,2.3105,2.3308,2.4036,2.5,2.5439,2.5163,2.4674,0.0,0.0,0.0,0.0,0.0,0.0,0.0,0.0,0.0,0.0,2.4943,0.0,0.0,0.0,0.0,0.0,0.0,0.0,0.0,2.5168,2.5168,2.5157,2.5196,2.5206,2.5168,2.6288,2.6504,2.5706,2.5855,2.6209,2.672,2.672,2.6533,2.6223,2.6572,2.6236,2.5453,2.5984,2.6204,2.6204,2.6204,2.6204,2.6184,0.0,0.0,0.0,0.0,0.0,0.0,0.0,0.0,0.0,2.5368,2.5595,2.5818,2.5444,2.5627,2.5887,2.5574,2.5554,0.0,2.5636,2.5662,2.5781,2.6133,0.0,0.0,0.0,2.8164,2.7827,2.9379,2.9555,2.9448,2.9458,2.9869,2.9813,2.8775,2.8621,2.8313,2.7486,2.6928,2.6427,2.6009,2.548,2.5294,2.5556,2.5009,2.4797,2.5096,2.4524,2.419,2.419,2.419,2.419,2.419,2.419,2.4016,2.3692,2.3566,2.3414,2.33,2.3093,2.2996,2.2996,2.2883,2.2747,2.251,2.2158,2.2283,2.2701,2.2834,2.3602,2.463,2.4962,2.4863,2.4575,0.0,0.0,2.4986,2.4986,0.0,0.0,0.0,0.0,0.0,0.0,2.4949,2.4998,0.0,0.0,0.0,0.0,0.0,0.0,2.4804,2.4804,2.4804,2.4804,2.4879,2.4993,2.5125,2.655,2.6949,2.623,2.6472,2.6581,2.6581,2.6514,2.6053,2.5312,2.611,2.6023,2.5253,2.5264,2.5264,2.5253,2.5253,2.5264,2.537,2.6158,0.0,0.0,0.0,0.0,0.0,0.0,0.0,0.0,2.5534,2.6082,2.6583,2.5851,2.6198,2.6641,2.5921,2.5716,0.0,2.5703,2.5762,0.0,2.6914,2.7109,2.7324,2.8125,2.8175,2.8086,2.8096,2.7964,2.7881,2.7892,2.789,2.7871,2.7794,2.7775,2.7467,2.6582,2.6476,2.6077,2.5099,2.4998,2.4845,2.451,2.4495,2.441,2.4209,2.419,2.419,2.419,2.419,2.419,2.4151,2.4151,2.3976,2.3628,2.33,2.2972,2.2643,2.2643,2.2643,2.266,2.2415,2.231,2.2282,2.1823,2.1658,2.1694,2.194,2.2469,2.3157,2.3783,2.4388,2.47,0.0,0.0,2.4842,2.4842,0.0,0.0,0.0,0.0,0.0,0.0,0.0,0.0,0.0,0.0,0.0,0.0,0.0,0.0,2.4804,2.4804,2.4804,2.4804,2.5397,2.634,2.7603,2.7945,2.8075,2.7956,2.6896,2.6358,2.6339,2.5828,2.5405,2.5077,2.5435,2.5321,2.491,2.5018,2.5005,2.4915,2.4915,2.4975,2.5077,2.5268,2.5431,0.0,0.0,0.0,0.0,0.0,0.0,0.0,2.7332,2.7467,2.7594,2.7473,2.7136,2.6778,2.6646,2.6166,0.0,0.0,2.6211,2.6953,2.7812,2.7983,2.7991,2.819,2.7618,2.7289,2.7905,2.7409,2.7123,2.7785,2.789,2.7659,2.6986,2.689,2.6563,2.5668,2.545,2.5256,2.501,2.4904,2.4741,2.4528,2.4495,2.441,2.4209,2.419,2.419,2.419,2.419,2.4074,2.3816,2.3816,2.3522,2.2923,2.2848,2.2652,2.2388,2.2388,2.2388,2.2388,2.2338,2.231,2.2282,2.218,2.2135,2.2123,2.1823,2.2146,2.2769,2.2618,2.2452,2.2316,0.0,0.0,0.0,0.0,0.0,0.0,0.0,0.0,0.0,0.0,0.0,0.0,0.0,0.0,0.0,0.0,2.4512,2.4512,2.4512,2.4512,2.4512,2.4512,2.565,2.6507,2.6953,2.8109,2.8332,2.7587,2.6921,2.6443,2.6143,2.54,2.5,2.4904,2.5012,2.4949,2.4804,2.4864,2.485,2.4804,2.4804,2.4842,2.4955,2.5431,2.5688,2.5852,2.6408,0.0,0.0,0.0,0.0,0.0,0.0,0.0,2.8326,2.758,2.7401,2.7356,2.6991,0.0,0.0,2.6211,0.0,2.7832,2.8687,2.8852,2.8808,2.87,2.7646,2.6748,2.6757,2.6322,2.614,2.6582,2.6659,2.6505,2.6043,2.5896,2.568,2.5209,2.5005,2.4877,2.4762,2.4697,2.4559,2.4375,2.4357,2.4321,2.4227,2.419,2.4132,2.3976,2.3976,2.3795,2.3459,2.3459,2.3189,2.2695,2.2695,2.2563,2.231,2.231,2.231,2.231,2.231,2.231,2.2282,2.2061,2.184,2.1615,2.1165,2.1308,2.1724,2.1494,2.1491,2.1613,0.0,0.0,0.0,0.0,0.0,0.0,0.0,0.0,0.0,0.0,0.0,0.0,0.0,0.0,2.4284,0.0,0.0,0.0,2.4016,2.4016,2.4109,2.4295,2.5743,2.6295,2.5825,2.7915,2.8227,2.6612,2.6762,2.645,2.5678,2.5077,2.479,2.4746,2.479,2.476,2.47,2.4731,2.4731,2.47,2.47,2.4716,2.485,2.5668,2.6028,2.6129,2.6431,2.6561,2.6505,2.5947,0.0,0.0,0.0,0.0,2.8846,2.7558,2.7602,2.7998,2.7504,0.0,2.6328,2.7031,2.785,0.0,2.95,2.9679,2.9591,2.9261,2.8001,2.6657,2.577,2.5436,2.5303,2.5303,2.5303,2.5303,2.5253,2.5099,2.4998,2.4974,2.4842,2.4685,2.4528,2.4461,2.4375,2.4209,2.419,2.417,2.4132,2.4113,2.3976,2.361,2.361,2.3437,2.3117,2.3117,2.2947,2.2634,2.2634,2.2527,2.231,2.231,2.231,2.231,2.231,2.231,2.2282,2.1899,2.1477,2.1055,2.0583,2.0527,2.064,2.0528,2.0887,2.1276,0.0,0.0,0.0,0.0,0.0,0.0,0.0,0.0,0.0,0.0,2.3548,2.3486,0.0,2.3552,2.3356,2.3356,2.3351,2.3346,2.3346,0.0,0.0,2.4747,2.5697,2.6572,2.7457,2.8484,2.8227,2.6612,2.6615,0.0,0.0,0.0,0.0,2.4561,2.4716,2.4607,2.4284,2.4461,2.4426,2.4284,2.4284,2.4393,2.4545,2.469,2.4922,2.5278,2.6065,2.6454,2.6697,2.7332,2.7621,0.0,0.0,0.0,2.9079,2.9052,2.8585,2.8262,2.9036,0.0,2.7968,0.0,2.8708,2.9539,0.0,0.0,3.0145,2.9364,2.8473,2.7531,2.6612,2.5823,2.5303,2.5303,2.5303,2.5253,2.5057,2.5022,2.4949,2.4842,2.4654,2.4528,2.4512,2.4339,2.4228,2.419,2.419,2.4074,2.3795,2.3774,2.361,2.3277,2.3277,2.3117,2.2772,2.2772,2.2625,2.2332,2.2332,2.2321,2.231,2.231,2.231,2.231,2.231,2.231,2.2282,2.2237,2.1945,2.1491,2.1086,2.0679,2.0331,1.9954,1.9884,1.9944,0.0,0.0,0.0,0.0,0.0,0.0,0.0,0.0,0.0,0.0,0.0,2.3277,2.3392,2.33,2.3189,2.3189,2.3189,2.3189,2.3189,2.3189,2.3614,2.451,2.5343,2.5989,2.6495,2.7477,2.7227,2.5645,0.0,0.0,0.0,2.4375,2.4428,0.0,0.0,2.4357,2.4227,2.4284,2.4284,2.419,2.419,2.4321,2.4512,2.4623,2.4809,2.5061,2.5551,2.58,2.5928,2.6313,2.7082,2.7736,2.6755,0.0,0.0,0.0,2.8402,2.8142,2.8105,2.8157,2.8229,0.0,2.8801,2.9645,3.0379,3.0513,3.0384,2.996,2.883,2.7682,2.6765,2.589,2.5303,2.5303,2.5303,2.5224,2.5022,2.4943,2.4823,2.4654,2.4444,2.4321,2.4321,2.4266,2.419,2.419,2.4016,2.3876,2.3714,2.3522,2.3277,2.2923,2.2923,2.2789,2.249,2.249,2.2426,2.231,2.231,2.231,2.231,2.231,2.231,2.231,2.231,2.231,2.2282,2.2032,2.1794,2.1521,2.0878,2.0483,2.0246,1.9839,1.969,1.969,0.0,0.0,0.0,0.0,0.0,0.0,0.0,0.0,0.0,0.0,0.0,2.2989,2.3069,0.0,0.0,0.0,2.2965,2.2965,2.2965,2.2965,2.3252,2.3864,2.4866,2.5367,2.5351,2.6566,2.6477,2.5012,0.0,0.0,2.419,2.419,2.419,0.0,2.419,2.419,0.0,0.0,0.0,2.419,2.4266,2.4357,2.4528,2.4731,2.4877,2.5041,2.5412,2.559,0.0,0.0,2.6678,2.7362,2.6054,2.6996,0.0,0.0,0.0,0.0,0.0,0.0,2.8775,2.8481,2.9051,2.9816,0.0,3.0472,3.0462,3.0414,2.9236,2.7918,2.702,2.5994,2.5274,2.5224,2.5224,2.5141,2.4911,2.4799,2.4654,2.4444,2.4284,2.419,2.419,2.419,2.417,2.4074,2.3837,2.3628,2.3437,2.3212,2.2923,2.2599,2.2599,2.25,2.231,2.231,2.231,2.231,2.231,2.231,2.2282,2.218,2.2106,2.2106,2.2106,2.2106,2.2077,2.1628,2.1368,2.1197,2.0534,2.0246,2.0124,1.9803,1.969,1.969,0.0,0.0,0.0,0.0,0.0,0.0,0.0,0.0,0.0,0.0,0.0,2.2453,2.2695,2.2517,2.2349,2.2349,2.2349,2.2349,2.2349,2.2349,2.2497,2.2773,2.4301,0.0,2.4933,2.6411,2.6613,0.0,0.0,0.0,2.419,2.419,2.419,2.419,2.419,2.419,2.419,0.0,0.0,0.0,0.0,0.0,0.0,0.0,2.4877,2.5106,2.5945,0.0,0.0,0.0,0.0,2.666,2.6635,2.6726,2.7004,0.0,0.0,0.0,0.0,2.9368,0.0,2.9469,2.9853,3.0442,3.0417,3.0421,3.039,3.041,2.9679,2.8722,2.7733,2.6312,2.5243,2.5046,2.5022,2.4911,2.4575,2.4528,2.4426,2.4247,2.4209,2.419,2.419,2.419,2.4074,2.3753,2.3714,2.3414,2.2797,2.2746,2.2599,2.2321,2.2321,2.2293,2.231,2.231,2.231,2.231,2.231,2.231,2.2282,2.1823,2.1658,2.1658,2.1658,2.1658,2.1582,2.1213,2.0748,2.0366,2.0314,2.007,1.9726,1.9726,1.969,1.969,0.0,0.0,0.0,0.0,0.0,0.0,0.0,0.0,0.0,0.0,0.0,0.0,0.0,2.2377,2.231,2.231,2.231,2.231,2.231,2.231,2.2553,2.3119,2.4154,2.4682,2.4629,2.5417,0.0,0.0,0.0,2.3941,2.3876,2.3876,2.3996,2.419,2.419,2.419,2.419,2.419,0.0,0.0,0.0,0.0,0.0,0.0,0.0,0.0,0.0,0.0,0.0,0.0,0.0,0.0,0.0,0.0,0.0,0.0,0.0,0.0,0.0,0.0,0.0,2.9298,2.9004,2.9109,3.0171,2.9967,2.9717,3.0294,2.9186,2.8026,2.7669,2.6701,2.5703,2.4985,2.4864,2.4766,2.4545,2.4495,2.4428,2.4228,2.419,2.419,2.419,2.3996,2.3816,2.3714,2.33,2.2947,2.2721,2.2537,2.2415,2.231,2.231,2.231,2.231,2.231,2.231,2.231,2.231,2.231,2.2282,2.2135,2.2032,2.2003,2.1446,2.1213,2.1181,2.0715,2.0616,2.0682,2.0139,2.0,2.0054,1.9782,1.969,1.969,0.0,0.0,0.0,0.0,0.0,0.0,0.0,0.0,0.0,0.0,0.0,0.0,0.0,0.0,2.231,2.231,2.231,2.231,2.231,2.231,2.253,2.3004,2.3951,2.4509,2.4483,2.481,0.0,0.0,0.0,0.0,0.0,2.3816,2.3996,2.419,2.419,2.419,0.0,0.0,0.0,2.4228,0.0,0.0,2.4832,0.0,0.0,0.0,0.0,0.0,0.0,0.0,0.0,0.0,0.0,0.0,0.0,0.0,0.0,0.0,2.9866,0.0,0.0,0.0,2.8934,2.889,2.9448,2.9544,2.961,2.9819,2.8868,2.7864,2.7433,2.6664,2.5788,2.4862,2.47,2.4623,2.4445,2.441,2.4321,2.4056,2.4016,2.3996,2.3876,2.3671,2.35,2.3369,2.2947,2.266,2.2563,2.2415,2.231,2.231,2.231,2.231,2.231,2.231,2.231,2.231,2.231,2.231,2.2282,2.1991,2.184,2.1827,2.0926,2.0731,2.0959,2.0364,2.0261,2.0514,1.9925,1.9874,2.007,1.9818,1.969,1.969,0.0,0.0,0.0,0.0,0.0,0.0,0.0,0.0,0.0,2.231,0.0,0.0,0.0,0.0,0.0,2.231,2.231,2.231,2.231,2.231,2.231,2.231,2.3727,2.4488,2.4428,0.0,0.0,0.0,0.0,0.0,0.0,0.0,2.419,2.419,2.419,2.419,2.419,0.0,2.419,2.4247,0.0,2.4842,2.4884,0.0,0.0,0.0,2.7601,2.8464,0.0,3.0169,0.0,0.0,0.0,0.0,0.0,0.0,0.0,0.0,0.0,0.0,0.0,2.9433,2.9795,2.9948,2.8332,2.9217,3.0061,2.9025,2.8769,2.8365,2.7118,2.6207,2.5405,2.4625,2.4495,2.4409,2.4228,2.419,2.4074,2.3735,2.3692,2.3566,2.3212,2.3189,2.3045,2.2721,2.2695,2.2573,2.2293,2.231,2.231,2.231,2.231,2.231,2.231,2.231,2.231,2.231,2.231,2.2282,2.2254,2.1385,2.0991,2.0959,2.0085,2.0208,2.0894,2.005,1.969,1.969,1.969,1.969,1.969,1.969,1.969,1.969,0.0,0.0,0.0,0.0,0.0,0.0,2.231,2.231,2.231,0.0,0.0,0.0,2.231,2.231,2.231,2.231,2.231,2.231,2.231,2.231,2.231,2.231,2.4002,2.493,2.4898,0.0,0.0,2.6267,2.4878,2.4336,2.4559,2.4067,2.3976,2.419,2.419,2.419,2.419,2.419,0.0,2.4302,2.5258,2.5672,2.5773,2.678,2.7332,2.7563,2.7813,2.8464,2.9248,2.9481,2.9745,2.9826,0.0,0.0,0.0,0.0,0.0,0.0,3.0076,0.0,0.0,0.0,0.0,0.0,2.9679,2.9468,2.9167,2.8859,2.807,2.7131,2.6205,2.5263,2.4543,2.4321,2.4284,2.4247,2.4209,2.3996,2.3795,2.3714,2.35,2.33,2.3212,2.2972,2.2797,2.2721,2.2527,2.2388,2.231,2.231,2.231,2.231,2.231,2.231,2.231,2.231,2.231,2.231,2.231,2.2106,2.1794,2.1538,2.1275,2.0959,2.0398,2.0246,2.0449,1.9909,1.969,1.969,1.969,1.969,1.969,1.969,1.969,1.969,0.0,0.0,2.231,2.231,0.0,2.231,2.231,2.231,2.231,0.0,0.0,0.0,2.231,2.231,2.231,2.231,2.231,2.2349,2.2463,2.2463,2.2544,2.266,2.4015,2.5015,2.5517,2.6003,2.6499,2.6994,2.5403,2.4866,2.5375,2.4381,2.4198,2.4685,2.4685,2.4685,2.4685,0.0,0.0,0.0,2.5501,2.5993,2.6132,2.7405,2.8102,2.839,2.839,2.9004,2.9776,2.9776,3.0234,0.0,0.0,0.0,0.0,0.0,0.0,0.0,0.0,0.0,0.0,0.0,0.0,0.0,2.8828,2.874,2.8555,2.7706,2.6921,2.6227,2.569,2.4819,2.419,2.419,2.4074,2.4036,2.417,2.3917,2.3649,2.3522,2.3189,2.2965,2.2849,2.2643,2.2537,2.2537,2.2388,2.231,2.231,2.231,2.231,2.231,2.231,2.231,2.231,2.231,2.231,2.231,2.231,2.2163,2.1899,2.1688,2.146,2.1213,2.0583,2.0314,2.028,1.9874,1.969,1.969,1.969,1.969,1.969,1.969,1.969,1.969,0.0,0.0,2.231,2.231,2.231,2.231,2.231,2.231,2.231,0.0,2.231,2.231,2.231,2.231,2.231,2.231,2.231,2.2398,2.2669,2.2695,2.2848,2.3189,2.395,2.4866,2.5935,2.5815,2.6269,2.7369,2.5909,2.5547,2.6131,2.4915,2.4667,2.5274,2.5366,2.5348,2.5274,2.5366,0.0,2.4469,2.5649,2.6201,2.6416,2.7692,2.8621,2.9236,2.9236,2.9842,3.0606,3.0623,3.0752,3.0742,0.0,0.0,0.0,0.0,2.8568,0.0,0.0,0.0,0.0,0.0,2.9071,0.0,2.7345,2.7902,2.8339,2.6485,2.6097,2.595,2.559,2.4942,2.4464,2.4516,2.4133,2.3904,2.4112,2.3816,2.3477,2.3165,2.2848,2.2563,2.2321,2.231,2.231,2.231,2.231,2.231,2.231,2.231,2.231,2.231,2.231,2.231,2.231,2.231,2.231,2.231,2.231,2.2282,2.2209,2.1794,2.1552,2.1413,2.0634,2.028,2.0227,1.9839,1.969,1.969,1.969,1.969,1.969,1.969,1.969,1.969,2.231,2.231,2.231,2.231,2.231,2.231,2.231,2.231,2.231,2.231,2.231,2.231,2.231,2.231,2.231,2.231,2.231,2.2398,2.2669,2.2695,2.2848,2.3189,2.4206,2.4887,2.5118,2.659,2.747,2.7702,2.7391,2.6966,2.6472,2.5583,0.0,0.0,2.5127,2.5054,2.4483,2.5146,2.5411,2.5501,2.661,2.7425,2.8153,2.9423,3.0006,3.016,3.016,3.0336,3.0623,3.0784,3.0878,3.0742,2.9812,2.9023,0.0,2.8314,0.0,0.0,0.0,0.0,0.0,0.0,2.8502,0.0,2.998,2.9784,2.9176,2.8762,2.8503,2.7945,2.6594,2.6245,2.6213,2.6483,2.5479,2.4454,2.3886,2.3277,2.2873,2.2822,2.2554,2.2377,2.231,2.231,2.231,2.231,2.231,2.231,2.231,2.231,2.231,2.231,2.231,2.231,2.231,2.231,2.231,2.231,2.231,2.2106,2.1718,2.1658,2.1228,2.0534,2.0382,2.0124,1.9803,1.9711,1.969,1.969,1.969,1.969,1.969,1.969,1.969,1.969,2.231,2.231,2.231,2.231,2.231,2.231,2.231,2.231,2.231,2.231,2.231,2.231,2.231,2.231,2.231,2.231,2.2426,2.2643,2.2923,2.3488,2.3756,2.371,2.4638,2.5339,2.5739,2.6713,2.7585,2.8411,2.7989,2.7805,2.7787,0.0,0.0,0.0,2.5985,2.5708,2.4986,2.5819,2.6432,2.6915,2.7191,2.7843,2.8764,2.996,3.0398,3.039,3.043,3.0537,3.0689,3.0836,3.0858,3.0714,3.025,2.9457,2.8688,2.8613,2.7359,2.6187,0.0,0.0,2.6773,2.7512,2.7956,0.0,0.0,2.927,2.913,2.8188,2.8519,2.8627,2.742,2.7031,2.6962,2.7114,2.5604,2.4385,2.435,2.3737,2.3301,2.3301,2.3369,2.3241,2.2885,2.2852,2.2699,2.2344,2.231,2.231,2.231,2.231,2.231,2.231,2.231,2.231,2.231,2.231,2.231,2.231,2.231,2.218,2.1928,2.1718,2.1352,2.0927,2.0483,2.0193,2.0,1.9782,1.969,1.969,1.969,1.969,1.969,1.969,1.969,1.969,2.231,2.231,2.231,2.231,2.231,2.231,2.231,2.231,2.231,2.231,2.2349,2.2388,2.2388,0.0,0.0,0.0,2.2678,2.3,2.3513,2.4387,2.4762,2.4447,2.5199,2.5786,2.6135,2.6594,2.7402,2.8535,2.8209,2.8282,2.8741,0.0,0.0,0.0,0.0,0.0,0.0,0.0,0.0,2.8201,2.7765,2.816,2.9121,3.0042,3.0402,3.0439,3.0516,3.0617,3.0721,3.0858,3.0836,3.0721,3.0687,3.0014,2.9234,2.9184,2.7962,2.6601,2.6601,2.6446,2.6327,2.6485,2.7366,2.8108,0.0,0.0,0.0,2.7573,2.8338,2.8957,2.8086,2.7779,2.7605,2.7458,2.5807,2.4735,2.5235,2.4683,2.4167,2.4012,2.4045,2.3883,2.3427,2.3528,2.3241,2.2378,2.2564,2.2598,2.2327,2.231,2.231,2.231,2.231,2.231,2.231,2.231,2.231,2.231,2.2209,2.218,2.2135,2.1705,2.143,2.1321,2.0616,2.0246,2.0158,1.9839,1.969,1.969,1.969,1.969,1.969,1.969,1.969,1.969,2.231,2.231,2.231,2.231,2.231,2.231,2.231,2.231,2.231,2.231,2.25,2.2643,0.0,0.0,0.0,0.0,0.0,2.3602,2.4635,2.4825,2.4998,2.5254,2.6025,2.5841,2.4502,2.6557,2.7402,2.6869,2.8227,2.8558,2.7934,0.0,0.0,0.0,2.7662,0.0,0.0,0.0,2.8468,2.8708,2.866,2.9117,2.9894,3.026,3.043,3.0507,3.0624,3.0687,3.0721,3.0858,3.0898,3.0857,3.0676,3.0047,2.9344,2.9168,2.792,2.6601,2.6601,2.5921,2.5519,2.6988,2.6692,2.6785,2.9543,0.0,2.9187,2.9696,0.0,2.971,2.854,0.0,0.0,2.839,2.749,2.6816,2.6553,2.5876,2.5164,2.4516,2.3321,2.2784,2.3342,2.3985,2.3799,2.2412,2.3511,2.3663,2.2378,2.231,2.231,2.231,2.231,2.231,2.231,2.231,2.231,2.2282,2.1899,2.1688,2.1658,2.1244,2.0846,2.0434,2.0348,2.0089,1.9747,1.9711,1.969,1.969,1.969,1.969,1.969,1.969,1.969,1.969,2.231,2.231,2.231,2.231,2.231,2.231,2.231,2.231,2.231,2.231,2.2537,2.2894,0.0,0.0,0.0,0.0,0.0,2.5098,2.5574,2.6222,0.0,2.6117,2.6869,2.6979,2.63,2.7273,2.786,2.8007,2.8805,2.9058,2.8727,0.0,0.0,0.0,2.8364,0.0,2.7528,0.0,2.8717,2.8853,2.9385,2.9874,3.0301,3.0413,3.0521,3.0614,3.0684,3.0745,3.0818,3.0797,3.076,3.0708,3.0568,3.0272,2.996,2.9886,2.9006,2.7948,2.7486,2.6581,2.5888,2.6489,2.651,2.6841,2.8574,2.9347,2.9659,2.9549,0.0,0.0,0.0,0.0,0.0,0.0,2.7252,2.6379,2.6657,2.5693,2.5,2.5118,2.5355,2.5287,2.4729,2.4171,2.3427,2.2395,2.3274,2.3393,2.2361,2.231,2.231,2.231,2.231,2.231,2.231,2.231,2.2163,2.1899,2.1688,2.1491,2.1244,2.0781,2.0483,2.028,2.0054,1.9839,1.969,1.969,1.969,1.969,1.969,1.969,1.969,1.969,1.969,1.969,2.231,0.0,0.0,0.0,0.0,2.231,2.231,2.2479,2.2558,2.2449,2.3058,0.0,2.4198,2.4711,0.0,0.0,2.6103,2.6345,2.6545,2.7328,2.753,2.6961,2.7695,0.0,2.7475,2.7897,2.8319,2.8686,2.9156,2.9412,0.0,0.0,0.0,0.0,0.0,2.8861,2.8425,0.0,2.9282,2.9352,3.0036,3.0412,3.0547,3.0547,3.0623,3.0696,3.0745,3.0816,3.0879,3.0745,3.0673,3.0617,3.0529,3.0472,3.0417,3.0421,2.974,2.8833,2.8046,2.7001,2.6143,2.622,2.6524,2.7059,2.7923,2.8851,2.9415,2.8936,2.9414,0.0,0.0,0.0,2.8377,2.8073,0.0,2.6319,2.664,2.5947,2.5592,2.615,2.7165,2.7317,2.6031,2.5321,2.4374,2.3004,2.3765,2.3714,2.2378,2.231,2.231,2.231,2.231,2.231,2.231,2.231,2.2061,2.1582,2.1491,2.1213,2.0797,2.0364,2.0124,2.0124,1.9854,1.969,1.969,1.969,1.969,1.969,1.969,1.969,1.969,1.969,1.969,1.969,2.231,2.231,0.0,0.0,0.0,0.0,2.231,2.2919,2.3232,2.2816,2.4331,2.5273,0.0,0.0,0.0,0.0,0.0,2.6903,2.7695,2.7787,2.7787,2.775,0.0,2.8223,0.0,2.815,2.8594,2.7842,2.8878,0.0,0.0,0.0,0.0,0.0,2.9961,3.0126,3.0412,3.0432,3.0471,3.0535,3.0574,3.0624,3.069,3.069,3.0693,3.0718,3.0857,3.0898,3.0879,3.0745,3.0693,3.0677,3.0552,3.0498,3.0472,3.0425,2.9647,2.8635,2.7828,2.6688,2.591,2.6674,2.6723,2.7016,2.8613,2.8411,2.7972,2.8352,2.7843,2.7325,2.7365,2.7944,0.0,0.0,0.0,0.0,0.0,2.7283,2.7688,2.7722,2.7755,2.752,2.6742,2.796,2.7622,2.4659,2.5761,2.5338,2.2462,2.231,2.231,2.231,2.231,2.231,2.231,2.231,2.2061,2.1598,2.1213,2.0748,2.0314,1.9909,1.9711,1.9711,1.9726,1.969,1.969,1.969,1.969,1.969,1.969,1.969,1.969,1.969,1.969,1.969,0.0,0.0,0.0,0.0,0.0,0.0,2.3748,2.4201,2.4482,2.4334,2.5232,2.6051,2.6465,2.7027,2.7603,2.8132,2.8187,2.8301,2.8594,2.8594,2.8594,2.8594,2.8847,2.8832,0.0,0.0,2.9202,2.9064,0.0,0.0,0.0,0.0,0.0,0.0,0.0,3.004,0.0,0.0,0.0,3.0606,3.0657,3.0738,3.0817,3.0723,3.0767,3.0837,3.0879,3.0837,3.0745,3.0661,3.0592,3.0547,3.0462,3.0419,3.0439,3.0421,2.9628,2.863,2.7828,2.6666,2.576,2.6042,2.6354,2.6888,2.7952,2.7817,2.7652,2.8283,2.7406,2.669,2.7209,2.7306,0.0,0.0,0.0,0.0,0.0,2.7334,2.7789,2.7789,2.7385,2.7182,2.7418,2.7029,2.6116,2.4625,2.4509,2.3866,2.2395,2.231,2.231,2.231,2.231,2.231,2.231,2.231,2.2061,2.1598,2.1181,2.0764,2.028,1.9874,1.969,1.969,1.969,1.969,1.969,1.969,1.969,1.969,1.969,1.969,1.969,1.969,1.969,1.969,2.3641,0.0,0.0,0.0,0.0,2.4902,2.4902,2.5355,2.5637,2.5491,2.6322,2.7067,2.7445,2.7935,2.8448,2.8938,2.8994,2.8994,2.8994,2.8994,2.9044,2.9134,2.9156,2.9267,0.0,0.0,0.0,0.0,0.0,2.9999,0.0,0.0,0.0,0.0,0.0,3.0133,2.9729,3.0304,3.0594,3.0716,3.0743,3.0817,3.0898,3.0795,3.0817,3.0898,3.0898,3.0816,3.0651,3.0283,3.0314,3.0423,3.0051,3.016,3.034,3.0025,2.934,2.8436,2.7333,2.633,2.5597,2.5597,2.579,2.6279,2.7337,2.7109,2.6839,2.7487,2.6841,2.6187,2.6272,2.6516,0.0,0.0,0.0,0.0,0.0,2.7283,2.752,2.7755,2.7875,2.7892,2.7789,2.7689,2.6725,2.4675,2.4543,2.39,2.2395,2.231,2.231,2.231,2.231,2.231,2.231,2.231,2.2061,2.1582,2.1337,2.0991,2.055,2.0261,2.0085,1.9909,1.9909,1.9839,1.969,1.969,1.969,1.969,1.969,1.969,1.969,1.969,1.969,1.969,2.545,2.6321,2.6437,2.4946,2.5248,2.5709,2.5709,2.6384,2.672,2.6273,2.7507,2.8275,2.7912,2.8539,2.8994,2.8994,2.8994,2.8994,2.8994,2.9017,2.9134,2.9392,2.9412,2.9513,2.9713,0.0,0.0,0.0,0.0,0.0,0.0,0.0,0.0,0.0,3.0371,0.0,3.0547,3.0586,3.0719,3.0898,3.0898,3.0898,3.0898,3.0898,3.0898,3.0898,3.0898,3.0814,3.057,2.9679,2.9868,3.0278,2.9329,2.9602,3.011,2.9275,2.8725,2.8029,2.6427,2.5667,2.5348,2.5348,2.5124,2.5303,2.676,2.6244,2.5579,2.604,2.6031,2.5674,2.4737,2.5693,2.642,0.0,0.0,0.0,2.7672,2.7114,2.6911,2.7637,2.9025,2.9347,2.7924,2.9702,2.9144,2.4896,2.5812,2.5338,2.2462,2.2378,2.2395,2.231,2.231,2.231,2.231,2.231,2.2077,2.1628,2.1628,2.1399,2.1039,2.1007,2.0748,2.0314,2.0314,2.0054,1.969,1.969,1.969,1.969,1.969,1.969,1.969,1.969,1.969,1.969,2.5757,2.729,2.8488,2.8676,2.7949,2.7305,2.7305,2.7701,2.7939,2.7843,2.8403,2.8814,2.87,2.8865,2.8994,2.8994,2.8994,2.8994,2.8994,2.92,2.933,2.9392,2.9533,2.9731,2.9924,2.9924,3.0018,3.0215,0.0,0.0,3.0299,0.0,0.0,0.0,0.0,3.0183,2.9755,3.0408,3.0765,3.0898,3.0898,3.0898,3.0898,3.0898,3.0898,3.0898,3.0898,3.0784,3.0497,2.9683,2.9435,2.931,2.8469,2.8352,2.8464,2.8089,2.7352,2.651,2.5933,2.517,2.4502,2.4502,2.4902,2.5312,2.5452,2.5064,2.4812,2.5296,2.4694,2.4343,2.5184,2.5625,2.5998,0.0,0.0,0.0,2.6962,2.6353,2.6167,2.6894,2.686,2.7046,2.7722,2.7351,2.6556,2.5406,2.5152,2.4255,2.2412,2.3342,2.3427,2.2344,2.231,2.231,2.231,2.231,2.2237,2.2106,2.1764,2.1552,2.143,2.1134,2.0748,2.0314,2.0314,2.0054,1.969,1.969,1.969,1.969,1.969,1.969,1.969,1.969,1.969,1.969,2.8136,2.9015,2.9677,3.0118,2.9203,2.8486,2.8855,2.8775,2.8658,2.8658,2.8863,2.8994,2.8994,2.8994,2.8994,2.8994,2.8994,2.9044,2.9178,2.931,2.9493,2.9643,2.9763,2.9943,3.0163,3.0163,0.0,3.0398,0.0,0.0,3.0398,0.0,0.0,0.0,0.0,3.0295,2.9998,3.0548,3.0836,3.0898,3.0898,3.0898,0.0,3.0898,3.0898,3.0898,3.0837,3.0726,3.0405,2.9188,2.8932,2.889,2.7717,2.7582,2.7791,2.7198,2.655,2.5872,2.5342,2.469,2.419,2.419,2.4423,2.4641,2.4633,2.4417,2.4209,2.4322,2.4096,2.3934,2.412,2.4678,2.5355,2.6099,2.6488,2.659,2.6251,2.5862,2.5642,2.5727,2.5659,2.593,2.6776,2.6387,2.5947,2.5625,2.5507,2.4814,2.3342,2.4066,2.3816,2.2361,2.231,2.231,2.231,2.231,2.231,2.231,2.2032,2.1899,2.1899,2.1675,2.1306,2.0862,2.0682,2.0364,1.9945,1.9782,1.969,1.969,1.969,1.969,1.969,1.969,1.969,1.969,3.1237,3.0999,3.0558,3.065,2.994,2.9596,3.0265,2.9586,2.8994,2.8994,2.8902,2.8851,2.8851,2.8737,2.8718,2.881,2.8851,2.9001,2.9392,2.9414,2.9607,2.9984,3.0028,3.015,3.0379,3.0398,3.0456,3.0571,0.0,0.0,0.0,0.0,0.0,0.0,0.0,0.0,0.0,3.0857,3.0898,3.0898,3.0898,3.0898,3.0898,3.0898,3.0898,3.0839,3.0604,3.0481,3.0185,2.8551,2.8338,2.8506,2.6928,2.6937,2.7316,2.6378,2.5958,2.5615,2.4715,2.4321,2.419,2.419,2.3976,2.3829,2.4105,2.3972,2.3715,2.3328,2.3765,2.3849,2.2665,2.3562,2.4729,2.549,2.6133,2.6302,2.5558,2.5456,2.5253,2.4726,2.4949,0.0,2.571,2.6234,2.6336,2.5795,2.6437,2.615,2.4591,2.4763,2.412,2.2361,2.2395,2.2412,2.231,2.231,2.231,2.231,2.231,2.231,2.231,2.2237,2.1974,2.1491,2.1086,2.0665,2.0177,1.9839,1.969,1.969,1.969,1.969,1.969,1.969,1.969,1.969,3.2082,3.2284,3.2394,3.3054,3.2133,3.1283,3.1195,2.9953,2.8994,2.8994,2.8429,2.8007,2.8007,2.742,2.7291,2.7952,2.8007,2.8415,2.9336,2.957,2.9746,2.9999,3.0209,3.0355,3.0398,3.0398,3.0756,3.1468,3.1468,0.0,0.0,0.0,0.0,0.0,0.0,0.0,3.0878,3.0898,3.0898,3.0898,3.0898,3.0898,3.0898,3.0898,3.0836,3.064,2.9892,2.961,2.9452,2.8357,2.7565,2.6871,2.5851,2.5529,2.5461,2.5148,2.4922,2.4679,2.434,2.4228,2.419,2.419,2.4151,2.3992,2.3483,2.3353,2.315,2.262,2.2598,2.2801,2.3139,2.39,2.4729,2.549,2.571,2.5541,2.478,2.4678,2.4864,2.5355,2.3917,2.3833,2.6268,2.6065,2.5998,2.6471,2.7199,2.6708,2.4625,2.6234,2.5727,2.2412,2.2885,2.2919,2.231,2.231,2.231,2.231,2.231,2.231,2.2282,2.1899,2.1507,2.1086,2.0616,2.0193,1.9818,1.9726,1.969,1.969,1.969,1.969,1.969,1.969,1.969,1.969,3.254,3.2705,0.0,3.2773,3.2005,3.133,3.1166,3.0139,2.9334,2.9225,2.8959,2.8612,2.8164,2.7773,2.7531,2.7493,2.7885,2.839,2.9055,2.9569,2.9973,3.0196,3.0323,3.0398,3.0398,3.0398,3.0833,3.1698,3.1698,3.2151,0.0,3.3001,0.0,3.2569,0.0,3.1882,3.1543,3.1094,3.0898,3.0898,3.0898,3.0858,3.0793,3.0793,3.0738,3.0531,2.9622,2.9032,2.8533,2.7591,2.6969,2.6437,2.5442,2.5088,2.4962,2.4712,2.4594,2.4444,2.4247,2.419,2.419,2.419,2.419,2.4074,2.3566,2.3305,2.3087,2.259,2.2415,2.2412,2.2767,2.3731,2.4475,2.4458,2.5101,2.522,2.4069,2.3917,2.3917,2.39,2.3291,2.3579,2.5372,2.5575,2.5913,2.664,2.7385,2.6843,2.4625,2.6234,2.5727,2.2412,2.2649,2.2665,2.231,2.231,2.231,2.231,2.231,2.231,2.2282,2.2077,2.1735,2.1275,2.0846,2.0431,2.0,1.9782,1.969,1.969,1.969,1.969,1.969,1.969,1.969,1.969,3.2921,3.2934,3.2836,3.2011,3.1431,3.1031,3.0922,3.0311,2.9767,2.9494,2.9438,2.9185,2.8489,2.8093,2.7697,2.7231,2.7775,2.8323,2.8779,2.9541,3.0122,3.0398,3.0398,3.0398,3.0398,3.0398,3.0825,3.1727,3.1912,3.2471,3.34,3.3574,3.3537,3.3275,3.2536,3.2109,3.1875,3.1191,3.0898,3.0898,3.0878,3.0793,3.0693,3.0684,3.0648,3.0432,2.9338,2.8534,2.7804,2.6699,2.6332,2.6177,2.5287,2.4986,2.4898,2.4607,2.4461,2.441,2.4247,2.419,2.419,2.419,2.419,2.4113,2.3774,2.35,2.3212,2.2873,2.259,2.2439,2.2609,2.3401,2.3883,2.346,2.4435,2.4785,2.3442,2.3391,2.3289,2.2711,2.3095,2.368,2.4438,2.5169,2.5878,2.6568,2.7216,2.681,2.5082,2.6218,2.5642,2.2868,2.2919,2.2936,2.2784,2.2462,2.231,2.231,2.231,2.231,2.231,2.2209,2.1899,2.146,2.1023,2.0583,2.0158,1.9839,1.969,1.969,1.969,1.969,1.969,1.969,1.969,1.969,3.3438,3.3351,3.3087,3.2221,3.1631,3.1184,3.094,3.0571,3.0169,2.9731,2.9053,2.8577,2.8501,2.7126,2.6487,2.7148,2.728,2.7752,2.8722,2.9541,3.0122,3.0398,3.0398,3.0398,3.0398,3.0398,3.0863,3.1797,3.258,3.3458,3.4379,3.5125,3.4684,3.3266,3.2535,3.1758,3.1016,3.0937,3.0898,3.0898,3.0769,3.0718,3.069,3.0619,3.0561,3.0303,2.8694,2.8018,2.7642,2.5986,2.5418,2.536,2.5096,2.4917,2.479,2.4559,2.4375,2.4228,2.4227,2.419,2.419,2.419,2.419,2.4113,2.3774,2.3671,2.3566,2.3212,2.2898,2.2885,2.3628,2.3078,2.2699,2.3291,2.3785,2.3757,2.2885,2.3404,2.3826,2.3757,2.3545,2.368,2.4438,2.5169,2.5817,2.6311,2.6631,2.6708,2.6505,2.7266,2.6657,2.4388,2.4932,2.4966,2.432,2.297,2.231,2.231,2.231,2.231,2.2282,2.1869,2.143,2.1023,2.0583,2.0124,1.9747,1.9726,1.969,1.969,1.969,1.969,1.969,1.969,1.969,1.969,3.2674,3.2751,3.2593,3.1777,3.1573,3.1325,3.0701,3.0484,3.0343,3.0142,2.9841,2.9434,2.8918,2.8249,2.758,2.6899,2.7319,2.7574,2.7481,2.872,2.9512,2.9621,3.0121,3.0398,3.0398,3.0441,3.0898,3.1796,3.2707,3.3634,3.4579,3.4891,3.4433,3.3333,3.2558,3.1952,3.1534,3.1005,3.0762,3.0716,3.0657,3.0623,3.0581,3.054,3.0498,3.0286,2.909,2.8636,2.8352,2.6659,2.5646,2.5088,2.493,2.4756,2.4575,2.4375,2.4247,2.419,2.419,2.419,2.419,2.419,2.419,2.417,2.4016,2.3837,2.3671,2.3522,2.3236,2.3102,2.3435,2.3501,2.345,2.3319,2.3746,2.3858,2.3102,2.3277,2.3488,2.3488,2.318,2.3292,2.4053,2.5023,2.5875,2.6493,2.7505,2.7794,2.7166,2.713,2.6725,2.5845,2.4391,2.39,2.4506,2.3038,2.231,2.231,2.231,2.231,2.2282,2.2106,2.1645,2.0959,2.0243,1.9839,1.969,1.969,1.969,1.969,1.969,1.969,1.969,1.969,1.969,1.969,3.2007,3.2137,3.2015,3.1178,3.1187,3.1121,3.0494,3.0398,3.0398,3.0398,3.0398,3.0179,2.9544,2.9256,2.8621,2.7448,2.7678,2.764,2.7024,2.8313,2.9102,2.9102,2.9929,3.0402,3.0428,3.0472,3.0823,3.1479,3.2402,3.3204,3.3908,3.4142,3.382,3.3027,3.2401,3.1945,3.1574,3.0934,3.0633,3.06,3.0575,3.0545,3.0498,3.0482,3.0441,3.0294,2.941,2.9102,2.8871,2.7467,2.6232,2.5234,2.4903,2.47,2.4545,2.4266,2.419,2.419,2.419,2.419,2.419,2.419,2.419,2.419,2.419,2.4016,2.3855,2.3855,2.3566,2.3346,2.3346,2.3697,2.3819,2.3277,2.3715,2.3922,2.3417,2.3346,2.3346,2.3346,2.3239,2.3293,2.3659,2.4833,2.5832,2.6485,2.7724,2.8083,2.723,2.6873,2.659,2.6387,2.4154,2.3444,2.4506,2.3038,2.231,2.231,2.231,2.231,2.2282,2.2163,2.1675,2.0975,2.0208,1.9818,1.969,1.969,1.969,1.969,1.969,1.969,1.969,1.969,1.969,1.969,3.1802,3.1705,3.1448,3.0552,3.0398,3.0398,3.0398,3.0398,3.0398,3.0398,3.0398,3.0398,3.0379,2.9621,2.9083,2.9063,2.8352,2.789,2.7871,2.864,2.9102,2.9102,2.9929,3.0439,3.0498,3.0498,3.0561,3.0713,3.1594,3.2098,3.2246,3.3047,3.2988,3.2207,3.2077,3.1516,3.0713,3.0638,3.0606,3.06,3.0529,3.0498,3.049,3.0428,3.041,3.0294,2.941,2.9102,2.8967,2.8159,2.7039,2.5842,2.5049,2.4804,2.4716,2.4321,2.419,2.419,2.419,2.419,2.419,2.419,2.419,2.419,2.419,2.4208,2.419,2.419,2.3917,2.3692,2.3692,2.3432,2.3206,2.3189,2.3477,2.3692,2.3692,2.3692,2.3692,2.3692,2.4041,2.4007,2.3277,2.4607,2.5656,2.6092,2.6788,2.7068,2.6725,2.6691,2.637,2.5642,2.4864,2.4489,2.4506,2.3038,2.231,2.231,2.231,2.231,2.2282,2.1823,2.1399,2.0959,2.0483,2.007,1.969,1.969,1.969,1.969,1.969,1.969,1.969,1.969,1.969,1.969,3.0859,3.0814,3.0737,3.0436,3.0398,3.0398,3.0398,3.0398,3.0398,3.0398,3.0398,3.0398,3.0398,3.016,2.9525,2.8371,2.8044,2.739,2.6217,2.7486,2.8275,2.8275,2.9699,3.0482,3.0498,3.0594,3.0665,3.0696,3.1653,3.2167,3.2207,3.2461,3.2088,3.1179,3.1131,3.0915,3.0561,3.0545,3.0507,3.0462,3.0441,3.0439,3.0439,3.0402,3.0398,3.0359,3.0102,2.9602,2.8956,2.8018,2.7026,2.6024,2.4948,2.4512,2.4357,2.4247,2.419,2.419,2.419,2.419,2.419,2.419,2.419,2.419,2.419,2.419,2.419,2.419,2.4132,2.4036,2.4036,2.3937,2.3876,2.3876,2.3976,2.4036,2.4036,2.4036,2.4036,2.4036,2.3949,2.3791,2.3562,2.4733,2.5808,2.6524,2.82,2.8921,2.8303,2.7261,2.6826,2.708,2.4915,2.3985,2.4506,2.3038,2.231,2.231,2.231,2.231,2.2282,2.1823,2.1368,2.0959,2.0516,2.0054,1.969,1.969,1.969,1.969,1.969,1.969,1.969,1.969,1.969,1.975,3.043,3.0452,3.0482,3.0482,3.0442,3.043,3.043,3.0425,3.0398,3.0398,3.0398,3.0402,3.043,3.043,3.0004,2.8929,2.8544,2.789,2.6794,2.7769,2.8396,2.8396,2.9771,3.0559,3.0575,3.0665,3.0721,3.0771,3.1405,3.1719,3.1719,3.1658,3.13,3.0693,3.0657,3.0581,3.0498,3.0472,3.043,3.0398,3.0398,3.0398,3.0398,3.0398,3.0343,3.0216,2.9902,2.9404,2.8727,2.7812,2.6859,2.5943,2.519,2.4616,2.419,2.419,2.419,2.419,2.419,2.419,2.419,2.419,2.419,2.419,2.419,2.419,2.419,2.419,2.419,2.419,2.419,2.419,2.419,2.419,2.419,2.419,2.419,2.419,2.419,2.419,2.4016,2.3896,2.3896,2.4568,2.5243,2.5793,2.7531,2.8291,2.7699,2.748,2.7129,2.6573,2.4509,2.3477,2.3663,2.2767,2.231,2.231,2.231,2.231,2.2282,2.2003,2.1628,2.1213,2.091,2.0449,1.9945,1.9945,1.9854,1.969,1.969,1.969,1.969,1.969,1.9854,2.0139,3.0516,3.0567,3.0606,3.0606,3.0559,3.0516,3.0516,3.0452,3.0414,3.0414,3.0414,3.043,3.0498,3.0516,3.0482,3.0425,2.9616,2.9096,2.9019,2.9157,2.9218,2.9218,3.0102,3.0643,3.0693,3.0716,3.0771,3.0898,3.0898,3.0898,3.0879,3.0767,3.0693,3.0684,3.0547,3.0498,3.05,3.0428,3.0398,3.0398,3.0398,3.0398,3.0367,3.0367,3.0209,2.987,2.9117,2.8673,2.8294,2.7538,2.6543,2.5609,2.5591,2.4949,2.419,2.419,2.419,2.419,2.419,2.419,2.419,2.419,2.419,2.419,2.419,2.419,2.419,2.419,2.419,2.419,2.419,2.419,2.419,2.419,2.419,2.419,2.419,2.419,2.419,2.419,2.419,2.419,2.419,2.419,2.4245,2.4355,2.5455,2.5996,2.5685,2.7495,2.733,2.4659,2.3849,2.3122,2.2395,2.2344,2.231,2.231,2.231,2.231,2.231,2.231,2.2032,2.1582,2.1582,2.1102,2.0314,2.0314,2.0054,1.969,1.969,1.969,1.969,1.9735,2.0124,2.0662,3.0575,3.0594,3.0606,3.0606,3.0587,3.0575,3.0575,3.0554,3.054,3.054,3.054,3.0567,3.0575,3.0575,3.0568,3.054,2.9809,2.9059,2.8385,2.8961,2.9356,2.9356,3.0204,3.0684,3.0696,3.0793,3.0878,3.0898,3.0898,3.0857,3.0745,3.0718,3.0657,3.0552,3.0505,3.0463,3.0417,3.0421,3.0398,3.0398,3.0398,3.0286,3.0089,3.0089,2.9954,2.9744,2.9572,2.8631,2.7452,2.7114,2.5999,2.4757,2.4598,2.4394,2.419,2.419,2.419,2.419,2.419,2.419,2.419,2.419,2.419,2.419,2.419,2.419,2.419,2.419,2.419,2.419,2.419,2.419,2.419,2.419,2.419,2.419,2.419,2.419,2.419,2.419,2.419,2.419,2.419,2.419,2.4704,2.5952,2.6878,2.7345,2.7341,2.837,2.7866,2.5421,2.4611,2.3883,2.3139,2.2581,2.231,2.231,2.231,2.231,2.231,2.231,2.2032,2.1582,2.1582,2.1102,2.0314,2.0314,2.0054,1.969,1.969,1.969,1.975,2.0273,2.0243,2.0154,3.1768,3.1867,3.188,3.188,3.1531,3.1378,3.1768,3.147,3.1351,3.174,3.1799,3.1654,3.1276,3.1241,3.1094,3.0765,3.0253,2.9755,2.9274,2.9708,2.9994,2.9994,3.0506,3.0792,3.0792,3.0858,3.0878,3.0814,3.0814,3.0762,3.0642,3.0614,3.0568,3.0498,3.0482,3.0419,3.0398,3.0398,3.0398,3.0398,3.0398,3.0311,3.0163,3.0061,2.9877,2.9639,2.9138,2.8315,2.7345,2.6488,2.5875,2.5374,2.4909,2.4997,2.5309,2.5309,2.4777,2.419,2.419,2.419,2.419,2.419,2.419,2.419,2.419,2.419,2.419,2.419,2.419,2.419,2.419,2.419,2.419,2.419,2.419,2.419,2.419,2.419,2.419,2.419,2.419,2.419,2.419,2.452,2.5107,2.5988,2.7126,2.7747,2.7602,2.8326,2.7789,2.5675,2.5203,2.4644,2.39,2.3511,2.3308,2.3308,2.3308,2.3308,2.3308,2.3308,2.2971,2.2412,2.2412,2.1833,2.0894,2.0894,2.0516,1.9965,1.9965,2.0035,2.0198,2.0572,2.0857,2.124,3.301,3.3277,3.3398,3.3398,3.2748,3.2461,3.3205,3.2647,3.2343,3.2966,3.3044,3.279,3.2107,3.2031,3.1825,3.1328,3.1003,3.0833,3.0833,3.0898,3.0977,3.1094,3.1091,3.1152,3.1269,3.1269,3.1146,3.0891,3.0882,3.0774,3.0581,3.0521,3.049,3.0491,3.0428,3.0398,3.0398,3.0398,3.0386,3.0343,3.0343,3.0299,3.0215,3.0003,2.978,2.9476,2.8556,2.8056,2.7585,2.6229,2.6135,2.6484,2.5786,2.6043,2.6612,2.6612,2.564,2.4538,2.441,2.4281,2.419,2.419,2.419,2.419,2.419,2.419,2.419,2.419,2.419,2.419,2.419,2.419,2.4245,2.4355,2.4281,2.4245,2.4355,2.4281,2.419,2.419,2.43,2.4373,2.4373,2.5107,2.5586,2.5586,2.6961,2.7616,2.7211,2.7918,2.7561,2.5907,2.5756,2.53,2.4523,2.4506,2.4506,2.4506,2.4506,2.4506,2.4506,2.4506,2.4086,2.3393,2.3393,2.2731,2.1582,2.1582,2.1134,2.0431,2.0423,2.0574,2.0798,2.097,2.1665,2.2604,3.248,3.293,3.3398,3.3398,3.3281,3.3222,3.3359,3.326,3.2966,3.2439,3.236,3.2303,3.2187,3.2167,3.2402,3.2969,3.2362,3.195,3.195,3.1952,3.2265,3.2948,3.2344,3.2324,3.3008,3.2957,3.255,3.1809,3.1739,3.13,3.0524,3.0507,3.0463,3.0425,3.039,3.0398,3.0398,3.0398,3.0267,3.0061,3.0061,2.9864,2.9551,2.9513,2.9332,2.9075,2.892,2.8419,2.775,2.7512,2.7053,2.6594,2.6447,2.6502,2.6612,2.6612,2.6429,2.608,2.5383,2.4704,2.419,2.419,2.419,2.419,2.419,2.419,2.419,2.419,2.419,2.419,2.419,2.419,2.441,2.5109,2.463,2.4428,2.5127,2.463,2.419,2.419,2.4795,2.5219,2.5219,2.5933,2.641,2.641,2.7273,2.7616,2.7211,2.7683,2.7683,2.7068,2.6415,2.5592,2.4523,2.4506,2.4506,2.4506,2.4506,2.4506,2.4506,2.4506,2.4086,2.3393,2.3393,2.2731,2.1582,2.1582,2.1337,2.0925,2.1089,2.1173,2.1311,2.2094,2.2143,2.1994,3.4238,3.4551,3.4805,3.4805,3.4805,3.4805,3.4805,3.4394,3.4141,3.4238,3.4258,3.4062,3.3594,3.3555,3.3516,3.3418,3.3066,3.3047,3.3516,3.2695,3.2559,3.3359,3.3047,3.3006,3.3348,3.2868,3.2366,3.1884,3.1856,3.1368,3.0451,3.0934,3.1133,3.1083,3.0609,3.0592,3.0847,3.0387,3.0047,2.9845,2.9845,2.9731,2.9533,2.9434,2.933,2.92,2.9044,2.8778,2.8374,2.7952,2.7842,2.7824,2.7383,2.7548,2.7897,2.7897,2.6979,2.586,2.5513,2.4795,2.419,2.419,2.419,2.419,2.419,2.419,2.419,2.419,2.419,2.419,2.419,2.419,2.4318,2.4685,2.4428,2.4318,2.4685,2.4428,2.419,2.419,2.452,2.474,2.474,2.5878,2.6612,2.6612,2.775,2.8273,2.7861,2.8048,2.789,2.7334,2.6756,2.6241,2.5676,2.5676,2.5676,2.5676,2.5676,2.5676,2.5676,2.5676,2.527,2.456,2.4154,2.3456,2.2571,2.2571,2.2297,2.1972,2.2504,2.2584,2.2477,2.2906,2.2955,2.2802,3.5605,3.5859,3.5996,3.5996,3.5996,3.5996,3.5996,3.543,3.5176,3.5644,3.5703,3.5449,3.4766,3.4707,3.4512,3.4043,3.3828,3.4062,3.4941,3.3593,3.3124,3.3965,3.3984,3.3859,3.3614,3.2896,3.2382,3.2106,3.2077,3.16,3.0717,3.1583,3.1987,3.1948,3.1015,3.0962,3.152,3.0392,2.9926,2.9907,2.9719,2.9588,2.9514,2.9373,2.931,2.9289,2.9067,2.8994,2.8902,2.8282,2.8503,2.8883,2.8282,2.8503,2.8994,2.8994,2.7567,2.5935,2.5733,2.5089,2.4428,2.4245,2.419,2.419,2.419,2.419,2.419,2.419,2.419,2.4209,2.4247,2.4228,2.4282,2.4505,2.4357,2.4263,2.4447,2.4318,2.419,2.419,2.452,2.4759,2.4759,2.6209,2.7163,2.7163,2.8297,2.8839,2.842,2.8342,2.7946,2.7178,2.6873,2.6691,2.6691,2.6691,2.6691,2.6691,2.6691,2.6691,2.6691,2.6691,2.6302,2.5558,2.4814,2.4069,2.3376,2.3207,2.2929,2.269,2.3522,2.3705,2.3456,2.3608,2.3713,2.3752,3.4941,3.5449,3.5996,3.5996,3.5996,3.5996,3.5996,3.5957,3.5644,3.4883,3.4805,3.4766,3.4707,3.4707,3.5,3.5742,3.5078,3.4961,3.5859,3.4968,3.4847,3.5762,3.5749,3.5337,3.4514,3.4248,3.3761,3.2996,3.2871,3.2403,3.1621,3.2429,3.2814,3.2776,3.1699,3.1669,3.2289,3.0478,3.0039,3.0476,2.9712,2.9267,2.9044,2.904,2.904,2.904,2.9017,2.8994,2.8975,2.892,2.8938,2.8975,2.892,2.8938,2.8994,2.8994,2.8356,2.7457,2.6704,2.5915,2.5146,2.4392,2.419,2.419,2.419,2.419,2.419,2.419,2.419,2.4266,2.4444,2.4339,2.4505,2.543,2.482,2.4447,2.5219,2.4667,2.419,2.419,2.5529,2.6429,2.6429,2.7897,2.881,2.881,2.892,2.8839,2.842,2.8102,2.756,2.6791,2.6725,2.6691,2.6691,2.6691,2.6691,2.6691,2.6691,2.6691,2.6691,2.6691,2.6302,2.5558,2.4814,2.4069,2.3342,2.2665,2.235,2.2428,2.3371,2.372,2.3748,2.4186,2.4343,2.4266,3.5566,3.5762,3.5996,3.5996,3.5996,3.5996,3.5996,3.5996,3.5879,3.5547,3.5508,3.5508,3.5508,3.5508,3.5644,3.5976,3.5659,3.5572,3.5923,3.5533,3.5451,3.5806,3.5783,3.5606,3.524,3.4613,3.4118,3.3778,3.3737,3.3276,3.2468,3.3314,3.3626,3.3383,3.1947,3.1853,3.269,3.0976,3.0286,3.0319,3.0023,2.9531,2.8994,2.8994,2.8994,2.8994,2.8994,2.8994,2.8994,2.8994,2.8994,2.8994,2.8994,2.8994,2.8994,2.8994,2.8796,2.8374,2.7567,2.6759,2.6062,2.5768,2.5309,2.4924,2.4924,2.4557,2.419,2.419,2.419,2.4228,2.4303,2.4266,2.4338,2.4727,2.4449,2.43,2.4612,2.4392,2.419,2.419,2.474,2.5309,2.5805,2.6869,2.7732,2.8227,2.8723,2.8725,2.8129,2.75,2.7036,2.6725,2.6691,2.6691,2.6691,2.6691,2.6691,2.6691,2.6691,2.6691,2.6691,2.6691,2.6302,2.5558,2.4814,2.4354,2.4052,2.3765,2.3934,2.4397,2.4929,2.4666,2.4055,2.4312,2.3938,2.3349,3.6406,3.6406,3.6484,3.6777,3.6582,3.6504,3.6777,3.6816,3.6719,3.6445,3.6406,3.6309,3.6035,3.6209,3.6246,3.5993,3.6391,3.6421,3.5875,3.573,3.5675,3.5703,3.5675,3.5638,3.5591,3.4737,3.4264,3.4199,3.4199,3.3891,3.3333,3.4199,3.4467,3.4151,3.2638,3.2487,3.3268,3.1574,3.0895,3.0925,3.0411,3.0026,2.9732,2.9475,2.936,2.936,2.936,2.9195,2.8994,2.8994,2.8994,2.8994,2.8994,2.8994,2.8994,2.8994,2.8994,2.8865,2.8338,2.7769,2.7236,2.6741,2.619,2.5695,2.5458,2.4961,2.4502,2.4245,2.419,2.4209,2.4284,2.4247,2.4228,2.4284,2.4247,2.419,2.419,2.419,2.419,2.419,2.4649,2.5162,2.5713,2.6741,2.7585,2.8136,2.8705,2.8725,2.8075,2.7317,2.6906,2.6906,2.6758,2.6691,2.6691,2.6691,2.6691,2.6691,2.6691,2.6691,2.6691,2.6691,2.642,2.5896,2.5169,2.4831,2.4814,2.4608,2.478,2.5289,2.5714,2.5283,2.439,2.4602,2.4029,2.3262,3.7305,3.7305,3.7578,3.8457,3.7871,3.7598,3.8457,3.8594,3.8281,3.7402,3.7305,3.6973,3.6113,3.6662,3.6793,3.5997,3.7371,3.7557,3.582,3.5639,3.565,3.5696,3.5639,3.5611,3.5611,3.4692,3.4199,3.4199,3.4199,3.4199,3.4218,3.5103,3.5354,3.5049,3.3904,3.3684,3.4083,3.2195,3.1861,3.2467,3.087,3.0687,3.1311,3.0503,3.021,3.021,3.021,2.9696,2.8994,2.8994,2.8994,2.8994,2.8994,2.8994,2.8994,2.8994,2.8994,2.8994,2.8994,2.8994,2.8608,2.7034,2.6612,2.641,2.5605,2.5421,2.5182,2.4373,2.419,2.4247,2.4461,2.4339,2.4284,2.4461,2.4339,2.4208,2.419,2.419,2.419,2.419,2.5621,2.6594,2.6594,2.8044,2.8975,2.8975,2.8994,2.8815,2.842,2.7689,2.7303,2.7303,2.6906,2.6691,2.6691,2.6691,2.6691,2.6691,2.6691,2.6691,2.6691,2.6691,2.6691,2.664,2.593,2.5609,2.5541,2.4797,2.4523,2.4608,2.5321,2.5263,2.4835,2.5115,2.4855,2.4307,3.7969,3.7715,3.7578,3.8457,3.8379,3.8086,3.7734,3.8203,3.8241,3.7287,3.7695,3.7956,3.7653,3.7806,3.7845,3.7592,3.7935,3.7655,3.647,3.6382,3.6119,3.557,3.5553,3.5528,3.5528,3.5264,3.5122,3.5122,3.5122,3.5122,3.5122,3.5189,3.5088,3.4756,3.3646,3.3431,3.3854,3.2739,3.2394,3.2577,3.2082,3.1696,3.1366,3.1127,3.1035,3.0962,3.0393,3.0063,2.9769,2.92,2.8994,2.8994,2.8994,2.8994,2.8994,2.8994,2.8994,2.8994,2.8994,2.8994,2.8865,2.8388,2.786,2.7383,2.7126,2.6211,2.5329,2.509,2.4575,2.4209,2.4266,2.4707,2.489,2.4377,2.4707,2.4832,2.4281,2.419,2.419,2.419,2.4612,2.5144,2.5695,2.6704,2.7548,2.8117,2.8182,2.8047,2.766,2.7161,2.6873,2.6873,2.6741,2.6691,2.6691,2.6691,2.6691,2.6691,2.6691,2.6691,2.6691,2.6691,2.642,2.593,2.571,2.5609,2.5592,2.5372,2.5575,2.6015,2.5931,2.5283,2.439,2.4563,2.4029,2.3247,3.8277,3.8336,3.8489,3.9328,3.9211,3.8938,3.8723,3.9133,3.9009,3.7742,3.8341,3.8591,3.7875,3.8352,3.8588,3.8248,3.8117,3.781,3.7238,3.6892,3.6488,3.6007,3.5968,3.5834,3.5526,3.5493,3.5493,3.5493,3.5493,3.5493,3.5493,3.5223,3.4963,3.4655,3.3833,3.3599,3.377,3.3293,3.3073,3.3054,3.2742,3.2504,3.2302,3.199,3.1861,3.1806,3.1329,3.0742,3.0136,2.9641,2.925,2.8994,2.8994,2.8994,2.8994,2.8994,2.8994,2.8994,2.8994,2.8994,2.8994,2.8994,2.8631,2.8191,2.786,2.7034,2.6245,2.5933,2.5493,2.5052,2.4722,2.5072,2.5146,2.4318,2.4612,2.4869,2.4685,2.4392,2.4318,2.463,2.4961,2.5346,2.5823,2.6888,2.7665,2.8007,2.796,2.7794,2.753,2.7147,2.6939,2.6939,2.6774,2.6691,2.6691,2.6691,2.6691,2.6691,2.6691,2.6691,2.6691,2.6691,2.6454,2.6048,2.6048,2.6048,2.6048,2.6048,2.6302,2.6657,2.6401,2.5733,2.4903,2.4736,2.4157,2.3405,3.8369,3.8984,3.9762,4.0645,4.019,3.9937,4.0579,4.0762,4.021,3.8614,3.9163,3.9077,3.7502,3.8616,3.9185,3.8384,3.826,3.818,3.8123,3.7373,3.6911,3.6815,3.6815,3.6449,3.5608,3.5622,3.557,3.5493,3.5493,3.5493,3.5446,3.519,3.4926,3.4653,3.4311,3.4018,3.3807,3.3807,3.3807,3.3733,3.2999,3.3146,3.3715,3.2999,3.2724,3.2706,3.254,3.1604,3.0411,3.0338,2.9732,2.8994,2.9067,2.9049,2.8994,2.8994,2.8994,2.8994,2.8994,2.8994,2.8994,2.8994,2.8994,2.8815,2.8062,2.7842,2.7585,2.6869,2.6649,2.6374,2.5621,2.5568,2.5366,2.4538,2.4465,2.474,2.5421,2.4869,2.4685,2.5421,2.6153,2.6591,2.6551,2.7922,2.8652,2.8324,2.802,2.784,2.7794,2.7457,2.7241,2.7241,2.6906,2.6691,2.6691,2.6691,2.6691,2.6691,2.6691,2.6691,2.6691,2.6691,2.6691,2.6691,2.6691,2.6691,2.6691,2.6691,2.6691,2.6691,2.6657,2.6367,2.5852,2.5335,2.4792,2.4266,3.8921,3.8914,3.9042,4.0548,4.0665,4.0385,3.9937,4.0404,4.0418,3.9314,3.9924,4.0277,3.9791,4.0058,4.0183,3.9991,3.998,3.9681,3.9065,3.8834,3.843,3.7757,3.7719,3.7315,3.6469,3.6449,3.6142,3.5493,3.5493,3.5383,3.519,3.4908,3.4614,3.4311,3.4012,3.3868,3.3807,3.3807,3.3807,3.377,3.3605,3.3642,3.377,3.3605,3.3532,3.3366,3.21,3.1843,3.199,3.1347,3.0191,2.9104,2.9751,2.9512,2.8994,2.8994,2.8994,2.8994,2.8994,2.8994,2.8994,2.8994,2.8994,2.8938,2.8796,2.8246,2.775,2.7585,2.7034,2.6557,2.6374,2.6851,2.7016,2.6209,2.6612,2.6851,2.641,2.619,2.6135,2.6319,2.6502,2.6469,2.6168,2.6785,2.7297,2.7537,2.747,2.7286,2.6971,2.6873,2.6841,2.6841,2.6758,2.6691,2.6691,2.6691,2.6691,2.6691,2.6691,2.6691,2.6691,2.6691,2.6691,2.6691,2.6691,2.6691,2.6691,2.6691,2.6691,2.6657,2.6297,2.5835,2.5297,2.4776,2.4225,2.3752,3.9185,3.9398,3.9619,4.0502,4.0657,4.0521,4.0084,4.0386,4.0331,3.9457,4.0075,4.0433,3.9985,4.0258,4.0489,4.0489,4.0489,4.0162,3.9354,3.9296,3.9104,3.8642,3.8623,3.82,3.7334,3.7315,3.6719,3.5493,3.5493,3.5432,3.5289,3.4889,3.4612,3.4423,3.4005,3.3807,3.3807,3.3807,3.3807,3.3807,3.3807,3.3807,3.3807,3.3807,3.3568,3.3164,3.2706,3.232,3.1861,3.0668,2.9714,2.9067,2.9494,2.9347,2.8994,2.8994,2.8994,2.8994,2.8994,2.8994,2.9085,2.9494,2.9292,2.8994,2.8994,2.8686,2.8374,2.8374,2.8044,2.764,2.7236,2.7512,2.753,2.6741,2.6961,2.7218,2.7181,2.6851,2.6741,2.7126,2.7163,2.7159,2.7139,2.7057,2.7081,2.7299,2.7459,2.7452,2.7232,2.7232,2.7402,2.7774,2.7418,2.7418,2.7774,2.7791,2.7588,2.7232,2.686,2.6691,2.6691,2.6691,2.6691,2.6691,2.6691,2.6691,2.6691,2.6691,2.659,2.6332,2.6085,2.5689,2.5144,2.4592,2.4074,2.3595,3.9258,3.9835,4.0335,4.0469,4.0489,4.0489,4.0489,4.0489,4.0258,3.9585,4.0085,4.0239,3.9565,4.0085,4.0489,4.0489,4.0489,4.0219,3.9546,3.9508,3.9508,3.9508,3.9508,3.9027,3.8027,3.7959,3.7117,3.5432,3.5432,3.5383,3.527,3.4832,3.4591,3.4508,3.403,3.3807,3.3807,3.3807,3.3807,3.3807,3.3807,3.3807,3.3807,3.3807,3.3311,3.2706,3.3366,3.2651,3.1201,2.9861,2.942,2.9402,2.9255,2.9195,2.9177,2.903,2.8994,2.9012,2.9159,2.9195,2.9402,3.021,2.9806,2.9195,2.9195,2.9085,2.8994,2.8994,2.8994,2.8792,2.8136,2.8007,2.7787,2.7126,2.7145,2.7402,2.7934,2.7548,2.742,2.7934,2.7899,2.8009,2.8468,2.7824,2.7451,2.7589,2.7862,2.8027,2.8027,2.8027,2.8315,2.8958,2.8349,2.8332,2.8975,2.9011,2.8653,2.801,2.7385,2.6945,2.6691,2.6826,2.6826,2.6691,2.6691,2.6691,2.6691,2.6624,2.6367,2.5977,2.5815,2.5449,2.4989,2.4471,2.3991,2.3595,3.9142,3.9392,3.9681,4.0373,4.0489,4.0489,4.0489,4.0489,4.045,4.0335,4.0431,4.045,4.0335,4.0431,4.0489,4.0489,4.0489,4.045,4.0335,4.0335,4.0335,4.0335,4.0335,3.9604,3.8027,3.7775,3.6833,3.5138,3.5138,3.4888,3.4383,3.4292,3.4123,3.3921,3.3842,3.3807,3.3807,3.3807,3.3807,3.3807,3.3807,3.3807,3.3807,3.3807,3.3311,3.2614,3.2724,3.2173,3.1366,3.1146,3.1072,3.0944,3.0265,3.0044,2.9898,2.9195,2.8994,2.914,2.9861,3.0044,3.0228,3.1035,3.0632,3.0044,3.0044,2.9512,2.8994,2.8994,2.8994,2.8957,2.8847,2.8851,2.8792,2.8682,2.9274,2.9512,2.8925,2.9347,2.9512,2.8902,2.8268,2.8152,2.8858,2.8209,2.8013,2.8727,2.8791,2.8822,2.8822,2.8822,2.8873,2.9011,2.8873,2.8873,2.9011,2.9011,2.896,2.8822,2.8757,2.7977,2.6708,2.7368,2.73,2.6691,2.6691,2.6691,2.6657,2.6262,2.6049,2.5888,2.4973,2.4576,2.443,2.3921,2.3681,2.3595,3.9892,3.9969,4.0065,4.0431,4.0489,4.0489,4.0489,4.0489,4.0489,4.0489,4.0489,4.0489,4.0489,4.0489,4.0489,4.0489,4.0489,4.0489,4.0489,4.0489,4.0489,4.0489,4.0065,3.9258,3.8027,3.7398,3.6356,3.4889,3.4889,3.4754,3.4486,3.4288,3.4147,3.4018,3.3868,3.3807,3.377,3.333,3.3385,3.3752,3.3311,3.3403,3.3752,3.3311,3.2926,3.2559,3.21,3.199,3.2008,3.1549,3.1384,3.1256,3.0448,3.021,3.0136,2.9769,2.9677,2.9751,3.0099,3.021,3.0283,3.0632,3.0118,2.9659,3.0099,2.9586,2.8994,2.8994,2.8994,2.9122,2.9604,2.931,2.9287,3.0191,2.9879,2.9567,2.9659,2.9604,2.9313,2.8718,2.8971,2.9064,2.8683,2.8562,2.8619,2.8958,2.9364,2.96,2.96,2.96,2.9786,3.0209,2.982,2.9803,3.0209,3.0226,3.0006,2.9617,3.0023,2.9211,2.7351,2.8129,2.8044,2.7317,2.7317,2.7178,2.6881,2.625,2.5859,2.5584,2.4748,2.4241,2.3906,2.3681,2.3595,2.3595]}]]